[[{"header":{"parameterUnit":"m.s-1","parameterCategory":1,"la1":31.0,"la2":29.5877,"lo1":-88.7671,"lo2":-86.6584,"dy":0.0162,"dx":0.0185,"nx":115,"ny":88,"refTime":"2026-03-03T12:00:00:Z","depth":0,"parameterNumber":2,"parameterNumberName":"U-component_of_WINDS"},"data":[0.0,0.0,0.0,0.0,0.0,0.0,0.0,0.0,0.0,0.0,0.0,0.0,0.0,0.0,0.0,0.0,0.0,0.0,0.0,0.0,0.0,0.0,0.0,0.0,0.0,0.0,0.0,0.0,0.0,0.0,0.0,0.0,0.0,0.0,0.0,0.0,0.0,0.0,0.0,0.0,0.0,0.0,0.0,0.0,0.0,0.0,0.0,0.0,0.0,0.0,0.0,0.0,0.0,0.0,0.0,0.0,0.0,0.0,0.0,0.0,0.0,0.0,0.0,0.0,0.0,0.0,0.0,0.0,0.0,0.0,0.0,0.0,0.0,0.0,0.0,0.0,0.0,0.0,0.0,0.0,0.0,0.0,0.0,0.0,0.0,0.0,0.0,0.0,0.0,0.0,0.0,0.0,0.0,0.0,0.0,0.0,0.0,0.0,0.0,0.0,0.0,0.0,0.0,0.0,0.0,0.0,0.0,0.0,0.0,0.0,0.0,0.0,0.0,0.0,0.0,0.0,0.0,0.0,0.0,0.0,0.0,0.0,0.0,0.0,0.0,0.0,0.0,0.0,0.0,0.0,0.0,0.0,0.0,0.0,0.0,0.0,0.0,0.0,0.0,0.0,0.0,0.0,0.0,0.0,0.0,0.0,0.0,0.0,0.0,0.0,0.0,0.0,0.0,0.0,0.0,0.0,0.0,0.0,0.0,0.0,0.0,0.0,0.0,0.0,0.0,0.0,0.0,0.0,0.0,0.0,0.0,0.0,0.0,0.0,0.0,0.0,0.0,0.0,0.0,0.0,0.0,0.0,0.0,0.0,0.0,0.0,0.0,0.0,0.0,0.0,0.0,0.0,0.0,0.0,0.0,0.0,0.0,0.0,0.0,0.0,0.0,0.0,0.0,0.0,0.0,0.0,0.0,0.0,0.0,0.0,0.0,0.0,0.0,0.0,0.0,0.0,0.0,0.0,0.0,0.0,0.0,0.0,0.0,0.0,0.0,0.0,0.0,0.0,0.0,0.0,0.0,0.0,0.0,0.0,0.0,0.0,0.0,0.0,0.0,0.0,0.0,0.0,0.0,0.0,0.0,0.0,0.0,0.0,0.0,0.0,0.0,0.0,0.0,0.0,0.0,0.0,0.0,0.0,0.0,0.0,0.0,0.0,0.0,0.0,0.0,0.0,0.0,0.0,0.0,0.0,0.0,0.0,0.0,0.0,0.0,0.0,0.0,0.0,0.0,0.0,0.0,0.0,0.0,0.0,0.0,0.0,0.0,0.0,0.0,0.0,0.0,0.0,0.0,0.0,0.0,0.0,0.0,0.0,0.0,0.0,0.0,0.0,0.0,0.0,0.0,0.0,0.0,0.0,0.0,0.0,0.0,0.0,0.0,0.0,0.0,0.0,0.0,0.0,0.0,0.0,0.0,0.0,0.0,0.0,0.0,0.0,0.0,0.0,0.0,0.0,0.0,0.0,0.0,0.0,0.0,0.0,0.0,0.0,0.0,0.0,0.0,0.0,0.0,0.0,0.0,0.0,0.0,0.0,0.0,0.0,0.0,0.0,0.0,0.0,0.0,0.0,0.0,0.0,0.0,0.0,0.0,0.0,0.0,0.0,0.0,0.0,0.0,0.0,0.0,0.0,0.0,0.0,0.0,0.0,0.0,0.0,0.0,0.0,0.0,0.0,0.0,0.0,0.0,0.0,0.0,0.0,0.0,0.0,0.0,0.0,0.0,0.0,0.0,0.0,0.0,0.0,0.0,0.0,0.0,0.0,0.0,0.0,0.0,0.0,0.0,0.0,0.0,0.0,0.0,0.0,0.0,0.0,0.0,0.0,0.0,0.0,0.0,0.0,0.0,0.0,0.0,0.0,0.0,0.0,0.0,0.0,0.0,0.0,0.0,0.0,0.0,0.0,0.0,0.0,0.0,0.0,0.0,0.0,0.0,0.0,0.0,0.0,0.0,0.0,0.0,0.0,0.0,0.0,0.0,0.0,0.0,0.0,0.0,0.0,0.0,0.0,0.0,0.0,0.0,0.0,0.0,0.0,0.0,0.0,0.0,0.0,0.0,0.0,0.0,0.0,0.0,0.0,0.0,0.0,0.0,0.0,0.0,0.0,0.0,0.0,0.0,0.0,0.0,0.0,0.0,0.0,0.0,0.0,0.0,0.0,0.0,0.0,0.0,0.0,0.0,0.0,0.0,0.0,0.0,0.0,0.0,0.0,0.0,0.0,0.0,0.0,0.0,0.0,0.0,0.0,0.0,0.0,0.0,0.0,0.0,0.0,0.0,0.0,0.0,0.0,0.0,0.0,0.0,0.0,0.0,0.0,0.0,0.0,0.0,0.0,0.0,0.0,0.0,0.0,0.0,0.0,0.0,0.0,0.0,0.0,0.0,0.0,0.0,0.0,0.0,0.0,0.0,0.0,0.0,0.0,0.0,0.0,0.0,0.0,0.0,0.0,0.0,0.0,0.0,0.0,0.0,0.0,0.0,0.0,0.0,0.0,0.0,0.0,0.0,0.0,0.0,0.0,0.0,0.0,0.0,0.0,0.0,0.0,0.0,0.0,0.0,0.0,0.0,0.0,0.0,0.0,0.0,0.0,0.0,0.0,0.0,0.0,0.0,0.0,0.0,0.0,0.0,0.0,0.0,0.0,0.0,0.0,0.0,0.0,0.0,0.0,0.0,0.0,0.0,0.0,0.0,0.0,0.0,0.0,0.0,0.0,0.0,0.0,0.0,0.0,0.0,0.0,0.0,0.0,0.0,0.0,0.0,0.0,0.0,0.0,0.0,0.0,0.0,0.0,0.0,0.0,0.0,0.0,0.0,0.0,0.0,0.0,0.0,0.0,0.0,0.0,0.0,0.0,0.0,0.0,0.0,0.0,0.0,0.0,0.0,0.0,0.0,0.0,0.0,0.0,0.0,0.0,0.0,0.0,0.0,0.0,0.0,0.0,0.0,0.0,0.0,0.0,0.0,0.0,0.0,0.0,0.0,0.0,0.0,0.0,0.0,0.0,0.0,0.0,0.0,0.0,0.0,0.0,0.0,0.0,0.0,0.0,0.0,0.0,0.0,0.0,0.0,0.0,0.0,0.0,0.0,0.0,0.0,0.0,0.0,0.0,0.0,0.0,0.0,0.0,0.0,0.0,0.0,0.0,0.0,0.0,0.0,0.0,0.0,0.0,0.0,0.0,0.0,0.0,0.0,0.0,0.0,0.0,0.0,0.0,0.0,0.0,0.0,0.0,0.0,0.0,0.0,0.0,0.0,0.0,0.0,0.0,0.0,0.0,0.0,0.0,0.0,0.0,0.0,0.0,0.0,0.0,0.0,0.0,0.0,0.0,0.0,0.0,0.0,0.0,0.0,0.0,0.0,0.0,0.0,0.0,0.0,0.0,0.0,0.0,0.0,0.0,0.0,0.0,0.0,0.0,0.0,0.0,0.0,0.0,0.0,0.0,0.0,0.0,0.0,0.0,0.0,0.0,0.0,0.0,0.0,0.0,0.0,0.0,0.0,0.0,0.0,0.0,0.0,0.0,0.0,0.0,0.0,0.0,0.0,0.0,0.0,0.0,0.0,0.0,0.0,0.0,0.0,0.0,0.0,0.0,0.0,0.0,0.0,0.0,0.0,0.0,0.0,0.0,0.0,0.0,0.0,0.0,0.0,0.0,0.0,0.0,0.0,0.0,0.0,0.0,0.0,0.0,0.0,0.0,0.0,0.0,0.0,0.0,0.0,0.0,0.0,0.0,0.0,0.0,0.0,0.0,0.0,0.0,0.0,0.0,0.0,0.0,0.0,0.0,0.0,0.0,0.0,0.0,0.0,0.0,0.0,0.0,0.0,0.0,0.0,0.0,0.0,0.0,0.0,0.0,0.0,0.0,0.0,0.0,0.0,0.0,0.0,0.0,0.0,0.0,0.0,0.0,0.0,0.0,0.0,0.0,0.0,0.0,0.0,0.0,0.0,0.0,0.0,0.0,0.0,0.0,0.0,0.0,0.0,0.0,0.0,0.0,0.0,0.0,0.0,0.0,0.0,0.0,0.0,0.0,0.0,0.0,0.0,0.0,0.0,0.0,0.0,0.0,0.0,0.0,0.0,0.0,0.0,0.0,0.0,0.0,0.0,0.0,0.0,0.0,0.0,0.0,0.0,0.0,0.0,0.0,0.0,0.0,0.0,0.0,0.0,0.0,0.0,0.0,0.0,0.0,0.0,0.0,0.0,0.0,0.0,0.0,0.0,0.0,0.0,0.0,0.0,0.0,0.0,0.0,-2.1196,0.0,0.0,0.0,0.0,0.0,0.0,0.0,0.0,0.0,0.0,0.0,0.0,0.0,0.0,0.0,0.0,0.0,0.0,0.0,0.0,0.0,0.0,0.0,0.0,0.0,0.0,0.0,0.0,0.0,0.0,0.0,0.0,0.0,0.0,0.0,0.0,0.0,0.0,0.0,0.0,0.0,0.0,0.0,0.0,0.0,0.0,0.0,0.0,0.0,0.0,0.0,0.0,0.0,0.0,0.0,0.0,0.0,0.0,0.0,0.0,0.0,0.0,0.0,0.0,0.0,0.0,0.0,0.0,0.0,0.0,0.0,0.0,0.0,0.0,0.0,0.0,0.0,0.0,0.0,0.0,0.0,0.0,0.0,0.0,0.0,0.0,0.0,0.0,0.0,0.0,0.0,0.0,0.0,0.0,0.0,0.0,0.0,0.0,0.0,0.0,0.0,0.0,0.0,0.0,0.0,0.0,0.0,0.0,0.0,0.0,-2.2799,-2.1358,-2.2021,-2.2054,-2.1342,0.0,0.0,0.0,0.0,0.0,0.0,0.0,0.0,0.0,0.0,0.0,0.0,0.0,0.0,0.0,0.0,0.0,0.0,0.0,0.0,0.0,0.0,0.0,0.0,0.0,0.0,0.0,0.0,0.0,0.0,0.0,0.0,0.0,0.0,0.0,0.0,0.0,0.0,0.0,0.0,0.0,0.0,0.0,0.0,0.0,0.0,0.0,0.0,0.0,0.0,0.0,0.0,0.0,0.0,0.0,0.0,0.0,0.0,0.0,0.0,0.0,0.0,0.0,0.0,0.0,0.0,0.0,0.0,0.0,0.0,0.0,0.0,0.0,0.0,0.0,0.0,0.0,0.0,0.0,0.0,0.0,0.0,0.0,0.0,0.0,0.0,0.0,0.0,0.0,0.0,0.0,0.0,0.0,0.0,0.0,0.0,0.0,0.0,0.0,0.0,0.0,0.0,0.0,0.0,0.0,0.0,0.0,0.0,0.0,0.0,0.0,0.0,-2.2264,-2.2297,-2.1584,0.0,0.0,0.0,0.0,0.0,0.0,0.0,0.0,0.0,0.0,0.0,0.0,0.0,0.0,0.0,0.0,0.0,0.0,0.0,0.0,0.0,0.0,0.0,0.0,0.0,0.0,0.0,0.0,0.0,0.0,0.0,0.0,0.0,0.0,0.0,0.0,0.0,0.0,0.0,0.0,0.0,0.0,0.0,0.0,0.0,0.0,0.0,0.0,0.0,0.0,0.0,0.0,0.0,0.0,0.0,0.0,0.0,0.0,0.0,0.0,0.0,0.0,0.0,0.0,0.0,0.0,0.0,0.0,0.0,0.0,0.0,0.0,0.0,0.0,0.0,0.0,0.0,0.0,0.0,0.0,0.0,0.0,0.0,0.0,0.0,0.0,0.0,0.0,0.0,0.0,0.0,0.0,0.0,0.0,0.0,0.0,0.0,0.0,0.0,0.0,0.0,0.0,0.0,0.0,0.0,0.0,0.0,0.0,0.0,0.0,-2.2426,-2.2313,-2.2993,0.0,-2.2361,0.0,0.0,0.0,0.0,0.0,0.0,0.0,0.0,0.0,0.0,0.0,0.0,0.0,0.0,0.0,0.0,0.0,0.0,0.0,0.0,0.0,0.0,0.0,0.0,0.0,0.0,0.0,0.0,0.0,0.0,0.0,0.0,0.0,0.0,0.0,0.0,0.0,0.0,0.0,0.0,0.0,0.0,0.0,0.0,0.0,0.0,0.0,0.0,0.0,0.0,0.0,0.0,0.0,0.0,0.0,0.0,0.0,0.0,0.0,0.0,0.0,0.0,0.0,0.0,0.0,0.0,0.0,0.0,0.0,0.0,0.0,0.0,0.0,0.0,0.0,0.0,0.0,0.0,0.0,0.0,0.0,0.0,0.0,0.0,0.0,0.0,0.0,0.0,0.0,0.0,0.0,0.0,0.0,0.0,0.0,0.0,0.0,0.0,0.0,0.0,0.0,0.0,0.0,0.0,0.0,0.0,0.0,0.0,0.0,0.0,-2.2848,-2.241,-2.2231,-2.2116,0.0,0.0,0.0,0.0,0.0,0.0,0.0,0.0,0.0,0.0,0.0,0.0,0.0,0.0,0.0,0.0,0.0,0.0,0.0,0.0,0.0,0.0,0.0,0.0,0.0,0.0,0.0,0.0,0.0,0.0,0.0,0.0,0.0,0.0,0.0,0.0,0.0,0.0,0.0,0.0,0.0,0.0,0.0,0.0,0.0,0.0,0.0,0.0,0.0,0.0,0.0,0.0,0.0,0.0,0.0,0.0,0.0,0.0,0.0,0.0,0.0,0.0,0.0,0.0,0.0,0.0,0.0,0.0,0.0,0.0,0.0,0.0,0.0,0.0,0.0,0.0,0.0,0.0,0.0,0.0,0.0,0.0,0.0,0.0,0.0,0.0,0.0,0.0,0.0,0.0,0.0,0.0,0.0,0.0,0.0,0.0,0.0,0.0,0.0,0.0,0.0,0.0,0.0,0.0,0.0,0.0,0.0,0.0,0.0,0.0,-2.2767,0.0,-2.2636,-2.2085,-2.1824,-2.189,0.0,0.0,0.0,0.0,0.0,0.0,0.0,0.0,0.0,0.0,0.0,0.0,0.0,0.0,0.0,0.0,0.0,0.0,0.0,0.0,0.0,0.0,0.0,0.0,0.0,0.0,0.0,0.0,0.0,0.0,0.0,0.0,0.0,0.0,0.0,0.0,0.0,0.0,0.0,0.0,0.0,0.0,0.0,0.0,0.0,0.0,0.0,0.0,0.0,0.0,0.0,0.0,0.0,0.0,0.0,0.0,0.0,0.0,0.0,0.0,0.0,0.0,0.0,0.0,0.0,0.0,0.0,0.0,0.0,0.0,0.0,0.0,0.0,0.0,0.0,0.0,0.0,0.0,0.0,0.0,0.0,0.0,0.0,0.0,0.0,0.0,0.0,0.0,0.0,0.0,0.0,0.0,0.0,0.0,0.0,0.0,0.0,0.0,0.0,0.0,0.0,0.0,0.0,0.0,0.0,0.0,0.0,0.0,0.0,-2.2783,-2.2716,-2.3227,-2.3228,-2.2853,0.0,0.0,0.0,0.0,0.0,0.0,0.0,0.0,0.0,0.0,0.0,0.0,0.0,0.0,0.0,0.0,0.0,0.0,0.0,0.0,0.0,0.0,0.0,0.0,0.0,0.0,0.0,0.0,0.0,0.0,0.0,0.0,0.0,0.0,0.0,0.0,0.0,0.0,0.0,0.0,0.0,0.0,0.0,0.0,0.0,0.0,0.0,0.0,0.0,0.0,0.0,0.0,0.0,0.0,0.0,0.0,0.0,0.0,0.0,0.0,0.0,0.0,0.0,0.0,0.0,0.0,0.0,0.0,0.0,0.0,0.0,0.0,0.0,0.0,0.0,0.0,0.0,0.0,0.0,0.0,0.0,0.0,0.0,0.0,0.0,0.0,0.0,0.0,0.0,0.0,0.0,0.0,0.0,0.0,0.0,0.0,0.0,0.0,0.0,0.0,0.0,0.0,0.0,0.0,0.0,0.0,0.0,0.0,0.0,-2.207,-2.2165,-2.2603,-2.3414,-2.2336,-2.1922,0.0,0.0,0.0,0.0,0.0,0.0,0.0,0.0,0.0,0.0,0.0,0.0,0.0,0.0,0.0,0.0,0.0,0.0,0.0,0.0,0.0,0.0,0.0,0.0,0.0,0.0,0.0,0.0,0.0,0.0,0.0,0.0,0.0,0.0,0.0,0.0,0.0,0.0,0.0,0.0,0.0,0.0,0.0,0.0,0.0,0.0,0.0,0.0,0.0,0.0,0.0,0.0,0.0,0.0,0.0,0.0,0.0,0.0,0.0,0.0,0.0,0.0,0.0,0.0,0.0,0.0,0.0,0.0,0.0,0.0,0.0,0.0,0.0,0.0,0.0,0.0,0.0,0.0,0.0,0.0,0.0,0.0,0.0,0.0,0.0,0.0,0.0,0.0,0.0,0.0,0.0,0.0,0.0,0.0,0.0,0.0,0.0,0.0,0.0,0.0,0.0,0.0,0.0,0.0,0.0,0.0,0.0,0.0,0.0,-2.1553,0.0,-2.279,0.0,-2.1967,-2.148,0.0,0.0,0.0,0.0,0.0,0.0,0.0,0.0,0.0,0.0,0.0,0.0,0.0,0.0,0.0,0.0,0.0,0.0,0.0,0.0,0.0,0.0,0.0,0.0,0.0,0.0,0.0,0.0,0.0,0.0,0.0,0.0,0.0,0.0,0.0,0.0,0.0,0.0,0.0,0.0,0.0,0.0,0.0,0.0,0.0,0.0,0.0,0.0,0.0,0.0,0.0,0.0,0.0,0.0,0.0,0.0,0.0,0.0,0.0,0.0,0.0,0.0,0.0,0.0,0.0,0.0,0.0,0.0,0.0,0.0,0.0,0.0,0.0,0.0,0.0,0.0,0.0,0.0,0.0,0.0,0.0,0.0,0.0,0.0,0.0,0.0,0.0,0.0,0.0,0.0,0.0,0.0,0.0,0.0,0.0,0.0,0.0,0.0,0.0,0.0,0.0,0.0,0.0,0.0,0.0,0.0,0.0,0.0,-2.0893,-2.2062,-2.3222,-2.3172,-2.181,-2.2326,-2.1694,0.0,0.0,0.0,0.0,0.0,0.0,0.0,0.0,0.0,0.0,0.0,0.0,0.0,0.0,0.0,0.0,0.0,0.0,0.0,0.0,0.0,0.0,0.0,0.0,0.0,0.0,0.0,0.0,0.0,0.0,0.0,0.0,0.0,0.0,0.0,0.0,0.0,0.0,0.0,0.0,0.0,0.0,0.0,0.0,0.0,0.0,0.0,0.0,0.0,0.0,0.0,0.0,0.0,0.0,0.0,0.0,0.0,0.0,0.0,0.0,0.0,0.0,0.0,0.0,0.0,0.0,0.0,0.0,0.0,0.0,0.0,0.0,0.0,0.0,0.0,0.0,0.0,0.0,0.0,0.0,0.0,0.0,0.0,0.0,0.0,0.0,0.0,0.0,0.0,0.0,0.0,0.0,0.0,0.0,0.0,0.0,0.0,0.0,0.0,0.0,0.0,0.0,0.0,0.0,0.0,0.0,0.0,0.0,0.0,-2.1696,-2.2554,-2.316,-2.3425,-2.2384,-2.1991,0.0,0.0,0.0,0.0,0.0,0.0,0.0,0.0,0.0,0.0,0.0,0.0,0.0,0.0,0.0,0.0,0.0,0.0,0.0,0.0,0.0,0.0,0.0,0.0,0.0,0.0,0.0,0.0,0.0,0.0,0.0,0.0,0.0,0.0,0.0,0.0,0.0,0.0,0.0,0.0,0.0,0.0,0.0,0.0,0.0,0.0,0.0,0.0,0.0,0.0,0.0,0.0,0.0,0.0,0.0,0.0,0.0,0.0,0.0,0.0,0.0,0.0,0.0,0.0,0.0,0.0,0.0,0.0,0.0,0.0,0.0,0.0,0.0,0.0,0.0,0.0,0.0,0.0,0.0,0.0,0.0,0.0,0.0,0.0,0.0,0.0,0.0,0.0,0.0,0.0,0.0,0.0,0.0,0.0,0.0,0.0,0.0,0.0,0.0,0.0,0.0,0.0,0.0,0.0,0.0,0.0,0.0,0.0,0.0,-2.2158,-2.2833,-2.3295,-2.3489,-2.2456,-2.1949,-2.2101,0.0,0.0,0.0,0.0,0.0,0.0,0.0,0.0,0.0,0.0,0.0,0.0,0.0,0.0,0.0,0.0,0.0,0.0,0.0,0.0,0.0,0.0,0.0,0.0,0.0,0.0,0.0,0.0,0.0,0.0,0.0,0.0,0.0,0.0,0.0,0.0,0.0,0.0,0.0,0.0,0.0,0.0,0.0,0.0,0.0,0.0,0.0,0.0,0.0,0.0,0.0,0.0,0.0,0.0,0.0,0.0,0.0,0.0,0.0,0.0,0.0,0.0,0.0,0.0,0.0,0.0,0.0,0.0,0.0,0.0,0.0,0.0,0.0,0.0,0.0,0.0,0.0,0.0,0.0,0.0,0.0,0.0,0.0,0.0,0.0,0.0,0.0,0.0,0.0,0.0,0.0,0.0,0.0,0.0,0.0,0.0,0.0,0.0,0.0,0.0,0.0,0.0,0.0,0.0,0.0,0.0,0.0,0.0,-2.3275,-2.3906,-2.3656,-2.2489,-2.2593,-2.1814,0.0,0.0,0.0,0.0,0.0,0.0,0.0,0.0,0.0,0.0,0.0,0.0,0.0,0.0,0.0,0.0,0.0,0.0,0.0,0.0,0.0,0.0,0.0,0.0,0.0,0.0,0.0,0.0,0.0,0.0,0.0,0.0,0.0,0.0,0.0,0.0,0.0,0.0,0.0,0.0,0.0,0.0,0.0,0.0,0.0,0.0,0.0,0.0,0.0,0.0,0.0,0.0,0.0,0.0,0.0,0.0,0.0,0.0,0.0,0.0,0.0,0.0,0.0,0.0,0.0,0.0,0.0,0.0,0.0,0.0,0.0,0.0,0.0,0.0,0.0,0.0,0.0,0.0,0.0,0.0,0.0,0.0,0.0,0.0,0.0,0.0,0.0,0.0,0.0,0.0,0.0,0.0,0.0,0.0,0.0,0.0,0.0,0.0,0.0,0.0,0.0,0.0,0.0,0.0,0.0,0.0,0.0,0.0,0.0,-2.4101,-2.458,-2.4671,-2.4393,-2.3068,-2.2209,0.0,0.0,0.0,0.0,0.0,0.0,0.0,0.0,0.0,0.0,0.0,0.0,0.0,0.0,0.0,0.0,0.0,0.0,0.0,0.0,0.0,0.0,0.0,0.0,0.0,0.0,0.0,0.0,0.0,0.0,0.0,0.0,0.0,0.0,0.0,0.0,0.0,0.0,0.0,0.0,0.0,0.0,0.0,0.0,0.0,0.0,0.0,0.0,0.0,0.0,0.0,0.0,0.0,0.0,0.0,0.0,0.0,0.0,0.0,0.0,0.0,0.0,0.0,0.0,0.0,0.0,0.0,0.0,0.0,0.0,0.0,0.0,0.0,0.0,0.0,0.0,0.0,0.0,0.0,0.0,0.0,0.0,0.0,0.0,0.0,0.0,0.0,0.0,0.0,0.0,0.0,0.0,0.0,0.0,0.0,0.0,0.0,0.0,0.0,0.0,0.0,0.0,0.0,0.0,0.0,0.0,0.0,0.0,-2.3125,-2.5055,-2.5537,-2.567,-2.5506,-2.3983,-2.2878,0.0,0.0,0.0,0.0,0.0,0.0,0.0,0.0,0.0,0.0,0.0,0.0,0.0,0.0,0.0,0.0,0.0,0.0,0.0,0.0,0.0,0.0,0.0,0.0,0.0,0.0,0.0,0.0,0.0,0.0,0.0,0.0,0.0,0.0,0.0,0.0,0.0,0.0,0.0,0.0,0.0,0.0,0.0,0.0,0.0,0.0,0.0,0.0,0.0,0.0,0.0,0.0,0.0,0.0,0.0,0.0,0.0,0.0,0.0,0.0,0.0,0.0,0.0,0.0,0.0,0.0,0.0,0.0,0.0,0.0,0.0,0.0,0.0,0.0,0.0,0.0,0.0,0.0,0.0,0.0,0.0,0.0,0.0,0.0,0.0,0.0,0.0,0.0,0.0,0.0,0.0,0.0,0.0,0.0,0.0,0.0,0.0,0.0,0.0,0.0,0.0,0.0,0.0,0.0,0.0,0.0,0.0,0.0,-2.393,-2.5921,-2.6582,-2.6652,-2.6103,-2.504,-2.3617,0.0,0.0,0.0,0.0,0.0,0.0,0.0,0.0,0.0,0.0,0.0,0.0,0.0,0.0,0.0,0.0,0.0,0.0,0.0,0.0,0.0,0.0,0.0,0.0,0.0,0.0,0.0,0.0,0.0,0.0,0.0,0.0,0.0,0.0,0.0,0.0,0.0,0.0,0.0,0.0,0.0,0.0,0.0,0.0,0.0,0.0,0.0,0.0,0.0,0.0,0.0,0.0,0.0,0.0,0.0,0.0,0.0,0.0,0.0,0.0,0.0,0.0,0.0,0.0,0.0,0.0,0.0,0.0,0.0,0.0,0.0,0.0,0.0,0.0,0.0,0.0,0.0,0.0,0.0,0.0,0.0,0.0,0.0,0.0,0.0,0.0,0.0,0.0,0.0,0.0,0.0,0.0,0.0,0.0,0.0,0.0,0.0,0.0,0.0,0.0,0.0,0.0,0.0,0.0,0.0,0.0,0.0,0.0,-2.4732,-2.6554,-2.7242,-2.7538,-2.7397,-2.5299,-2.3613,0.0,0.0,0.0,0.0,0.0,0.0,0.0,0.0,0.0,0.0,0.0,0.0,0.0,0.0,0.0,0.0,0.0,0.0,0.0,0.0,0.0,0.0,0.0,0.0,0.0,0.0,0.0,0.0,0.0,0.0,0.0,0.0,0.0,0.0,0.0,0.0,0.0,0.0,0.0,0.0,0.0,0.0,0.0,0.0,0.0,0.0,0.0,0.0,-1.8583,0.0,0.0,0.0,0.0,0.0,0.0,0.0,0.0,0.0,0.0,0.0,0.0,0.0,0.0,0.0,0.0,0.0,0.0,0.0,0.0,0.0,0.0,0.0,0.0,0.0,0.0,0.0,0.0,0.0,0.0,0.0,0.0,0.0,0.0,0.0,0.0,0.0,0.0,0.0,0.0,0.0,0.0,0.0,0.0,0.0,0.0,0.0,0.0,0.0,0.0,0.0,0.0,0.0,0.0,0.0,0.0,0.0,0.0,0.0,-2.5119,-2.72,-2.7888,-2.8101,-2.7763,-2.623,-2.4566,0.0,0.0,0.0,0.0,0.0,0.0,0.0,0.0,0.0,0.0,0.0,0.0,0.0,0.0,0.0,0.0,0.0,0.0,0.0,0.0,0.0,0.0,0.0,0.0,0.0,0.0,0.0,0.0,0.0,0.0,0.0,0.0,0.0,0.0,0.0,0.0,0.0,0.0,0.0,0.0,0.0,0.0,0.0,0.0,0.0,0.0,0.0,0.0,0.0,0.0,0.0,0.0,0.0,0.0,0.0,0.0,0.0,0.0,0.0,0.0,0.0,0.0,0.0,0.0,0.0,0.0,0.0,0.0,0.0,0.0,0.0,0.0,0.0,0.0,0.0,0.0,0.0,0.0,0.0,0.0,0.0,0.0,0.0,0.0,0.0,0.0,0.0,0.0,0.0,0.0,0.0,0.0,0.0,0.0,0.0,0.0,0.0,0.0,0.0,0.0,0.0,0.0,0.0,0.0,0.0,0.0,0.0,-2.3431,-2.5442,-2.7847,-2.8521,-2.8507,-2.7833,-2.7242,-2.5781,-2.335,0.0,0.0,0.0,0.0,0.0,0.0,0.0,0.0,0.0,0.0,0.0,0.0,0.0,0.0,0.0,0.0,0.0,0.0,0.0,0.0,0.0,0.0,0.0,0.0,0.0,0.0,0.0,0.0,0.0,0.0,0.0,0.0,0.0,0.0,0.0,0.0,0.0,0.0,-1.792,-1.9102,0.0,0.0,0.0,0.0,0.0,0.0,0.0,0.0,-1.8033,0.0,0.0,0.0,0.0,0.0,0.0,0.0,0.0,0.0,0.0,0.0,0.0,0.0,0.0,0.0,0.0,0.0,0.0,0.0,0.0,0.0,0.0,0.0,0.0,0.0,0.0,0.0,0.0,0.0,0.0,0.0,0.0,0.0,0.0,0.0,0.0,0.0,0.0,0.0,0.0,0.0,0.0,0.0,0.0,0.0,0.0,0.0,0.0,0.0,0.0,0.0,0.0,0.0,0.0,0.0,0.0,-2.4317,-2.4711,-2.6061,-2.8478,-2.9139,-2.8914,-2.7862,-2.7707,-2.6483,-2.4036,0.0,0.0,0.0,0.0,0.0,0.0,0.0,0.0,0.0,0.0,0.0,0.0,0.0,0.0,0.0,0.0,0.0,0.0,0.0,0.0,0.0,0.0,0.0,0.0,0.0,0.0,0.0,0.0,0.0,0.0,0.0,0.0,0.0,0.0,0.0,0.0,0.0,0.0,0.0,-2.0539,-2.086,0.0,0.0,0.0,0.0,0.0,0.0,0.0,0.0,-1.7631,0.0,0.0,0.0,0.0,0.0,0.0,0.0,0.0,0.0,0.0,0.0,0.0,0.0,0.0,0.0,0.0,0.0,0.0,0.0,0.0,0.0,0.0,0.0,0.0,0.0,0.0,0.0,0.0,0.0,0.0,0.0,0.0,0.0,0.0,0.0,0.0,0.0,0.0,0.0,0.0,0.0,0.0,0.0,0.0,0.0,0.0,0.0,0.0,0.0,0.0,0.0,0.0,0.0,0.0,0.0,-2.3884,-2.5275,-2.6835,-2.8633,-2.9279,-2.9012,-2.7847,-2.7482,-2.6286,0.0,0.0,0.0,0.0,0.0,0.0,0.0,0.0,0.0,0.0,0.0,0.0,0.0,0.0,0.0,0.0,0.0,0.0,0.0,0.0,0.0,0.0,0.0,0.0,0.0,0.0,0.0,0.0,0.0,0.0,0.0,0.0,0.0,0.0,0.0,0.0,0.0,0.0,0.0,0.0,-2.0502,-2.08,-2.0569,0.0,0.0,0.0,0.0,0.0,0.0,-1.7873,-1.7434,0.0,0.0,0.0,0.0,0.0,0.0,0.0,0.0,0.0,0.0,0.0,0.0,0.0,0.0,0.0,0.0,0.0,0.0,0.0,0.0,0.0,0.0,0.0,0.0,0.0,0.0,0.0,0.0,0.0,0.0,0.0,0.0,0.0,0.0,0.0,0.0,0.0,0.0,0.0,0.0,0.0,0.0,0.0,0.0,0.0,0.0,0.0,0.0,0.0,0.0,0.0,0.0,0.0,0.0,0.0,-2.3266,-2.5486,-2.7369,-2.8816,-2.9223,-2.89,-2.7847,-2.7144,-2.5879,0.0,0.0,0.0,0.0,0.0,0.0,0.0,0.0,0.0,0.0,0.0,0.0,0.0,0.0,0.0,0.0,0.0,0.0,0.0,0.0,0.0,0.0,0.0,0.0,0.0,0.0,0.0,0.0,0.0,0.0,0.0,0.0,0.0,0.0,0.0,0.0,0.0,0.0,0.0,0.0,0.0,-2.0871,-2.047,-1.9432,0.0,0.0,0.0,0.0,-1.8542,-1.8422,0.0,0.0,0.0,0.0,0.0,0.0,0.0,0.0,0.0,0.0,0.0,0.0,0.0,0.0,0.0,0.0,0.0,0.0,0.0,0.0,0.0,0.0,0.0,0.0,0.0,0.0,0.0,0.0,0.0,0.0,0.0,0.0,0.0,0.0,0.0,0.0,0.0,0.0,0.0,0.0,0.0,0.0,0.0,0.0,0.0,0.0,0.0,0.0,0.0,0.0,0.0,0.0,0.0,0.0,0.0,0.0,-2.3895,-2.5303,-2.713,-2.935,-2.904,-2.8464,-2.7819,-2.7144,-2.5669,0.0,0.0,0.0,0.0,0.0,0.0,0.0,0.0,0.0,0.0,0.0,0.0,0.0,0.0,0.0,0.0,0.0,0.0,0.0,0.0,0.0,0.0,0.0,0.0,0.0,0.0,0.0,0.0,0.0,0.0,0.0,0.0,0.0,0.0,0.0,0.0,0.0,0.0,0.0,0.0,0.0,-2.2037,-2.0157,-2.0141,-2.0165,0.0,0.0,-1.9624,-2.0237,-2.0682,0.0,0.0,0.0,0.0,0.0,0.0,0.0,0.0,0.0,0.0,0.0,0.0,0.0,0.0,0.0,0.0,0.0,0.0,0.0,0.0,0.0,0.0,0.0,0.0,0.0,0.0,0.0,0.0,0.0,0.0,0.0,0.0,0.0,0.0,0.0,0.0,0.0,0.0,0.0,0.0,0.0,0.0,0.0,0.0,0.0,0.0,0.0,0.0,0.0,0.0,0.0,0.0,0.0,0.0,0.0,-2.1448,-2.3447,-2.5032,-2.6539,-2.7868,-2.7692,-2.7111,-2.6234,-2.5273,-2.4055,0.0,0.0,0.0,0.0,0.0,0.0,0.0,0.0,0.0,0.0,0.0,0.0,0.0,0.0,0.0,0.0,0.0,0.0,0.0,0.0,0.0,0.0,0.0,0.0,0.0,0.0,0.0,0.0,0.0,0.0,0.0,0.0,0.0,0.0,0.0,0.0,0.0,0.0,0.0,0.0,0.0,0.0,-2.1662,-2.1578,0.0,0.0,0.0,-2.1223,-2.1476,0.0,0.0,0.0,0.0,0.0,0.0,0.0,0.0,0.0,0.0,0.0,0.0,0.0,0.0,0.0,0.0,0.0,0.0,0.0,0.0,0.0,0.0,0.0,0.0,0.0,0.0,0.0,0.0,0.0,0.0,0.0,0.0,0.0,0.0,0.0,0.0,0.0,0.0,0.0,0.0,0.0,0.0,0.0,0.0,0.0,0.0,0.0,0.0,0.0,0.0,0.0,0.0,0.0,0.0,0.0,0.0,0.0,-2.2831,-2.4774,-2.6109,-2.6692,-2.6542,-2.5992,-2.4996,-2.3843,0.0,0.0,0.0,0.0,0.0,0.0,0.0,0.0,0.0,0.0,0.0,0.0,0.0,0.0,0.0,0.0,0.0,0.0,0.0,0.0,0.0,0.0,0.0,0.0,0.0,0.0,0.0,-1.3628,0.0,0.0,0.0,0.0,0.0,0.0,0.0,0.0,0.0,0.0,0.0,0.0,0.0,0.0,-2.163,-2.198,-2.2019,-2.216,0.0,0.0,-2.1975,-2.2019,-2.2242,-2.178,0.0,0.0,0.0,0.0,0.0,0.0,0.0,0.0,0.0,0.0,0.0,0.0,0.0,0.0,0.0,0.0,0.0,0.0,0.0,0.0,0.0,0.0,0.0,0.0,0.0,0.0,0.0,0.0,0.0,0.0,0.0,0.0,0.0,0.0,0.0,0.0,0.0,0.0,0.0,0.0,0.0,0.0,0.0,0.0,0.0,0.0,0.0,0.0,0.0,0.0,0.0,0.0,0.0,0.0,0.0,-2.2402,-2.4626,-2.6078,-2.6647,-2.6162,-2.5598,-2.5013,-2.3843,-2.2563,0.0,0.0,0.0,0.0,0.0,0.0,0.0,0.0,0.0,0.0,0.0,0.0,0.0,0.0,0.0,0.0,0.0,0.0,0.0,0.0,0.0,0.0,0.0,0.0,0.0,0.0,0.0,0.0,0.0,0.0,0.0,0.0,0.0,0.0,0.0,0.0,0.0,0.0,0.0,0.0,0.0,-2.1177,-1.9583,-2.0565,-2.1474,0.0,0.0,-2.1463,-2.1463,-2.2314,-2.2149,-1.9814,0.0,0.0,0.0,0.0,0.0,0.0,0.0,0.0,0.0,0.0,0.0,0.0,0.0,0.0,0.0,0.0,0.0,0.0,0.0,0.0,0.0,0.0,0.0,0.0,0.0,0.0,0.0,0.0,0.0,0.0,0.0,0.0,0.0,0.0,0.0,0.0,0.0,0.0,0.0,0.0,0.0,0.0,0.0,0.0,0.0,0.0,0.0,0.0,0.0,0.0,0.0,0.0,0.0,-2.0758,-2.1665,-2.3591,-2.4526,-2.4446,-2.4514,-2.4165,-2.3281,-2.2197,-2.129,0.0,0.0,0.0,0.0,0.0,0.0,0.0,0.0,0.0,0.0,0.0,0.0,0.0,0.0,0.0,0.0,0.0,0.0,0.0,0.0,0.0,0.0,0.0,0.0,0.0,0.0,0.0,0.0,-1.5682,-1.5984,-1.5994,0.0,0.0,0.0,0.0,0.0,0.0,0.0,0.0,0.0,0.0,-2.1127,-2.1355,-2.1861,0.0,0.0,-2.2535,-2.2375,-2.2375,-2.2287,-2.1667,-2.0079,-1.911,0.0,0.0,0.0,0.0,0.0,0.0,0.0,0.0,0.0,0.0,0.0,0.0,0.0,0.0,0.0,0.0,0.0,0.0,0.0,0.0,0.0,0.0,0.0,0.0,0.0,0.0,0.0,0.0,0.0,0.0,0.0,0.0,0.0,0.0,0.0,0.0,0.0,0.0,0.0,0.0,0.0,0.0,0.0,0.0,0.0,0.0,0.0,0.0,0.0,0.0,0.0,0.0,-2.0225,-2.1321,-2.2953,-2.3625,-2.3264,-2.3613,-2.33,-2.2252,-2.132,-2.0685,0.0,0.0,0.0,0.0,0.0,0.0,0.0,0.0,0.0,0.0,0.0,0.0,0.0,0.0,0.0,0.0,0.0,0.0,0.0,0.0,0.0,0.0,0.0,0.0,0.0,0.0,0.0,0.0,-1.6371,-1.6326,-1.6172,0.0,0.0,0.0,0.0,0.0,0.0,0.0,0.0,0.0,0.0,-2.096,-2.1813,-2.2155,-2.2408,-2.2685,-2.2342,-2.2073,-2.2073,-2.1558,-2.0842,-1.9919,0.0,0.0,0.0,0.0,0.0,0.0,0.0,0.0,0.0,0.0,0.0,0.0,0.0,0.0,0.0,0.0,0.0,0.0,0.0,0.0,0.0,0.0,0.0,0.0,0.0,0.0,0.0,-1.8809,0.0,0.0,-1.7191,0.0,0.0,0.0,0.0,0.0,0.0,0.0,0.0,0.0,0.0,0.0,0.0,0.0,0.0,0.0,0.0,0.0,0.0,0.0,0.0,0.0,0.0,-2.0261,-2.1398,-2.2987,-2.3794,-2.377,-2.3794,-2.33,-2.2246,-2.1668,-2.1061,-2.0313,0.0,0.0,0.0,0.0,0.0,0.0,0.0,0.0,0.0,0.0,0.0,0.0,0.0,0.0,0.0,0.0,0.0,0.0,0.0,0.0,0.0,0.0,0.0,0.0,0.0,0.0,-1.7243,-1.649,-1.5717,0.0,0.0,0.0,0.0,0.0,0.0,0.0,0.0,0.0,0.0,-1.9414,-2.0592,-2.0112,-2.0713,-2.1203,-2.081,-2.0321,-2.0026,-2.0084,-1.9977,-1.972,0.0,0.0,0.0,0.0,0.0,0.0,0.0,0.0,0.0,0.0,0.0,0.0,0.0,0.0,0.0,0.0,0.0,0.0,0.0,0.0,0.0,0.0,0.0,0.0,0.0,0.0,0.0,-1.9648,-1.8944,0.0,0.0,0.0,0.0,0.0,0.0,0.0,0.0,0.0,0.0,0.0,-2.0748,-2.076,0.0,0.0,0.0,0.0,0.0,0.0,0.0,0.0,0.0,0.0,0.0,0.0,-1.9946,-2.1392,-2.2999,-2.3806,-2.3806,-2.3806,-2.3469,-2.2739,-2.1861,-2.0776,-1.9461,0.0,0.0,0.0,0.0,0.0,0.0,0.0,0.0,0.0,0.0,0.0,0.0,0.0,0.0,0.0,0.0,0.0,0.0,0.0,0.0,0.0,0.0,0.0,0.0,0.0,-1.6205,0.0,0.0,0.0,0.0,0.0,0.0,0.0,0.0,0.0,0.0,0.0,-1.8309,-1.9162,-2.0072,-2.0779,-2.1182,-2.1484,-2.1709,0.0,0.0,0.0,0.0,0.0,0.0,0.0,0.0,0.0,0.0,0.0,0.0,0.0,0.0,-1.9524,-1.7558,-1.6671,-1.632,-1.6504,0.0,0.0,0.0,0.0,0.0,0.0,0.0,0.0,0.0,0.0,0.0,0.0,0.0,0.0,-2.0418,0.0,-1.9543,0.0,0.0,0.0,0.0,0.0,0.0,0.0,0.0,-2.049,-2.1272,-2.1945,-2.1957,-2.168,0.0,-2.0971,-1.9793,0.0,0.0,0.0,0.0,0.0,0.0,0.0,0.0,-2.0069,-2.1656,-2.3095,-2.389,-2.4013,-2.389,-2.3541,-2.3011,-2.1957,-2.073,-1.9338,-1.8277,-1.7388,0.0,0.0,0.0,0.0,0.0,0.0,0.0,0.0,0.0,0.0,0.0,0.0,0.0,0.0,0.0,0.0,0.0,0.0,0.0,0.0,0.0,0.0,0.0,-1.6067,0.0,0.0,0.0,0.0,0.0,0.0,0.0,0.0,0.0,-1.6955,-1.7882,-1.8907,-1.9948,-2.064,-2.128,-2.1807,0.0,0.0,0.0,0.0,0.0,0.0,0.0,-1.9543,-1.9707,-1.9531,-1.9346,-1.9307,-2.0254,-2.0967,-2.0654,0.0,0.0,-1.8747,-1.8064,-1.7827,-1.7827,-1.8155,-1.8241,-1.7703,-1.8139,-1.8536,0.0,0.0,0.0,0.0,0.0,0.0,0.0,0.0,-2.123,-2.1308,0.0,-2.0519,0.0,0.0,0.0,0.0,0.0,-2.0316,0.0,0.0,-2.2164,-2.2939,-2.2963,-2.2931,-2.2667,-2.2243,-2.2643,-2.1793,-1.9769,-1.8752,0.0,0.0,0.0,0.0,0.0,0.0,-2.0639,-2.2197,-2.3268,-2.4071,-2.4506,-2.4061,-2.3577,-2.3023,-2.1957,-2.0911,-1.9916,-1.9772,-1.8806,-1.6823,-1.6655,0.0,0.0,0.0,0.0,0.0,0.0,0.0,0.0,0.0,0.0,0.0,0.0,0.0,0.0,0.0,0.0,0.0,0.0,0.0,0.0,-1.6245,0.0,0.0,0.0,0.0,0.0,0.0,0.0,0.0,0.0,0.0,-1.7012,-1.8357,-1.9482,-1.9912,0.0,0.0,0.0,0.0,-2.2373,-2.2002,-2.1562,-2.1249,-2.1249,-2.12,-2.1025,-2.0713,0.0,0.0,-2.083,-2.1398,-2.166,-2.086,-2.1406,-2.1841,-2.1524,-2.0545,-1.9913,-1.9904,-1.9562,-1.9249,-1.9133,-1.942,-1.9669,-2.2842,0.0,0.0,0.0,0.0,-2.2238,-2.2934,-2.4048,-2.3711,-2.3028,-2.2022,-2.1263,0.0,0.0,0.0,0.0,0.0,0.0,-2.0352,-2.0618,-2.1453,-2.2069,-2.2418,-2.244,-2.2362,-2.2192,-2.198,-2.1185,-1.9903,-1.9571,-1.8954,-1.7988,0.0,0.0,0.0,0.0,-2.1536,-2.2727,-2.3773,-2.4554,-2.5071,-2.4578,-2.3881,-2.3035,-2.1957,-2.126,-2.0935,-1.9829,-1.9119,-1.8867,-1.7796,0.0,0.0,0.0,0.0,0.0,0.0,0.0,0.0,0.0,0.0,0.0,0.0,0.0,0.0,0.0,0.0,0.0,0.0,0.0,-1.5184,-1.5273,-1.5252,0.0,0.0,0.0,0.0,0.0,0.0,0.0,0.0,0.0,-1.8937,-1.972,-2.0361,0.0,0.0,-2.1936,-2.1936,-2.2246,-2.2578,-2.2711,-2.2422,0.0,-2.2107,-2.16,-2.1259,-2.1475,-2.1973,-2.2344,-2.235,-2.2565,-2.2695,-2.2432,-2.2489,-2.2534,-2.239,-2.1671,-2.1094,-2.1046,-2.0828,-2.0661,-2.0736,-2.1066,-2.1386,-2.3277,-2.1463,-2.1105,-2.1726,-2.293,-2.2941,-2.3582,-2.4556,-2.4377,-2.3862,-2.314,-2.2501,-2.1555,-2.0396,-2.0008,0.0,0.0,0.0,-2.1239,-2.1728,-2.1897,-2.2299,-2.2944,-2.2829,-2.2633,-2.2437,-2.2118,-2.1452,-2.0486,-2.0496,-2.0058,-1.9183,0.0,0.0,-1.886,-2.0153,-2.1247,-2.2089,-2.3086,-2.3838,-2.4361,-2.3688,-2.2912,-2.2113,-2.1302,-2.0792,-2.0584,-1.9848,-1.9368,-1.9275,-1.8382,-1.7583,0.0,0.0,0.0,0.0,0.0,0.0,0.0,0.0,0.0,0.0,0.0,-1.5652,0.0,0.0,0.0,0.0,-1.5091,-1.5223,-1.5356,-1.5466,0.0,0.0,0.0,0.0,0.0,0.0,0.0,-1.835,-1.9153,-1.9884,-2.0605,-2.1064,-2.1435,-2.1668,-2.1973,-2.2197,-2.2363,0.0,-2.3047,-2.3081,-2.3023,-2.2959,-2.274,-2.2282,-2.2048,-2.2334,-2.2598,-2.2789,-2.3033,-2.3101,-2.3149,-2.3305,-2.3266,-2.3235,-2.3265,-2.2782,-2.2193,-2.1821,-2.1749,-2.1774,-2.1787,-2.2113,-2.2437,-2.3643,-2.3246,-2.295,-2.3116,-2.3565,-2.3597,-2.3867,-2.4252,-2.3813,-2.4061,-2.4708,-2.3817,-2.3348,-2.3208,-2.2269,0.0,-2.1859,-2.2414,-2.288,-2.3365,-2.2913,-2.316,-2.3906,-2.3587,-2.3155,-2.2654,-2.2665,-2.2192,-2.1352,-2.132,-2.1027,-2.0477,-1.9201,-1.8608,-1.8711,-1.9619,-2.0312,-2.0858,-2.1797,-2.251,-2.2962,-2.2051,-2.1306,-2.0804,-2.0369,-1.99,-1.941,-1.9791,-1.9595,-1.8687,-1.8514,-1.7864,-1.6586,0.0,0.0,0.0,0.0,0.0,0.0,0.0,0.0,0.0,0.0,0.0,0.0,0.0,0.0,0.0,-1.5292,0.0,-1.6105,-1.6523,0.0,0.0,0.0,-1.6882,-1.6941,-1.7983,-1.888,-1.9385,0.0,0.0,-2.1885,-2.2305,-2.2578,-2.2607,-2.2588,-2.2662,-2.3042,-2.3477,-2.3643,-2.3227,-2.3525,-2.3633,-2.3218,-2.3149,-2.312,-2.3033,-2.3149,-2.3208,-2.3198,-2.3237,-2.3383,-2.3769,-2.3848,-2.3845,-2.4013,-2.38,-2.3436,-2.2445,-2.2514,-2.2639,-2.241,-2.2667,-2.296,-2.4512,-2.4082,-2.4009,-2.4077,-2.4294,-2.4587,-2.4795,-2.4879,-2.4774,-2.4133,-2.3042,-2.2521,-2.19,-2.1307,-2.136,-2.138,-2.14,-2.188,-2.218,-2.2271,-2.217,-2.205,-2.193,-2.181,-2.168,-2.157,-2.157,-2.1318,-2.0797,-2.0815,-2.0386,-1.9645,-1.9279,-1.9455,-2.0127,-2.1116,-2.1707,-2.1863,-2.2488,-2.2874,-2.2973,-2.2379,-2.1808,-2.1317,-2.0815,-2.0347,-1.9922,-1.9649,-1.9563,-1.9693,-1.8637,-1.7897,-1.7566,-1.5797,0.0,0.0,0.0,0.0,0.0,0.0,0.0,0.0,0.0,-1.5316,-1.4264,0.0,-1.5117,0.0,-1.5968,-1.6434,-1.6562,-1.6963,0.0,0.0,-1.7896,-1.8412,-1.9082,-1.9397,-1.9912,-2.0644,-2.1328,-2.1885,-2.2314,-2.2682,-2.3071,-2.3428,-2.3193,-2.2994,-2.3101,-2.3506,-2.376,-2.3672,-2.374,-2.375,-2.3682,-2.3916,-2.3842,-2.3198,-2.3627,-2.4004,-2.3691,-2.3906,-2.415,-2.4248,-2.4268,-2.427,-2.4322,-2.4285,-2.4098,-2.3666,-2.3252,-2.2851,-2.2767,-2.3078,-2.3352,-2.5107,-2.4727,-2.4922,-2.4888,-2.4751,-2.4791,-2.4801,-2.4791,-2.4599,-2.3993,-2.3066,-2.2842,-2.2353,-2.1758,-2.2178,-2.2373,-2.2373,-2.2422,-2.2549,-2.2715,-2.2334,-2.2087,-2.2029,-2.1658,-2.1523,-2.1533,-2.1483,-2.1299,-2.0889,-2.1094,-2.081,-2.0166,-2.0166,-2.0297,-2.0597,-2.1011,-2.1193,-2.1193,-2.1678,-2.1907,-2.1924,-2.1272,-2.086,-2.0787,-2.0128,-1.9671,-1.9422,-1.9139,-1.8942,-1.8885,-1.8124,-1.749,-1.7124,-1.6014,-1.5114,0.0,0.0,0.0,0.0,0.0,0.0,0.0,0.0,0.0,0.0,0.0,-1.5293,-1.5947,-1.6755,-1.7451,-1.7842,-1.8428,-1.8932,-1.9167,-1.9707,-2.0157,-2.0478,-2.084,-2.122,-2.1707,-2.2178,-2.2529,-2.273,-2.3174,-2.3506,-2.376,-2.374,-2.3666,-2.375,-2.4082,-2.4297,-2.4111,-2.4238,-2.4287,-2.4111,-2.4258,-2.4222,-2.3777,-2.3681,-2.3614,-2.336,-2.3122,-2.3186,-2.3834,-2.3985,-2.4192,-2.4658,-2.4801,-2.4706,-2.4479,-2.4011,-2.361,-2.3406,-2.3682,-2.391,-2.5508,-2.5195,-2.5576,-2.5518,-2.5174,-2.4746,-2.4551,-2.4482,-2.4111,-2.3887,-2.3789,-2.3789,-2.3545,-2.312,-2.3535,-2.3711,-2.3682,-2.3266,-2.3305,-2.3652,-2.293,-2.2764,-2.2974,-2.2305,-2.1963,-2.1963,-2.1904,-2.168,-2.1298,-2.1699,-2.166,-2.122,-2.1249,-2.1123,-2.0772,-2.0293,-2.0059,-2.0,-2.041,-2.0615,-2.0595,-1.9871,-1.96,-1.9826,-1.9104,-1.8656,-1.8607,-1.8598,-1.8266,-1.7598,-1.7523,-1.7109,-1.6388,-1.6183,-1.5713,0.0,-1.5189,0.0,0.0,0.0,0.0,0.0,0.0,0.0,0.0,-1.5947,-1.6162,-1.696,-1.7793,-1.8584,-1.9421,-2.0214,-2.0693,-2.0713,-2.1445,-2.1816,-2.1444,-2.2068,-2.2598,-2.2588,-2.2867,-2.3101,-2.3179,-2.3564,-2.3799,-2.3994,-2.4277,-2.4492,-2.46,-2.4824,-2.4873,-2.4541,-2.4861,-2.4881,-2.4502,-2.4512,-2.457,-2.4324,-2.3879,-2.3119,-2.2988,-2.2313,-2.207,-2.3096,-2.3381,-2.3694,-2.4767,-2.4854,-2.4747,-2.4405,-2.4101,-2.396,-2.3973,-2.4161,-2.4372,-2.5645,-2.5615,-2.5654,-2.5645,-2.5547,-2.5479,-2.5283,-2.4941,-2.4863,-2.4443,-2.3799,-2.3789,-2.3555,-2.311,-2.3179,-2.3218,-2.3218,-2.313,-2.314,-2.3218,-2.3052,-2.2881,-2.2627,-2.2471,-2.2402,-2.2373,-2.2051,-2.1846,-2.1768,-2.1846,-2.166,-2.122,-2.1592,-2.1728,-2.1621,0.0,0.0,0.0,-2.0556,-2.0615,-2.0605,-2.0449,-2.0233,-1.9912,-1.9424,0.0,-1.8617,-1.8598,-1.8529,-1.8373,-1.8076,0.0,0.0,0.0,0.0,0.0,0.0,0.0,0.0,0.0,0.0,0.0,-1.7507,-1.7265,-1.6689,-1.7438,-1.8217,-1.876,-1.9258,-1.9766,-2.0312,-2.0791,-2.1073,-2.1103,-2.1885,-2.2363,-2.2253,-2.2672,-2.2974,-2.2974,-2.3052,-2.3237,-2.3623,-2.374,-2.4062,-2.4668,-2.4893,-2.5098,-2.542,-2.5234,-2.5096,-2.5018,-2.5049,-2.4912,-2.4482,-2.4962,-2.5166,-2.467,-2.4916,-2.4592,-2.357,-2.3405,-2.3103,-2.2871,-2.2681,-2.2739,-2.3035,-2.2844,-2.2844,-2.2643,-2.2643,-2.2935,-2.4131,-2.4285,-2.4251,-2.5684,0.0,-2.5684,-2.5684,0.0,-2.5684,-2.5605,-2.5391,-2.5166,-2.4707,-2.4121,-2.4372,-2.4062,-2.3467,-2.3682,-2.3652,-2.3447,-2.3188,-2.3218,-2.3447,-2.3188,-2.2994,-2.2769,-2.2607,-2.251,-2.25,-2.2305,-2.209,-2.1914,-2.209,-2.1865,-2.121,-2.167,-2.1777,-2.1572,-2.1298,-2.1016,-2.0615,-2.0615,-2.0615,-2.0595,-2.0361,-2.0137,-1.9912,-1.9502,0.0,0.0,0.0,0.0,0.0,0.0,0.0,0.0,0.0,0.0,-1.695,-1.6905,-1.6905,-1.6989,-1.7594,-1.8174,-1.8613,-1.9238,-1.9114,-1.8086,-1.8857,-1.9616,-2.0167,-2.0333,-2.0712,-2.1455,-2.1738,-2.1912,-2.2126,-2.2526,-2.2779,-2.2818,-2.3203,-2.3457,-2.3486,-2.3643,-2.3822,-2.4072,-2.4343,-2.4617,-2.5047,-2.5264,-2.5469,-2.5615,-2.5547,-2.54,-2.54,-2.54,-2.5322,-2.5118,-2.5343,-2.5586,-2.5196,-2.4986,-2.4389,-2.3233,-2.2704,-2.2341,-2.1836,-2.1735,-2.1836,-2.2391,-2.2383,-2.2291,-2.2291,-2.2089,-2.2139,-2.3011,-2.347,-2.3935,-2.5684,-2.5684,-2.5684,-2.5684,-2.5684,-2.5684,-2.5684,-2.5664,0.0,0.0,0.0,-2.4912,-2.4639,-2.3935,-2.4258,-2.4228,-2.3877,-2.3447,-2.3447,-2.376,-2.334,-2.3101,-2.3081,-2.274,-2.2617,-2.2617,-2.2549,-2.2334,-2.2021,-2.2353,-2.2116,-2.1522,-2.1894,-2.1855,-2.1337,-2.1307,-2.1094,-2.0635,-2.0615,-2.0615,-2.0595,-2.0215,-2.0029,-2.0029,-1.9619,-1.9228,-1.8851,-1.8822,-1.8545,-1.7881,-1.7866,-1.7832,-1.7832,-1.7764,-1.8037,-1.8656,-1.8724,-1.8754,-1.8831,-1.9268,-1.959,-1.9736,-2.0801,-2.0898,-1.9727,-2.0149,-2.0778,-2.1385,-2.1262,-2.1581,-2.2506,-2.2574,-2.2793,-2.3159,-2.3208,-2.3237,-2.3325,-2.3672,-2.3896,-2.3935,-2.418,-2.4443,-2.4531,-2.4824,-2.5165,-2.5215,-2.5498,-2.5684,-2.5684,-2.5664,-2.5645,-2.5645,-2.5615,-2.5654,-2.5674,-2.5401,-2.5479,-2.5577,-2.463,-2.3534,-2.2634,-2.1633,-2.0936,-2.0637,-2.0739,-2.1183,-2.1785,-2.2139,-2.224,-2.1937,-2.1684,-2.1481,-2.1582,-2.235,-2.327,-2.5684,-2.5684,-2.5684,-2.5684,-2.5684,-2.5684,-2.5684,-2.5684,-2.5664,-2.54,-2.5028,-2.5086,-2.4795,-2.4326,-2.4394,-2.4385,-2.4307,-2.3887,-2.373,-2.3769,-2.335,-2.3101,-2.3101,-2.3033,-2.3013,-2.2984,-2.2685,-2.248,-2.2432,-2.248,-2.2451,-2.234,-2.2711,-2.2526,-2.1855,-2.1797,-2.1387,-2.0635,-2.0615,-2.0615,-2.0605,-2.0537,-2.0517,-2.0498,-2.0049,-1.9767,-1.9736,-1.9717,-1.9687,-1.9561,-1.9561,-1.9561,-1.9541,-1.9189,-1.9082,-1.918,-1.9199,-1.9346,-1.9679,-2.0175,-2.0713,-2.1455,-2.2021,-2.1943,-2.1034,-2.1366,-2.1834,-2.2285,-2.2301,-2.2487,-2.2945,-2.3023,-2.3242,-2.3623,-2.3701,-2.3828,-2.4141,-2.4268,-2.4336,-2.4336,-2.4375,-2.4609,-2.4932,-2.5096,-2.5244,-2.5537,-2.5625,-2.5684,-2.5684,-2.5684,-2.5684,-2.5684,-2.5684,-2.5684,-2.5635,-2.4913,-2.4864,-2.5577,-2.4066,-2.2835,-2.2442,-2.1582,-2.0637,-1.9732,-2.0285,-2.0534,-2.013,-2.1081,-2.1183,-2.0122,-2.0181,-2.0629,-2.0688,-2.1489,-2.2097,-2.5684,-2.5684,-2.5684,-2.5684,-2.5684,-2.5684,-2.5684,-2.5684,-2.5684,-2.5586,-2.5439,-2.543,-2.5176,-2.4785,-2.4775,-2.4639,-2.4404,-2.4219,-2.4131,-2.4102,-2.3691,-2.3486,-2.3477,-2.3218,-2.3101,-2.3081,-2.2896,-2.2691,-2.2529,-2.251,-2.2393,-2.2217,-2.2588,-2.2715,-2.2568,-2.2344,-2.1924,-2.1289,-2.1045,-2.081,-2.0615,-2.0615,-2.0615,-2.0595,-2.0137,-1.9912,-1.9912,-1.9697,-1.957,-1.958,-1.957,-1.9668,-1.9893,-1.9727,-1.9844,-2.0293,-2.0342,-2.0537,-2.0957,-2.1387,-2.1797,-2.2197,-2.2607,-2.276,-2.2646,-2.2673,-2.2868,-2.3203,-2.331,-2.3489,-2.3764,-2.3783,-2.3916,-2.4111,-2.4131,-2.4209,-2.4404,-2.4648,-2.4766,-2.4795,-2.499,-2.5205,-2.54,-2.543,-2.5488,-2.5654,-2.5684,-2.5684,-2.5684,-2.5684,-2.5684,-2.5684,-2.5684,-2.5684,-2.5684,-2.5333,-2.502,-2.4913,-2.4057,-2.2944,-2.1988,-2.114,-2.049,-1.9583,-1.9724,-1.9828,-1.9331,-1.9931,-1.9983,-1.9628,-1.9272,-1.9628,-1.9724,-2.0372,-2.132,-2.5684,-2.5684,-2.5684,-2.5684,-2.5684,-2.5684,-2.5684,-2.5684,-2.5684,-2.5684,-2.5684,-2.5684,-2.5537,-2.5234,-2.5225,-2.5039,-2.468,-2.4609,-2.457,-2.4521,-2.4131,-2.3887,-2.376,-2.3447,-2.3198,-2.3101,-2.3101,-2.2925,-2.2643,-2.2613,-2.25,-2.2217,-2.2402,-2.2685,-2.2935,-2.2676,-2.2305,-2.1894,-2.165,-2.1211,-2.0635,-2.0615,-2.0615,-2.0586,-2.0342,-2.0177,-2.0205,-1.999,-1.9873,-1.9873,-1.9873,-2.0019,-2.0332,-2.0361,-2.0664,-2.1299,-2.1337,-2.1572,-2.2002,-2.2422,-2.2656,-2.2623,-2.3047,-2.3428,-2.374,-2.3793,-2.3842,-2.3939,-2.4052,-2.42,-2.4329,-2.4394,-2.4453,-2.4541,-2.456,-2.4629,-2.4727,-2.5019,-2.5225,-2.5254,-2.5527,-2.5664,-2.5684,-2.5684,-2.5674,-2.5674,-2.5684,-2.5684,-2.5684,-2.5684,-2.5684,-2.5684,-2.5684,-2.5684,-2.5684,-2.5372,-2.4962,-2.4187,-2.3583,-2.2542,-2.1285,-2.079,-2.0285,-1.948,-1.9583,-1.9628,-1.948,-1.9879,-1.9879,-1.9576,-1.948,-1.948,-1.9576,-2.0166,-2.0904,-2.5703,-2.5684,-2.5723,-2.5684,-2.5713,-2.5713,-2.5723,-2.5713,-2.5684,-2.5684,-2.5713,-2.5684,-2.5664,-2.5625,-2.5664,-2.5567,-2.5537,-2.5185,-2.501,-2.4961,-2.456,-2.416,-2.3848,-2.375,-2.3516,-2.3149,-2.312,-2.3091,-2.3003,-2.3013,-2.3003,-2.2945,-2.2652,-2.2539,-2.2568,-2.2549,-2.2314,-2.1914,-2.2227,-2.1807,-2.0693,-2.0615,-2.0615,-2.0615,-2.0918,-2.1083,-2.1015,-2.1455,-2.1631,-2.1691,-2.1592,-2.1631,-2.168,-2.1689,-2.1738,-2.1816,-2.1836,-2.2012,-2.2432,-2.2808,-2.3023,-2.3071,-2.3467,-2.375,-2.3857,-2.4502,-2.4775,-2.4502,-2.4378,-2.4436,-2.4368,-2.4463,-2.4648,-2.498,-2.501,-2.5166,-2.5478,-2.5606,-2.5635,-2.5625,-2.5645,-2.5684,-2.5684,-2.5684,-2.5684,-2.5684,-2.5684,-2.5684,-2.5684,-2.5684,-2.5684,-2.5684,-2.5684,-2.5684,-2.5635,-2.4854,-2.4452,-2.4038,-2.2534,-2.1582,-2.1089,-2.0336,-1.9428,-1.9828,-2.0086,-2.0285,-2.0027,-2.0629,-2.1183,-1.9828,-1.9835,-2.0585,-2.0731,-2.1132,-2.1532,-2.6494,-2.6434,-2.6484,-2.6494,-2.6444,-2.6494,-2.6494,-2.6475,-2.623,-2.6113,-2.6074,-2.5801,-2.5684,-2.5684,-2.5684,-2.5684,-2.5664,-2.5499,-2.5469,-2.542,-2.501,-2.4707,-2.4541,-2.4268,-2.3935,-2.3545,-2.3525,-2.3398,-2.313,-2.3101,-2.3101,-2.3081,-2.2906,-2.2838,-2.2838,-2.2891,-2.2633,-2.2275,-2.2422,-2.2129,-2.1466,-2.1084,-2.0957,-2.0947,-2.0898,-2.0986,-2.1181,-2.1375,-2.1504,-2.1473,-2.1738,-2.2002,-2.2246,-2.2256,-2.2363,-2.2598,-2.2627,-2.2662,-2.2828,-2.3003,-2.3198,-2.3506,-2.3682,-2.3984,-2.4502,-2.492,-2.5088,-2.5195,-2.5138,-2.5148,-2.5128,-2.5148,-2.5264,-2.543,-2.5469,-2.5537,-2.5654,-2.5684,-2.5684,-2.5684,-2.5684,-2.5684,-2.5684,-2.5684,-2.5684,-2.5684,-2.5684,-2.5684,-2.5684,-2.5684,-2.5684,-2.5684,-2.5684,-2.5684,-2.5645,-2.543,-2.4815,-2.4146,-2.3434,-2.2735,-2.1836,-2.1591,-2.1038,-2.0388,-2.0688,-2.0534,-1.948,-1.9776,-2.0225,-1.9532,-1.948,-1.9983,-1.9983,-2.0739,-2.1038,-2.7012,-2.7012,-2.7012,-2.7012,-2.7012,-2.7012,-2.7012,-2.6982,-2.668,-2.6562,-2.6523,-2.6171,-2.6044,-2.6005,-2.5801,-2.5684,-2.5684,-2.5684,-2.5684,-2.5654,-2.54,-2.5185,-2.5096,-2.4756,-2.4375,-2.4023,-2.3965,-2.375,-2.3315,-2.3266,-2.3218,-2.311,-2.3101,-2.3101,-2.3101,-2.3101,-2.2955,-2.2725,-2.2685,-2.248,-2.207,-2.1748,-2.1492,-2.1406,-2.1221,-2.126,-2.1562,-2.1658,-2.1717,-2.1736,-2.206,-2.2363,-2.2656,-2.2685,-2.2822,-2.3052,-2.3101,-2.3101,-2.3101,-2.3208,-2.3457,-2.3769,-2.3975,-2.4404,-2.4979,-2.5223,-2.5391,-2.5596,-2.5684,-2.5654,-2.5684,-2.5684,-2.5684,-2.5684,-2.5684,-2.5684,-2.5684,-2.5684,-2.5684,-2.5684,-2.5684,-2.5684,-2.5684,-2.5684,-2.5684,-2.5684,-2.5684,-2.5684,-2.5684,-2.5684,-2.5684,-2.5684,-2.5684,-2.5684,-2.5684,-2.5635,-2.5216,-2.4501,-2.393,-2.3534,-2.2793,-2.2542,-2.2433,-2.1387,-2.1336,-2.1234,-2.0834,-2.0483,-2.0233,-2.0181,-2.0181,-2.0233,-2.0585,-2.1191,-2.1937,-2.7012,-2.7031,-2.7021,-2.707,-2.7031,-2.7051,-2.7041,-2.71,-2.7012,-2.6992,-2.6992,-2.6934,-2.6934,-2.6855,-2.6143,-2.5713,-2.5693,-2.5693,-2.5684,-2.5684,-2.5645,-2.5478,-2.5125,-2.5086,-2.4814,-2.4424,-2.4394,-2.417,-2.3779,-2.376,-2.3545,-2.313,-2.313,-2.311,-2.3101,-2.3101,-2.3091,-2.3033,-2.3023,-2.2857,-2.2549,-2.2418,-2.2246,-2.1963,-2.2197,-2.2314,-2.2389,-2.2769,-2.2955,-2.2984,-2.2964,-2.3023,-2.3052,-2.3052,-2.3062,-2.3091,-2.3101,-2.3101,-2.3169,-2.3516,-2.3779,-2.3916,-2.4568,-2.5057,-2.5127,-2.5439,-2.5654,-2.5684,-2.5684,-2.5684,-2.5684,-2.5684,-2.5684,-2.5684,-2.5684,-2.5684,-2.5684,-2.5684,-2.5684,-2.5684,-2.5684,-2.5684,-2.5684,-2.5684,-2.5684,-2.5684,-2.5684,-2.5684,-2.5684,-2.5684,-2.5684,-2.5684,-2.5684,-2.5684,-2.5684,-2.5684,-2.5216,-2.4707,-2.4344,-2.3939,-2.3094,-2.2492,-2.2492,-2.2492,-2.2442,-2.2391,-2.2383,-2.224,-2.2038,-2.1937,-2.1836,-2.1887,-2.154,-2.2994,-2.3543,-2.7832,-2.7832,-2.7832,-2.7832,-2.7832,-2.7822,-2.7832,-2.7803,-2.7549,-2.7432,-2.7373,-2.7148,-2.7012,-2.6992,-2.6699,-2.6406,-2.6143,-2.582,-2.5684,-2.5684,-2.5684,-2.5654,-2.5469,-2.5498,-2.5273,-2.4883,-2.4824,-2.4619,-2.4228,-2.4189,-2.3975,-2.3623,-2.3555,-2.3428,-2.3149,-2.3101,-2.3101,-2.3101,-2.3101,-2.3013,-2.2877,-2.2867,-2.2789,-2.2676,-2.2295,-2.2109,-2.2109,-2.2477,-2.2691,-2.2734,-2.2945,-2.3101,-2.3101,-2.3101,-2.3101,-2.3101,-2.3101,-2.3218,-2.3516,-2.3691,-2.4043,-2.457,-2.492,-2.5205,-2.5449,-2.5635,-2.5684,-2.5684,-2.5684,-2.5684,-2.5684,-2.5684,-2.5684,-2.5684,-2.5684,-2.5684,-2.5684,-2.5684,-2.5684,-2.5684,-2.5684,-2.5684,-2.5684,-2.5684,-2.5684,-2.5684,-2.5684,-2.5684,-2.5684,-2.5684,-2.5684,-2.5684,-2.5684,-2.5684,-2.5684,-2.5684,-2.5528,-2.5323,-2.5118,-2.5011,-2.4461,-2.4264,-2.4322,-2.3443,-2.3393,-2.3294,-2.3194,-2.2894,-2.2894,-2.2844,-2.2793,-2.2944,-2.2492,-2.3502,-2.384,-2.8301,-2.8301,-2.8301,-2.8301,-2.8301,-2.8301,-2.8301,-2.8262,-2.7988,-2.7861,-2.7803,-2.7549,-2.7422,-2.7393,-2.7285,-2.708,-2.6768,-2.6357,-2.6025,-2.5957,-2.5947,-2.5879,-2.5703,-2.5684,-2.5576,-2.5322,-2.5283,-2.5059,-2.4678,-2.4629,-2.4394,-2.4014,-2.3994,-2.3779,-2.3418,-2.335,-2.3247,-2.313,-2.3101,-2.3101,-2.3101,-2.3101,-2.3101,-2.3023,-2.2578,-2.2295,-2.2295,-2.2559,-2.2672,-2.2754,-2.2945,-2.3101,-2.3101,-2.3101,-2.3101,-2.3101,-2.3281,-2.3477,-2.3779,-2.4088,-2.4463,-2.5057,-2.5215,-2.543,-2.5654,-2.5684,-2.5684,-2.5684,-2.5684,-2.5684,-2.5684,-2.5684,-2.5684,-2.5684,-2.5684,-2.5684,-2.5684,-2.5684,-2.5684,-2.5684,-2.5684,-2.5684,-2.5684,-2.5684,-2.5684,-2.5684,-2.5684,-2.5684,-2.5684,-2.5684,-2.5684,-2.5684,-2.5684,-2.5684,-2.5684,-2.5684,-2.5684,-2.5528,-2.5479,-2.5577,-2.5528,-2.5586,-2.5382,-2.455,-2.4196,-2.4048,-2.3859,-2.3552,-2.3452,-2.3443,-2.38,-2.4165,-2.3859,-2.371,-2.4205,-2.8301,-2.8301,-2.8301,-2.8301,-2.8301,-2.8301,-2.8301,-2.8281,-2.8271,-2.8232,-2.8203,-2.8223,-2.8154,-2.8154,-2.7812,-2.7708,-2.7539,-2.7187,-2.6787,-2.6426,-2.6387,-2.6191,-2.582,-2.5781,-2.5713,-2.5615,-2.5654,-2.5488,-2.5088,-2.5059,-2.4853,-2.4492,-2.4378,-2.4209,-2.3799,-2.3779,-2.3594,-2.3286,-2.3208,-2.3149,-2.3101,-2.311,-2.3101,-2.3101,-2.3023,-2.2994,-2.3023,-2.3042,-2.3042,-2.3052,-2.3071,-2.3101,-2.3101,-2.313,-2.313,-2.3218,-2.3564,-2.3779,-2.3926,-2.4607,-2.4998,-2.5233,-2.5478,-2.5625,-2.5664,-2.5684,-2.5684,-2.5684,-2.5684,-2.5684,-2.5684,-2.5684,-2.5684,-2.5684,-2.5684,-2.5684,-2.5684,-2.5684,-2.5684,-2.5684,-2.5684,-2.5684,-2.5684,-2.5684,-2.5684,-2.5684,-2.5684,-2.5684,-2.5684,-2.5684,-2.5684,-2.5684,-2.5684,-2.5684,-2.5684,-2.5684,-2.5684,-2.5684,-2.5635,-2.5635,-2.5323,-2.5284,-2.5382,-2.4805,-2.5011,-2.4922,-2.4922,-2.4716,-2.4864,-2.4922,-2.5226,-2.5177,-2.4971,-2.4775,-2.5069,-2.8301,-2.8301,-2.8301,-2.8301,-2.8301,-2.8301,-2.8301,-2.8301,-2.8301,-2.8301,-2.8301,-2.8301,-2.8301,-2.8271,-2.8144,-2.8096,-2.8086,-2.793,-2.751,-2.6924,-2.6826,-2.6748,-2.6572,-2.6318,-2.6035,-2.5732,-2.5684,-2.5615,-2.5499,-2.5518,-2.5303,-2.4941,-2.4863,-2.4629,-2.4248,-2.4219,-2.4131,-2.3968,-2.373,-2.3584,-2.3555,-2.3247,-2.3101,-2.3101,-2.3101,-2.3101,-2.3101,-2.3101,-2.3101,-2.3101,-2.3101,-2.3101,-2.3149,-2.3428,-2.3584,-2.3623,-2.3984,-2.4375,-2.4648,-2.4902,-2.5225,-2.5469,-2.5625,-2.5674,-2.5684,-2.5684,-2.5693,-2.5693,-2.5684,-2.5684,-2.5684,-2.5684,-2.5723,-2.5684,-2.5684,-2.5684,-2.5684,-2.5684,-2.5684,-2.5684,-2.5684,-2.5684,-2.5684,-2.5684,-2.5684,-2.5684,-2.5684,-2.5684,-2.5684,-2.5684,-2.5684,-2.5684,-2.5684,-2.5684,-2.5684,-2.5684,-2.5684,-2.5684,-2.5684,-2.543,-2.5118,-2.5177,-2.5274,-2.5274,-2.5479,-2.5577,-2.5635,-2.5577,-2.5479,-2.5635,-2.5528,-2.5528,-2.5635,-2.5684,-2.5684,-2.8301,-2.8301,-2.8301,-2.8301,-2.8301,-2.8301,-2.8301,-2.8301,-2.8301,-2.8301,-2.8301,-2.8301,-2.8301,-2.8301,-2.8301,-2.8301,-2.8301,-2.8301,-2.8008,-2.751,-2.7305,-2.7187,-2.6982,-2.6582,-2.626,-2.5996,-2.5762,-2.5684,-2.5684,-2.5674,-2.5547,-2.5361,-2.5312,-2.5098,-2.4707,-2.4648,-2.4609,-2.4404,-2.416,-2.4023,-2.3965,-2.375,-2.3569,-2.3578,-2.3613,-2.3569,-2.3578,-2.3569,-2.3422,-2.3208,-2.3237,-2.3335,-2.3374,-2.3769,-2.4023,-2.4102,-2.4414,-2.4785,-2.5096,-2.5225,-2.542,-2.5674,-2.5684,-2.5684,-2.5684,-2.5684,-2.5732,-2.5957,-2.5947,-2.6045,-2.6132,-2.6161,-2.6161,-2.6221,-2.5869,-2.5713,-2.5684,-2.5684,-2.5684,-2.5684,-2.5684,-2.5684,-2.5684,-2.5684,-2.5684,-2.5684,-2.5684,-2.5684,-2.5684,-2.5684,-2.5684,-2.5684,-2.5684,-2.5684,-2.5684,-2.5684,-2.5684,-2.5684,-2.5684,-2.5274,-2.4864,-2.5323,-2.5528,-2.5323,-2.5372,-2.5323,-2.5372,-2.5069,-2.4913,-2.5226,-2.5684,-2.5684,-2.5684,-2.5684,-2.5684,-2.8301,-2.8301,-2.8301,-2.8301,-2.8301,-2.8301,-2.8301,-2.8301,-2.8301,-2.8301,-2.8301,-2.8301,-2.8301,-2.8301,-2.8301,-2.8301,-2.8301,-2.8291,-2.8271,-2.8105,-2.7861,-2.751,-2.7109,-2.6768,-2.6553,-2.6377,-2.6015,-2.584,-2.5898,-2.582,-2.5723,-2.5723,-2.5645,-2.5527,-2.5176,-2.5155,-2.4932,-2.4658,-2.4512,-2.4453,-2.4453,-2.4365,-2.4346,-2.4346,-2.4326,-2.4307,-2.4287,-2.4268,-2.3984,-2.3354,-2.3652,-2.3818,-2.3896,-2.4228,-2.4453,-2.4473,-2.4863,-2.5068,-2.5205,-2.5469,-2.5635,-2.5674,-2.5752,-2.5723,-2.5791,-2.5937,-2.6054,-2.6387,-2.6416,-2.6562,-2.6846,-2.6904,-2.6904,-2.6894,-2.6348,-2.5918,-2.5752,-2.5781,-2.584,-2.5752,-2.5703,-2.5752,-2.581,-2.5781,-2.5771,-2.5762,-2.5742,-2.5684,-2.5684,-2.5684,-2.5684,-2.5684,-2.5684,-2.5684,-2.5684,-2.5684,-2.5684,-2.5684,-2.5693,-2.5391,-2.502,-2.543,-2.5684,-2.5421,-2.5167,-2.5118,-2.5128,-2.4971,-2.502,-2.543,-2.5684,-2.5684,-2.5684,-2.5684,-2.5684,-2.8301,-2.8301,-2.8301,-2.8301,-2.8301,-2.8301,-2.8301,-2.8301,-2.8301,-2.8301,-2.8301,-2.8301,-2.8301,-2.8301,-2.8301,-2.8301,-2.8301,-2.8301,-2.8301,-2.8281,-2.8203,-2.7891,-2.7559,-2.7383,-2.7139,-2.6865,-2.6689,-2.668,-2.665,-2.6348,-2.6221,-2.6201,-2.5859,-2.5703,-2.5528,-2.5557,-2.5469,-2.5352,-2.5039,-2.4902,-2.4853,-2.459,-2.4424,-2.4424,-2.4443,-2.4453,-2.4424,-2.4424,-2.4346,-2.4131,-2.4124,-2.4258,-2.4287,-2.4658,-2.4893,-2.4961,-2.5283,-2.5499,-2.5566,-2.5625,-2.5693,-2.5723,-2.6055,-2.6211,-2.624,-2.6504,-2.6699,-2.6846,-2.6846,-2.6894,-2.7002,-2.7051,-2.7041,-2.6992,-2.6816,-2.6553,-2.6338,-2.6475,-2.6465,-2.5888,-2.6249,-2.6426,-2.6299,-2.6221,-2.6211,-2.6162,-2.6006,-2.5771,-2.5859,-2.583,-2.5898,-2.5742,-2.5693,-2.5684,-2.5684,-2.5684,-2.5684,-2.5684,-2.5703,-2.5732,-2.5508,-2.5577,-2.5684,-2.5625,-2.5216,-2.5118,-2.5382,-2.543,-2.5635,-2.5538,-2.5684,-2.5684,-2.5684,-2.5684,-2.5684,-2.8301,-2.8301,-2.8301,-2.8301,-2.8301,-2.8301,-2.8301,-2.8301,-2.8301,-2.8301,-2.8301,-2.8301,-2.8301,-2.8301,-2.8301,-2.8301,-2.8301,-2.8301,-2.8301,-2.8301,-2.8281,-2.8144,-2.793,-2.7845,-2.7529,-2.7295,-2.7109,-2.7002,-2.6963,-2.6758,-2.667,-2.6572,-2.6221,-2.6016,-2.5996,-2.5762,-2.5684,-2.5625,-2.5469,-2.5352,-2.5322,-2.5107,-2.501,-2.498,-2.4971,-2.4971,-2.4923,-2.498,-2.4787,-2.456,-2.457,-2.4687,-2.4736,-2.5107,-2.5342,-2.5361,-2.5557,-2.5674,-2.5723,-2.5889,-2.6006,-2.6084,-2.6416,-2.6611,-2.668,-2.6894,-2.7031,-2.7256,-2.7275,-2.7373,-2.7519,-2.7549,-2.7549,-2.7588,-2.7549,-2.7305,-2.6738,-2.6836,-2.6768,-2.6493,-2.666,-2.6943,-2.667,-2.666,-2.665,-2.6621,-2.6484,-2.6337,-2.6348,-2.626,-2.6172,-2.6064,-2.5967,-2.5937,-2.584,-2.5801,-2.6025,-2.5957,-2.6083,-2.6044,-2.5859,-2.581,-2.5771,-2.5723,-2.5362,-2.5205,-2.5576,-2.5683,-2.5274,-2.5274,-2.5528,-2.5723,-2.5742,-2.5869,-2.584,-2.8301,-2.8301,-2.8301,-2.8301,-2.8301,-2.8301,-2.8301,-2.8301,-2.8301,-2.8301,-2.8301,-2.8301,-2.8301,-2.8301,-2.8301,-2.8301,-2.8301,-2.8301,-2.8301,-2.8301,-2.8301,-2.8252,-2.8193,-2.7939,-2.7845,-2.7738,-2.7324,-2.7256,-2.7256,-2.7168,-2.708,-2.6982,-2.666,-2.6475,-2.6367,-2.6015,-2.5781,-2.5791,-2.5684,-2.5654,-2.5596,-2.5547,-2.5518,-2.5518,-2.5518,-2.5538,-2.5567,-2.5567,-2.5352,-2.4563,-2.4932,-2.5107,-2.5195,-2.5547,-2.5635,-2.5635,-2.5664,-2.5703,-2.581,-2.6162,-2.6406,-2.6494,-2.6846,-2.707,-2.7109,-2.7207,-2.7412,-2.7705,-2.7787,-2.7881,-2.8096,-2.8232,-2.8184,-2.8135,-2.8213,-2.7891,-2.7383,-2.7148,-2.7119,-2.7051,-2.7051,-2.7139,-2.709,-2.708,-2.708,-2.706,-2.6914,-2.6738,-2.6709,-2.668,-2.6592,-2.6484,-2.6387,-2.6309,-2.6152,-2.5927,-2.6221,-2.6396,-2.6631,-2.6621,-2.6269,-2.6143,-2.5976,-2.5849,-2.5884,-2.5894,-2.5965,-2.573,-2.5387,-2.5553,-2.6112,-2.6035,-2.5918,-2.6122,-2.6191,-2.8301,-2.8301,-2.8301,-2.8301,-2.8301,-2.8301,-2.8301,-2.8301,-2.8301,-2.8301,-2.8301,-2.8301,-2.8301,-2.8301,-2.8301,-2.8301,-2.8301,-2.8301,-2.8301,-2.8301,-2.8301,-2.8301,-2.8281,-2.8154,-2.8154,-2.8096,-2.8066,-2.7998,-2.7939,-2.7656,-2.7529,-2.7471,-2.7119,-2.6885,-2.6816,-2.6475,-2.625,-2.6191,-2.5947,-2.5752,-2.5732,-2.5732,-2.5713,-2.5693,-2.5684,-2.5684,-2.5684,-2.5684,-2.5586,-2.5479,-2.546,-2.5527,-2.5528,-2.5615,-2.5703,-2.5732,-2.5732,-2.5849,-2.6191,-2.6377,-2.6553,-2.6894,-2.7266,-2.7591,-2.7559,-2.7812,-2.7998,-2.8154,-2.8164,-2.8184,-2.8271,-2.8301,-2.8301,-2.8301,-2.8281,-2.8213,-2.8047,-2.7988,-2.7685,-2.7373,-2.7588,-2.7891,-2.7568,-2.7529,-2.751,-2.748,-2.7314,-2.708,-2.707,-2.7129,-2.7031,-2.6943,-2.6865,-2.6777,-2.6602,-2.6494,-2.668,-2.6885,-2.71,-2.7246,-2.6894,-2.6699,-2.668,-2.6658,-2.6666,-2.6639,-2.6425,-2.6541,-2.6311,-2.654,-2.661,-2.6512,-2.6504,-2.6592,-2.6522,-2.8301,-2.8301,-2.8301,-2.8301,-2.8301,-2.8301,-2.8301,-2.8301,-2.8301,-2.8301,-2.8301,-2.8301,-2.8301,-2.8301,-2.8301,-2.8301,-2.8301,-2.8301,-2.8301,-2.8301,-2.8301,-2.8301,-2.8301,-2.8301,-2.8301,-2.8301,-2.8281,-2.8301,-2.8223,-2.8086,-2.7959,-2.793,-2.7539,-2.7344,-2.7256,-2.6894,-2.6699,-2.666,-2.6475,-2.626,-2.6084,-2.6045,-2.5849,-2.5723,-2.5684,-2.5684,-2.5684,-2.5684,-2.5684,-2.5684,-2.5693,-2.5693,-2.5684,-2.5693,-2.5781,-2.6006,-2.6045,-2.625,-2.6572,-2.6875,-2.71,-2.7305,-2.7715,-2.7891,-2.7988,-2.8193,-2.8271,-2.8301,-2.8291,-2.8291,-2.8301,-2.8301,-2.8301,-2.8301,-2.8301,-2.8301,-2.8301,-2.8291,-2.8164,-2.7783,-2.7998,-2.8096,-2.8027,-2.792,-2.793,-2.7891,-2.791,-2.7695,-2.7734,-2.7754,-2.7549,-2.7441,-2.7363,-2.7246,-2.708,-2.707,-2.7226,-2.7412,-2.7607,-2.7744,-2.7666,-2.7539,-2.7461,-2.7292,-2.7087,-2.6941,-2.6846,-2.7002,-2.708,-2.6943,-2.6914,-2.6982,-2.7002,-2.6924,-2.6875,-2.8301,-2.8301,-2.8301,-2.8301,-2.8301,-2.8301,-2.8301,-2.8301,-2.8301,-2.8301,-2.8301,-2.8301,-2.8301,-2.8301,-2.8301,-2.8301,-2.8301,-2.8301,-2.8301,-2.8301,-2.8301,-2.8301,-2.8301,-2.8301,-2.8301,-2.8301,-2.8301,-2.8301,-2.8301,-2.8291,-2.8213,-2.8213,-2.7959,-2.7773,-2.7666,-2.7353,-2.7119,-2.71,-2.6963,-2.6777,-2.6543,-2.6475,-2.6309,-2.6064,-2.5869,-2.5927,-2.5957,-2.5918,-2.5849,-2.5869,-2.5879,-2.5879,-2.5869,-2.5869,-2.5967,-2.6367,-2.6416,-2.6699,-2.706,-2.7393,-2.7617,-2.7796,-2.8057,-2.8252,-2.8271,-2.8262,-2.8291,-2.8301,-2.8301,-2.8301,-2.8301,-2.8301,-2.8301,-2.8301,-2.8301,-2.8301,-2.8301,-2.8301,-2.8242,-2.8252,-2.8203,-2.8203,-2.8232,-2.8184,-2.8252,-2.8301,-2.8301,-2.8301,-2.8301,-2.8242,-2.7978,-2.7871,-2.7793,-2.7754,-2.7607,-2.7539,-2.7715,-2.7783,-2.7998,-2.8057,-2.8164,-2.8037,-2.7822,-2.7559,-2.7363,-2.7295,-2.7324,-2.7471,-2.7441,-2.7226,-2.7285,-2.749,-2.7422,-2.7236,-2.7246,-2.8301,-2.8301,-2.8301,-2.8301,-2.8301,-2.8301,-2.8301,-2.8301,-2.8301,-2.8301,-2.8301,-2.8301,-2.8301,-2.8301,-2.8301,-2.8301,-2.8301,-2.8301,-2.8301,-2.8301,-2.8301,-2.8301,-2.8301,-2.8301,-2.8301,-2.8301,-2.8301,-2.8301,-2.8301,-2.8301,-2.8301,-2.8271,-2.8203,-2.8154,-2.8027,-2.7793,-2.7559,-2.751,-2.7305,-2.708,-2.6953,-2.6855,-2.6807,-2.6641,-2.6406,-2.6435,-2.6602,-2.6465,-2.6435,-2.6748,-2.6797,-2.6777,-2.667,-2.6445,-2.6406,-2.6514,-2.6777,-2.71,-2.75,-2.7627,-2.7861,-2.8096,-2.8252,-2.8291,-2.8301,-2.8301,-2.8301,-2.8301,-2.8301,-2.8301,-2.8301,-2.8301,-2.8301,-2.8301,-2.8301,-2.8301,-2.8301,-2.8301,-2.8301,-2.8301,-2.8301,-2.8301,-2.8301,-2.8301,-2.8301,-2.8301,-2.8301,-2.8301,-2.8301,-2.8301,-2.8213,-2.8184,-2.8203,-2.8184,-2.8154,-2.8105,-2.8125,-2.8086,-2.8184,-2.8174,-2.8252,-2.8271,-2.8115,-2.7861,-2.7851,-2.792,-2.7959,-2.7939,-2.791,-2.7783,-2.791,-2.8027,-2.7881,-2.7734,-2.7861,-2.8301,-2.8301,-2.8301,-2.8301,-2.8301,-2.8301,-2.8301,-2.8301,-2.8301,-2.8301,-2.8301,-2.8301,-2.8301,-2.8301,-2.8301,-2.8301,-2.8301,-2.8301,-2.8301,-2.8301,-2.8301,-2.8301,-2.8301,-2.8301,-2.8301,-2.8301,-2.8301,-2.8301,-2.8301,-2.8301,-2.8301,-2.8291,-2.8301,-2.8301,-2.8262,-2.8096,-2.7988,-2.792,-2.7764,-2.7549,-2.7344,-2.7178,-2.7041,-2.6953,-2.6865,-2.6836,-2.6904,-2.6865,-2.6807,-2.6953,-2.7002,-2.7012,-2.7021,-2.707,-2.7041,-2.7131,-2.7236,-2.7529,-2.7891,-2.7998,-2.8096,-2.8242,-2.8301,-2.8301,-2.8301,-2.8301,-2.8301,-2.8301,-2.8301,-2.8301,-2.8301,-2.8301,-2.8301,-2.8301,-2.8301,-2.8301,-2.8301,-2.8301,-2.8301,-2.8301,-2.8301,-2.8301,-2.8301,-2.8301,-2.8301,-2.8301,-2.8301,-2.8301,-2.8301,-2.8301,-2.8301,-2.8291,-2.8291,-2.8291,-2.8291,-2.8291,-2.8301,-2.8301,-2.8301,-2.8301,-2.8301,-2.8301,-2.8301,-2.8184,-2.8271,-2.8301,-2.8262,-2.8135,-2.8232,-2.8301,-2.8223,-2.8174,-2.8242,-2.8281,-2.8301,-2.8301,-2.8301,-2.8301,-2.8301,-2.8301,-2.8301,-2.8301,-2.8301,-2.8301,-2.8301,-2.8301,-2.8301,-2.8301,-2.8301,-2.8301,-2.8301,-2.8301,-2.8301,-2.8301,-2.8301,-2.8301,-2.8301,-2.8301,-2.8301,-2.8301,-2.8301,-2.8301,-2.8301,-2.8301,-2.8301,-2.8301,-2.8301,-2.8301,-2.8301,-2.8271,-2.8242,-2.8291,-2.8301,-2.8281,-2.8086,-2.7783,-2.7471,-2.7275,-2.7236,-2.7187,-2.7187,-2.7353,-2.7217,-2.7246,-2.7314,-2.7334,-2.7305,-2.7334,-2.7598,-2.7836,-2.7845,-2.7855,-2.8041,-2.8164,-2.8262,-2.8242,-2.8301,-2.8301,-2.8301,-2.8301,-2.8301,-2.8301,-2.8301,-2.8301,-2.8301,-2.8301,-2.8301,-2.835,-2.8418,-2.8379,-2.832,-2.8398,-2.8398,-2.8301,-2.8301,-2.8301,-2.8301,-2.8301,-2.8301,-2.8301,-2.8301,-2.8301,-2.8301,-2.8301,-2.8301,-2.8301,-2.8301,-2.8291,-2.8291,-2.8291,-2.8291,-2.8301,-2.8301,-2.8301,-2.8301,-2.8301,-2.8301,-2.8301,-2.8301,-2.8301,-2.8301,-2.8301,-2.8301,-2.8301,-2.8301,-2.8301,-2.8301,-2.8301,-2.8301,-2.8301,-2.8301,-2.8301,-2.8301,-2.8301,-2.8301,-2.8301,-2.8301,-2.8301,-2.8301,-2.8301,-2.8301,-2.8301,-2.8301,-2.8301,-2.8301,-2.8301,-2.8301,-2.8301,-2.8301,-2.8301,-2.8301,-2.8301,-2.8301,-2.8301,-2.8301,-2.8301,-2.8301,-2.8301,-2.8301,-2.8301,-2.8301,-2.8301,-2.8301,-2.8301,-2.8301,-2.8301,-2.8301,-2.8301,-2.8301,-2.8262,-2.8184,-2.8096,-2.8057,-2.7978,-2.7803,-2.7715,-2.791,-2.7754,-2.7715,-2.8018,-2.8086,-2.8125,-2.8164,-2.8174,-2.8213,-2.8223,-2.8223,-2.8242,-2.8281,-2.8301,-2.8301,-2.8301,-2.8301,-2.8301,-2.8301,-2.8301,-2.8301,-2.8301,-2.832,-2.835,-2.8379,-2.835,-2.8496,-2.8603,-2.8633,-2.8672,-2.8721,-2.8574,-2.8467,-2.8359,-2.8379,-2.833,-2.8301,-2.8301,-2.8301,-2.8301,-2.8301,-2.8301,-2.8301,-2.8301,-2.8301,-2.8301,-2.8301,-2.8301,-2.8301,-2.8301,-2.8301,-2.8301,-2.8301,-2.8301,-2.8301,-2.8301,-2.8301,-2.8301,-2.8301,-2.8301,-2.8301,-2.8301,-2.8301,-2.8301,-2.8301,-2.8301,-2.8301,-2.8301,-2.8301,-2.8301,-2.8301,-2.8301,-2.8301,-2.8301,-2.8301,-2.8301,-2.8301,-2.8301,-2.8301,-2.8301,-2.8301,-2.8301,-2.8301,-2.8301,-2.8301,-2.8301,-2.8301,-2.8301,-2.8301,-2.8301,-2.8301,-2.8301,-2.8301,-2.8301,-2.8301,-2.8301,-2.8301,-2.8301,-2.8301,-2.8301,-2.8301,-2.8301,-2.8301,-2.8301,-2.8301,-2.8301,-2.8301,-2.8301,-2.8301,-2.8301,-2.8301,-2.8301,-2.8291,-2.8105,-2.8144,-2.8184,-2.8174,-2.8096,-2.8291,-2.8301,-2.8291,-2.8291,-2.8291,-2.8291,-2.8291,-2.8291,-2.8291,-2.8301,-2.8301,-2.8301,-2.8301,-2.8301,-2.8301,-2.8301,-2.831,-2.831,-2.8301,-2.8525,-2.8633,-2.8711,-2.8877,-2.9062,-2.9141,-2.9033,-2.9111,-2.9111,-2.8818,-2.8672,-2.8564,-2.8486,-2.8486,-2.8476,-2.8457,-2.8418,-2.8301,-2.8301,-2.8301,-2.8301,-2.8301,-2.8301,-2.8301,-2.8301,-2.8301,-2.8301,-2.8301,-2.8301,-2.8301,-2.8301,-2.8301,-2.8301,-2.8301,-2.8301,-2.8301,-2.8301,-2.8301,-2.8301,-2.8301,-2.8301,-2.8301,-2.8301,-2.8301,-2.8301,-2.8301,-2.8291,-2.8193,-2.8291,-2.8301,-2.8301,-2.8301,-2.8301,-2.8301,-2.8301,-2.8301,-2.8301,-2.8301,-2.8301,-2.8301,-2.8301,-2.8301,-2.8301,-2.8301,-2.8301,-2.8301,-2.8301,-2.8301,-2.8301,-2.8301,-2.8301,-2.8301,-2.8301,-2.8301,-2.8301,-2.8301,-2.8301,-2.8301,-2.8301,-2.8301,-2.8301,-2.8301,-2.8301,-2.8301,-2.8301,-2.8301,-2.8301,-2.8301,-2.8301,-2.8301,-2.8301,-2.8291,-2.8301,-2.8301,-2.8281,-2.8281,-2.8291,-2.8301,-2.8301,-2.8301,-2.8301,-2.8301,-2.8301,-2.8301,-2.8301,-2.8301,-2.8301,-2.8301,-2.8301,-2.832,-2.835,-2.8486,-2.8447,-2.8564,-2.8701,-2.8906,-2.9062,-2.9141,-2.9365,-2.9521,-2.957,-2.956,-2.9639,-2.9629,-2.9307,-2.9092,-2.9043,-2.8955,-2.8828,-2.8789,-2.8711,-2.8564,-2.8359,-2.8301,-2.832,-2.835,-2.8389,-2.8359,-2.8369,-2.835,-2.834,-2.833,-2.833,-2.832,-2.835,-2.835,-2.832,-2.833,-2.831,-2.8301,-2.8301,-2.8301,-2.8301,-2.8301,-2.8301,-2.8301,-2.8301,-2.8301,-2.8301,-2.8301,-2.8301,-2.8184,-2.7939,-2.8301,-2.8301,-2.8301,-2.8301,-2.8301,-2.8301,-2.8301,-2.8301,-2.8344,-2.8451,-2.8344,-2.8451,-2.8504,-2.8654,-2.8601,-2.8344,-2.8291,-2.8344,-2.8344,-2.8301,-2.8301,-2.8301,-2.8301,-2.8301,-2.8301,-2.8301,-2.8301,-2.8301,-2.8301,-2.8301,-2.8301,-2.8301,-2.8301,-2.8301,-2.8301,-2.8301,-2.8301,-2.8301,-2.8301,-2.8301,-2.8301,-2.8301,-2.8301,-2.8301,-2.8301,-2.8301,-2.8301,-2.8301,-2.8301,-2.8301,-2.8301,-2.8301,-2.8301,-2.8301,-2.8301,-2.8301,-2.8301,-2.8301,-2.8301,-2.8301,-2.8301,-2.8359,-2.8506,-2.8721,-2.8848,-2.9043,-2.9307,-2.9414,-2.9502,-2.9531,-2.9609,-2.9922,-3.001,-3.0049,-3.0039,-2.998,-2.9736,-2.9551,-2.9531,-2.9404,-2.9219,-2.918,-2.9101,-2.8955,-2.876,-2.8672,-2.8701,-2.8603,-2.8603,-2.8516,-2.8476,-2.8437,-2.8408,-2.8398,-2.8457,-2.8652,-2.8623,-2.8564,-2.8467,-2.8389,-2.8359,-2.8301,-2.8301,-2.8301,-2.8301,-2.8301,-2.8301,-2.8301,-2.8301,-2.8301,-2.8301,-2.8301,-2.8301,-2.813,-2.791,-2.8291,-2.8301,-2.8301,-2.8301,-2.8301,-2.8301,-2.8301,-2.8291,-2.8698,-2.926,-2.9323,-2.9681,-3.0089,-3.0245,-2.988,-2.9365,-2.9313,-2.8857,-2.8451,-2.8301,-2.8301,-2.8301,-2.8301,-2.8301,-2.8301,-2.8301,-2.8301,-2.8301,-2.8301,-2.8301,-2.8301,-2.833,-2.8301,-2.8301,-2.8301,-2.8301,-2.831,-2.8301,-2.8301,-2.8301,-2.8301,-2.8301,-2.8301,-2.8301,-2.8301,-2.8301,-2.8301,-2.8301,-2.8301,-2.8301,-2.8301,-2.8301,-2.8301,-2.8301,-2.831,-2.831,-2.834,-2.833,-2.832,-2.8301,-2.8359,-2.8516,-2.8769,-2.9023,-2.916,-2.9346,-2.9636,-2.9834,-2.9951,-2.9971,-3.0215,-3.0498,-3.0537,-3.0518,-3.0459,-3.0332,-3.0107,-3.0,-2.9971,-2.9726,-2.9482,-2.9492,-2.9512,-2.9355,-2.9189,-2.9121,-2.9053,-2.8965,-2.8916,-2.8877,-2.8857,-2.8848,-2.8896,-2.8896,-2.8975,-2.9053,-2.8935,-2.8809,-2.875,-2.8652,-2.835,-2.831,-2.8301,-2.834,-2.8359,-2.8359,-2.831,-2.8301,-2.8301,-2.8301,-2.8301,-2.8301,-2.8301,-2.8077,-2.7725,-2.8105,-2.8242,-2.8301,-2.8301,-2.8301,-2.8301,-2.8301,-2.8301,-2.891,-2.988,-2.9932,-3.0546,-3.1216,-3.0701,-3.0442,-2.9723,-2.9408,-2.89,-2.8548,-2.8301,-2.8301,-2.8301,-2.8301,-2.8301,-2.8301,-2.8301,-2.8301,-2.8301,-2.8301,-2.8398,-2.8476,-2.8467,-2.8457,-2.8301,-2.8301,-2.835,-2.8447,-2.834,-2.8408,-2.8447,-2.8359,-2.8301,-2.8301,-2.8301,-2.8301,-2.8301,-2.8301,-2.8301,-2.8301,-2.8301,-2.8301,-2.8301,-2.8301,-2.8301,-2.833,-2.8398,-2.8476,-2.8486,-2.8476,-2.8555,-2.8789,-2.8955,-2.916,-2.9346,-2.959,-2.9814,-3.0049,-3.0273,-3.04,-3.04,-3.0635,-3.0752,-3.0742,-3.0752,-3.0713,-3.0674,-3.0518,-3.0459,-3.04,-3.0176,-3.0068,-3.0088,-3.0107,-2.9785,-2.958,-2.9365,-2.9336,-2.9336,-2.9326,-2.9365,-2.9365,-2.9385,-2.9453,-2.9541,-2.9443,-2.9355,-2.9297,-2.9189,-2.916,-2.9014,-2.8721,-2.8643,-2.8838,-2.8799,-2.8564,-2.8457,-2.8437,-2.8369,-2.8301,-2.8301,-2.8301,-2.8301,-2.8237,-2.797,-2.7305,-2.7767,-2.8125,-2.8301,-2.8301,-2.8301,-2.8344,-2.8451,-2.8451,-2.9016,-2.988,-2.9932,-3.0546,-3.1021,-3.0089,-2.9681,-2.9723,-2.9059,-2.8495,-2.8398,-2.8301,-2.8301,-2.8301,-2.8301,-2.8301,-2.8301,-2.8301,-2.8301,-2.8359,-2.8408,-2.8564,-2.8818,-2.8896,-2.8769,-2.8369,-2.832,-2.8525,-2.8789,-2.8545,-2.8672,-2.8769,-2.8633,-2.8525,-2.8516,-2.8525,-2.8555,-2.8555,-2.8555,-2.8564,-2.8555,-2.8437,-2.8447,-2.8506,-2.8418,-2.8408,-2.8447,-2.875,-2.8896,-2.8935,-2.8926,-2.9101,-2.9326,-2.9434,-2.9658,-3.0,-3.0205,-3.0303,-3.0508,-3.0732,-3.0801,-3.085,-3.0869,-3.0889,-3.0898,-3.0898,-3.0889,-3.083,-3.081,-3.0713,-3.0654,-3.0771,-3.083,-3.082,-3.0713,-3.0303,-2.998,-2.9678,-2.9619,-2.9726,-2.9824,-2.9912,-2.9941,-2.9961,-2.9961,-2.9971,-2.9766,-2.9648,-2.9609,-2.959,-2.956,-2.9502,-2.9307,-2.9307,-2.9414,-2.9209,-2.8916,-2.873,-2.8584,-2.8437,-2.8301,-2.8301,-2.8301,-2.8301,-2.8184,-2.797,-2.7266,-2.7748,-2.8115,-2.8301,-2.8301,-2.8291,-2.8708,-2.9303,-2.9355,-2.9565,-2.9828,-2.9932,-3.0546,-3.0959,-3.0856,-3.0193,-2.988,-2.9723,-2.9164,-2.8408,-2.8457,-2.8301,-2.8374,-2.8549,-2.8403,-2.8301,-2.831,-2.8633,-2.873,-2.8711,-2.8965,-2.9248,-2.9385,-2.9287,-2.918,-2.9141,-2.9303,-2.9316,-2.9228,-2.9228,-2.9316,-2.9199,-2.9101,-2.9082,-2.9127,-2.9062,-2.9053,-2.9023,-2.9023,-2.8994,-2.8867,-2.8818,-2.8935,-2.8896,-2.8828,-2.9014,-2.9336,-2.9492,-2.9658,-2.9756,-2.9668,-2.9802,-2.992,-3.0059,-3.0195,-3.0518,-3.0713,-3.083,-3.0889,-3.0898,-3.0889,-3.0889,-3.0898,-3.0898,-3.0898,-3.0898,-3.0869,-3.0869,-3.084,-3.082,-3.0889,-3.0898,-3.0898,-3.0898,-3.0586,-3.0498,-3.0254,-3.0283,-3.0391,-3.0478,-3.0566,-3.0566,-3.0566,-3.0508,-3.042,-3.0234,-3.0205,-3.0244,-3.0127,-2.999,-2.9912,-2.9834,-2.9717,-2.9697,-2.9482,-2.9268,-2.8955,-2.8652,-2.8428,-2.8301,-2.835,-2.833,-2.8301,-2.8184,-2.8023,-2.7266,-2.7748,-2.8125,-2.8301,-2.8301,-2.8301,-2.8751,-2.9365,-2.9723,-2.9932,-2.9932,-2.9922,-3.0794,-3.1564,-3.1319,-3.1513,-3.0908,-3.084,-3.0643,-2.9682,-2.9491,-2.9571,-2.9517,-2.9286,-2.9263,-2.9036,-2.9164,-2.9451,-2.9196,-2.9141,-2.9385,-2.9717,-2.9932,-3.0039,-2.9951,-2.9851,-2.9665,-2.9648,-2.9629,-2.958,-2.9658,-2.9695,-2.9531,-2.9521,-2.9521,-2.9531,-2.956,-2.958,-2.959,-2.9502,-2.9394,-2.9287,-2.9394,-2.9394,-2.9297,-2.9502,-2.9756,-2.998,-3.0283,-3.04,-3.0273,-3.0166,-3.0322,-3.042,-3.0459,-3.0703,-3.081,-3.0889,-3.0898,-3.0898,-3.0898,-3.0898,-3.0898,-3.0898,-3.0898,-3.0898,-3.0898,-3.0898,-3.0898,-3.0898,-3.0898,-3.0898,-3.0898,-3.0898,-3.0801,-3.083,-3.085,-3.0898,-3.0898,-3.0898,-3.0898,-3.0869,-3.0859,-3.0752,-3.0723,-3.0723,-3.0742,-3.0859,-3.0654,-3.0391,-3.041,-3.0342,-3.0156,-2.9971,-2.9853,-2.9609,-2.9062,-2.873,-2.8594,-2.8506,-2.8496,-2.8437,-2.833,-2.8184,-2.8077,-2.7266,-2.7757,-2.8115,-2.8344,-2.8398,-2.8601,-2.8548,-2.8495,-2.9523,-2.9984,-2.9932,-2.9974,-3.1051,-3.2275,-3.0949,-3.1103,-3.2324,-3.2229,-3.2112,-3.193,-3.1336,-3.13,-3.1285,-3.1285,-3.0812,-3.0508,-3.0594,-3.069,-2.9895,-2.9717,-2.9932,-3.0205,-3.0518,-3.0615,-3.0449,-3.0205,-3.001,-3.0088,-3.0029,-3.0039,-3.0146,-2.9951,-2.9883,-2.9863,-2.9853,-2.9844,-2.9834,-2.9814,-2.9775,-2.9717,-2.9639,-2.9685,-2.9685,-2.9609,-2.96,-2.9746,-3.0059,-3.042,-3.0693,-3.0771,-3.0781,-3.0644,-3.0762,-3.0859,-3.0859,-3.085,-3.0879,-3.0898,-3.0898,-3.0898,-3.0898,-3.0898,-3.0898,-3.0898,-3.0898,-3.0898,-3.0898,-3.0898,-3.0898,-3.0898,-3.0898,-3.0898,-3.0898,-3.0898,-3.0898,-3.0898,-3.0898,-3.0898,-3.0898,-3.0898,-3.0898,-3.0889,-3.0879,-3.0889,-3.0898,-3.0898,-3.0898,-3.0889,-3.0889,-3.0713,-3.0771,-3.0762,-3.0586,-3.041,-3.0303,-2.999,-2.9502,-2.9131,-2.8848,-2.8799,-2.8848,-2.8564,-2.8447,-2.832,-2.813,-2.7266,-2.7705,-2.8115,-2.8751,-2.9513,-3.0297,-2.9775,-2.8654,-3.0193,-3.0701,-2.9922,-3.0753,-3.1524,-3.1931,-3.137,-3.1626,-3.2006,-3.227,-3.2375,-3.245,-3.2801,-3.2706,-3.2728,-3.2717,-3.2448,-3.2351,-3.235,-3.2293,-3.1426,-3.0927,-3.0641,-3.0732,-3.0985,-3.1054,-3.0859,-3.0635,-3.0605,-3.0566,-3.0449,-3.0508,-3.0586,-3.0469,-3.04,-3.0391,-3.0391,-3.0381,-3.0391,-3.04,-3.041,-3.0439,-3.0166,-3.0127,-3.0498,-3.0244,-3.0098,-3.0488,-3.0654,-3.0771,-3.0869,-3.0898,-3.0898,-3.0898,-3.0898,-3.0898,-3.0889,-3.0898,-3.0898,-3.0898,-3.0898,-3.0898,-3.0898,-3.0898,-3.0898,-3.0898,-3.0898,-3.0898,-3.0898,-3.0898,-3.0898,-3.0898,-3.0898,-3.0898,-3.0898,-3.0898,-3.0898,-3.0898,-3.0898,-3.0898,-3.0898,-3.0898,-3.0898,-3.0898,-3.0898,-3.0898,-3.0898,-3.0898,-3.0898,-3.0898,-3.0898,-3.0898,-3.0859,-3.085,-3.0879,-3.0742,-3.0459,-3.0244,-2.999,-2.9639,-2.9277,-2.9297,-2.9307,-2.8896,-2.8574,-2.8535,-2.8315,-2.7266,-2.781,-2.8625,-2.9576,-3.0598,-3.1319,-3.0753,-2.9984,-3.1062,-3.1165,-3.0691,-3.1268,-3.183,-3.2286,-3.2286,-3.2549,-3.3069,-3.397,-3.4251,-3.436,-3.4196,-3.4361,-3.4406,-3.4307,-3.4019,-3.4006,-3.3975,-3.3967,-3.3024,-3.256,-3.2275,-3.1652,-3.1624,-3.1286,-3.1034,-3.083,-3.0859,-3.0859,-3.0859,-3.0898,-3.0898,-3.0898,-3.0898,-3.0898,-3.0898,-3.0898,-3.0898,-3.0898,-3.0898,-3.0889,-3.0547,-3.0586,-3.085,-3.0615,-3.0518,-3.082,-3.085,-3.085,-3.0898,-3.0898,-3.0898,-3.0898,-3.0898,-3.0898,-3.0898,-3.0898,-3.0898,-3.0898,-3.0898,-3.0898,-3.0898,-3.0898,-3.0898,-3.0898,-3.0898,-3.0898,-3.0898,-3.0898,-3.0898,-3.0898,-3.0898,-3.0898,-3.0898,-3.0898,-3.0898,-3.0898,-3.0898,-3.0898,-3.0898,-3.0898,-3.0898,-3.0898,-3.0898,-3.0898,-3.0898,-3.0898,-3.0898,-3.0898,-3.0898,-3.0898,-3.0898,-3.0898,-3.0898,-3.0723,-3.0488,-3.0312,-3.0176,-3.0019,-2.9775,-2.9775,-2.9726,-2.9482,-2.9199,-2.9043,-2.8746,-2.742,-2.8009,-2.9528,-3.0794,-3.1677,-3.1931,-3.1931,-3.1891,-3.2033,-3.1779,-3.179,-3.188,-3.2549,-3.325,-3.3362,-3.3758,-3.441,-3.5272,-3.5683,-3.6357,-3.6174,-3.6129,-3.6187,-3.6251,-3.5771,-3.544,-3.5376,-3.5523,-3.4748,-3.4011,-3.3346,-3.2856,-3.2581,-3.2133,-3.145,-3.1005,-3.0947,-3.0898,-3.0898,-3.0898,-3.0898,-3.0898,-3.0898,-3.0898,-3.0898,-3.0898,-3.0898,-3.0898,-3.0898,-3.0889,-3.0879,-3.0859,-3.0859,-3.085,-3.0869,-3.0869,-3.0889,-3.0898,-3.0898,-3.0898,-3.0898,-3.0898,-3.0898,-3.0898,-3.0898,-3.0898,-3.0898,-3.0898,-3.0898,-3.0898,-3.0898,-3.0898,-3.0898,-3.0898,-3.0898,-3.0898,-3.0898,-3.0898,-3.0898,-3.0898,-3.0898,-3.0898,-3.0898,-3.0898,-3.0898,-3.0898,-3.0898,-3.0898,-3.0898,-3.0898,-3.0898,-3.0898,-3.0898,-3.0898,-3.0898,-3.0898,-3.0898,-3.0898,-3.0898,-3.0898,-3.0898,-3.0898,-3.0898,-3.0762,-3.0625,-3.0459,-3.0312,-3.0244,-3.0195,-3.0078,-3.0049,-3.0029,-2.9863,-2.9724,-2.9145,-2.8502,-2.9147,-3.1418,-3.2588,-3.2901,-3.3709,-3.3967,-3.4017,-3.4017,-3.3499,-3.3039,-3.361,-3.4066,-3.4213,-3.4262,-3.4568,-3.4917,-3.5869,-3.6314,-3.6684,-3.7008,-3.7311,-3.7495,-3.7322,-3.7215,-3.7322,-3.7269,-3.6827,-3.5729,-3.4947,-3.438,-3.3899,-3.3459,-3.2742,-3.2227,-3.1672,-3.1122,-3.118,-3.0947,-3.0889,-3.0898,-3.0898,-3.0898,-3.0898,-3.0898,-3.0898,-3.0898,-3.0898,-3.0898,-3.0889,-3.0889,-3.0889,-3.0889,-3.0898,-3.0898,-3.0898,-3.0898,-3.0898,-3.0898,-3.0898,-3.0898,-3.0898,-3.0898,-3.0898,-3.0898,-3.0898,-3.0898,-3.0898,-3.0898,-3.0898,-3.0898,-3.0898,-3.0898,-3.0898,-3.0898,-3.0898,-3.0898,-3.0898,-3.0898,-3.0898,-3.0898,-3.0898,-3.0898,-3.0898,-3.0898,-3.0898,-3.0898,-3.0898,-3.0898,-3.0898,-3.0898,-3.0898,-3.0898,-3.0898,-3.0898,-3.0898,-3.0898,-3.0898,-3.0898,-3.0898,-3.0898,-3.0898,-3.0889,-3.0879,-3.0791,-3.0644,-3.0605,-3.0703,-3.0625,-3.0449,-3.041,-3.042,-3.0498,-3.0381,-2.9679,-2.918,-2.9917,-3.2195,-3.3449,-3.3967,-3.458,-3.4775,-3.4775,-3.4775,-3.447,-3.4017,-3.4519,-3.4775,-3.4775,-3.4775,-3.4799,-3.4991,-3.593,-3.6302,-3.6723,-3.7385,-3.7789,-3.7974,-3.7974,-3.7868,-3.7974,-3.7933,-3.7388,-3.6286,-3.6383,-3.5991,-3.5168,-3.4336,-3.3786,-3.3346,-3.2342,-3.1566,-3.173,-3.117,-3.0947,-3.0898,-3.0898,-3.0898,-3.0898,-3.0898,-3.0898,-3.0898,-3.0898,-3.0898,-3.0898,-3.0898,-3.0898,-3.0898,-3.0898,-3.0898,-3.0898,-3.0898,-3.0898,-3.0898,-3.0898,-3.0898,-3.0898,-3.0898,-3.0898,-3.0898,-3.0898,-3.0898,-3.0898,-3.0898,-3.0898,-3.0898,-3.0898,-3.0898,-3.0898,-3.0898,-3.0898,-3.0898,-3.0898,-3.0898,-3.0898,-3.0898,-3.0898,-3.0898,-3.0898,-3.0898,-3.0898,-3.0898,-3.0898,-3.0898,-3.0898,-3.0898,-3.0898,-3.0898,-3.0898,-3.0898,-3.0898,-3.0898,-3.0898,-3.0898,-3.0898,-3.0898,-3.0898,-3.0889,-3.0889,-3.0879,-3.0859,-3.0869,-3.0898,-3.0898,-3.0723,-3.0752,-3.082,-3.0898,-3.0889,-3.021,-2.9943,-3.0807,-3.2662,-3.3918,-3.4726,-3.4775,-3.4775,-3.4775,-3.4775,-3.4775,-3.4726,-3.4726,-3.4775,-3.4775,-3.4775,-3.4835,-3.5171,-3.6014,-3.6338,-3.6807,-3.7553,-3.7866,-3.7974,-3.7974,-3.7974,-3.7868,-3.7655,-3.7054,-3.6231,-3.6329,-3.6208,-3.6088,-3.5706,-3.5223,-3.428,-3.3119,-3.2133,-3.1787,-3.1402,-3.1005,-3.0898,-3.0898,-3.0898,-3.0898,-3.0898,-3.0898,-3.0898,-3.0898,-3.0898,-3.0898,-3.0898,-3.0898,-3.0898,-3.0898,-3.0898,-3.0898,-3.0898,-3.0898,-3.0898,-3.0898,-3.0898,-3.0898,-3.0898,-3.0898,-3.0898,-3.0898,-3.0898,-3.0898,-3.0898,-3.0898,-3.0898,-3.0898,-3.0898,-3.0898,-3.0898,-3.0898,-3.0898,-3.0898,-3.0898,-3.0898,-3.0898,-3.0898,-3.0898,-3.0898,-3.0898,-3.0898,-3.0898,-3.0898,-3.0898,-3.0898,-3.0898,-3.0898,-3.0898,-3.0898,-3.0898,-3.0898,-3.0898,-3.0898,-3.0898,-3.0898,-3.0898,-3.0898,-3.0898,-3.0898,-3.0898,-3.0898,-3.0898,-3.0898,-3.0898,-3.0898,-3.0898,-3.0898,-3.0898,-3.083,-3.0528,-3.1679,-3.335,-3.4171,-3.4628,-3.4775,-3.4775,-3.4775,-3.4775,-3.4775,-3.4775,-3.4775,-3.4775,-3.4775,-3.4775,-3.4775,-3.4931,-3.5461,-3.6158,-3.6687,-3.7144,-3.7673,-3.789,-3.7974,-3.7974,-3.7974,-3.7696,-3.7215,-3.6514,-3.6231,-3.5772,-3.5608,-3.6111,-3.4112,-3.3843,-3.4168,-3.2949,-3.1624,-3.1508,-3.1344,-3.0898,-3.0898,-3.0898,-3.0898,-3.0898,-3.0898,-3.0898,-3.0898,-3.0898,-3.0898,-3.0898,-3.0898,-3.0898,-3.0898,-3.0898,-3.0898,-3.0898,-3.0898,-3.0898,-3.0898,-3.0898,-3.0898,-3.0898,-3.0898,-3.0898,-3.0898,-3.0898,-3.0898,-3.0898,-3.0898,-3.0898,-3.0898,-3.0898,-3.0898,-3.0898,-3.0898,-3.0898,-3.0898,-3.0898,-3.0898,-3.0898,-3.0898,-3.0898,-3.0898,-3.0898,-3.0898,-3.0898,-3.0898,-3.0898,-3.0898,-3.0898,-3.0898,-3.0898,-3.0898,-3.0898,-3.0898,-3.0898,-3.0898,-3.0898,-3.0898,-3.0898,-3.0898,-3.0898,-3.0898,-3.0898,-3.0898,-3.0898,-3.0898,-3.0898,-3.0898,-3.0898,-3.0898,-3.0898,-3.0898,-3.083,-3.0528]},{"header":{"parameterUnit":"m.s-1","parameterCategory":1,"la1":31.0,"la2":29.5877,"lo1":-88.7671,"lo2":-86.6584,"dy":0.0162,"dx":0.0185,"nx":115,"ny":88,"refTime":"2026-03-03T12:00:00:Z","depth":0,"parameterNumber":3,"parameterNumberName":"V-component_of_WINDS"},"data":[0.0,0.0,0.0,0.0,0.0,0.0,0.0,0.0,0.0,0.0,0.0,0.0,0.0,0.0,0.0,0.0,0.0,0.0,0.0,0.0,0.0,0.0,0.0,0.0,0.0,0.0,0.0,0.0,0.0,0.0,0.0,0.0,0.0,0.0,0.0,0.0,0.0,0.0,0.0,0.0,0.0,0.0,0.0,0.0,0.0,0.0,0.0,0.0,0.0,0.0,0.0,0.0,0.0,0.0,0.0,0.0,0.0,0.0,0.0,0.0,0.0,0.0,0.0,0.0,0.0,0.0,0.0,0.0,0.0,0.0,0.0,0.0,0.0,0.0,0.0,0.0,0.0,0.0,0.0,0.0,0.0,0.0,0.0,0.0,0.0,0.0,0.0,0.0,0.0,0.0,0.0,0.0,0.0,0.0,0.0,0.0,0.0,0.0,0.0,0.0,0.0,0.0,0.0,0.0,0.0,0.0,0.0,0.0,0.0,0.0,0.0,0.0,0.0,0.0,0.0,0.0,0.0,0.0,0.0,0.0,0.0,0.0,0.0,0.0,0.0,0.0,0.0,0.0,0.0,0.0,0.0,0.0,0.0,0.0,0.0,0.0,0.0,0.0,0.0,0.0,0.0,0.0,0.0,0.0,0.0,0.0,0.0,0.0,0.0,0.0,0.0,0.0,0.0,0.0,0.0,0.0,0.0,0.0,0.0,0.0,0.0,0.0,0.0,0.0,0.0,0.0,0.0,0.0,0.0,0.0,0.0,0.0,0.0,0.0,0.0,0.0,0.0,0.0,0.0,0.0,0.0,0.0,0.0,0.0,0.0,0.0,0.0,0.0,0.0,0.0,0.0,0.0,0.0,0.0,0.0,0.0,0.0,0.0,0.0,0.0,0.0,0.0,0.0,0.0,0.0,0.0,0.0,0.0,0.0,0.0,0.0,0.0,0.0,0.0,0.0,0.0,0.0,0.0,0.0,0.0,0.0,0.0,0.0,0.0,0.0,0.0,0.0,0.0,0.0,0.0,0.0,0.0,0.0,0.0,0.0,0.0,0.0,0.0,0.0,0.0,0.0,0.0,0.0,0.0,0.0,0.0,0.0,0.0,0.0,0.0,0.0,0.0,0.0,0.0,0.0,0.0,0.0,0.0,0.0,0.0,0.0,0.0,0.0,0.0,0.0,0.0,0.0,0.0,0.0,0.0,0.0,0.0,0.0,0.0,0.0,0.0,0.0,0.0,0.0,0.0,0.0,0.0,0.0,0.0,0.0,0.0,0.0,0.0,0.0,0.0,0.0,0.0,0.0,0.0,0.0,0.0,0.0,0.0,0.0,0.0,0.0,0.0,0.0,0.0,0.0,0.0,0.0,0.0,0.0,0.0,0.0,0.0,0.0,0.0,0.0,0.0,0.0,0.0,0.0,0.0,0.0,0.0,0.0,0.0,0.0,0.0,0.0,0.0,0.0,0.0,0.0,0.0,0.0,0.0,0.0,0.0,0.0,0.0,0.0,0.0,0.0,0.0,0.0,0.0,0.0,0.0,0.0,0.0,0.0,0.0,0.0,0.0,0.0,0.0,0.0,0.0,0.0,0.0,0.0,0.0,0.0,0.0,0.0,0.0,0.0,0.0,0.0,0.0,0.0,0.0,0.0,0.0,0.0,0.0,0.0,0.0,0.0,0.0,0.0,0.0,0.0,0.0,0.0,0.0,0.0,0.0,0.0,0.0,0.0,0.0,0.0,0.0,0.0,0.0,0.0,0.0,0.0,0.0,0.0,0.0,0.0,0.0,0.0,0.0,0.0,0.0,0.0,0.0,0.0,0.0,0.0,0.0,0.0,0.0,0.0,0.0,0.0,0.0,0.0,0.0,0.0,0.0,0.0,0.0,0.0,0.0,0.0,0.0,0.0,0.0,0.0,0.0,0.0,0.0,0.0,0.0,0.0,0.0,0.0,0.0,0.0,0.0,0.0,0.0,0.0,0.0,0.0,0.0,0.0,0.0,0.0,0.0,0.0,0.0,0.0,0.0,0.0,0.0,0.0,0.0,0.0,0.0,0.0,0.0,0.0,0.0,0.0,0.0,0.0,0.0,0.0,0.0,0.0,0.0,0.0,0.0,0.0,0.0,0.0,0.0,0.0,0.0,0.0,0.0,0.0,0.0,0.0,0.0,0.0,0.0,0.0,0.0,0.0,0.0,0.0,0.0,0.0,0.0,0.0,0.0,0.0,0.0,0.0,0.0,0.0,0.0,0.0,0.0,0.0,0.0,0.0,0.0,0.0,0.0,0.0,0.0,0.0,0.0,0.0,0.0,0.0,0.0,0.0,0.0,0.0,0.0,0.0,0.0,0.0,0.0,0.0,0.0,0.0,0.0,0.0,0.0,0.0,0.0,0.0,0.0,0.0,0.0,0.0,0.0,0.0,0.0,0.0,0.0,0.0,0.0,0.0,0.0,0.0,0.0,0.0,0.0,0.0,0.0,0.0,0.0,0.0,0.0,0.0,0.0,0.0,0.0,0.0,0.0,0.0,0.0,0.0,0.0,0.0,0.0,0.0,0.0,0.0,0.0,0.0,0.0,0.0,0.0,0.0,0.0,0.0,0.0,0.0,0.0,0.0,0.0,0.0,0.0,0.0,0.0,0.0,0.0,0.0,0.0,0.0,0.0,0.0,0.0,0.0,0.0,0.0,0.0,0.0,0.0,0.0,0.0,0.0,0.0,0.0,0.0,0.0,0.0,0.0,0.0,0.0,0.0,0.0,0.0,0.0,0.0,0.0,0.0,0.0,0.0,0.0,0.0,0.0,0.0,0.0,0.0,0.0,0.0,0.0,0.0,0.0,0.0,0.0,0.0,0.0,0.0,0.0,0.0,0.0,0.0,0.0,0.0,0.0,0.0,0.0,0.0,0.0,0.0,0.0,0.0,0.0,0.0,0.0,0.0,0.0,0.0,0.0,0.0,0.0,0.0,0.0,0.0,0.0,0.0,0.0,0.0,0.0,0.0,0.0,0.0,0.0,0.0,0.0,0.0,0.0,0.0,0.0,0.0,0.0,0.0,0.0,0.0,0.0,0.0,0.0,0.0,0.0,0.0,0.0,0.0,0.0,0.0,0.0,0.0,0.0,0.0,0.0,0.0,0.0,0.0,0.0,0.0,0.0,0.0,0.0,0.0,0.0,0.0,0.0,0.0,0.0,0.0,0.0,0.0,0.0,0.0,0.0,0.0,0.0,0.0,0.0,0.0,0.0,0.0,0.0,0.0,0.0,0.0,0.0,0.0,0.0,0.0,0.0,0.0,0.0,0.0,0.0,0.0,0.0,0.0,0.0,0.0,0.0,0.0,0.0,0.0,0.0,0.0,0.0,0.0,0.0,0.0,0.0,0.0,0.0,0.0,0.0,0.0,0.0,0.0,0.0,0.0,0.0,0.0,0.0,0.0,0.0,0.0,0.0,0.0,0.0,0.0,0.0,0.0,0.0,0.0,0.0,0.0,0.0,0.0,0.0,0.0,0.0,0.0,0.0,0.0,0.0,0.0,0.0,0.0,0.0,0.0,0.0,0.0,0.0,0.0,0.0,0.0,0.0,0.0,0.0,0.0,0.0,0.0,0.0,0.0,0.0,0.0,0.0,0.0,0.0,0.0,0.0,0.0,0.0,0.0,0.0,0.0,0.0,0.0,0.0,0.0,0.0,0.0,0.0,0.0,0.0,0.0,0.0,0.0,0.0,0.0,0.0,0.0,0.0,0.0,0.0,0.0,0.0,0.0,0.0,0.0,0.0,0.0,0.0,0.0,0.0,0.0,0.0,0.0,0.0,0.0,0.0,0.0,0.0,0.0,0.0,0.0,0.0,0.0,0.0,0.0,0.0,0.0,0.0,0.0,0.0,0.0,0.0,0.0,0.0,0.0,0.0,0.0,0.0,0.0,0.0,0.0,0.0,0.0,0.0,0.0,0.0,0.0,0.0,0.0,0.0,0.0,0.0,0.0,0.0,0.0,0.0,0.0,0.0,0.0,0.0,0.0,0.0,0.0,0.0,0.0,0.0,0.0,0.0,0.0,0.0,0.0,0.0,0.0,0.0,0.0,0.0,0.0,0.0,0.0,0.0,0.0,0.0,0.0,0.0,0.0,0.0,0.0,0.0,0.0,0.0,0.0,0.0,0.0,0.0,0.0,0.0,0.0,0.0,0.0,0.0,0.0,0.0,0.0,0.0,0.0,0.0,0.0,0.0,0.0,0.0,0.0,0.0,0.0,0.0,0.0,0.0,0.0,0.0,0.0,0.0,0.0,1.4331,0.0,0.0,0.0,0.0,0.0,0.0,0.0,0.0,0.0,0.0,0.0,0.0,0.0,0.0,0.0,0.0,0.0,0.0,0.0,0.0,0.0,0.0,0.0,0.0,0.0,0.0,0.0,0.0,0.0,0.0,0.0,0.0,0.0,0.0,0.0,0.0,0.0,0.0,0.0,0.0,0.0,0.0,0.0,0.0,0.0,0.0,0.0,0.0,0.0,0.0,0.0,0.0,0.0,0.0,0.0,0.0,0.0,0.0,0.0,0.0,0.0,0.0,0.0,0.0,0.0,0.0,0.0,0.0,0.0,0.0,0.0,0.0,0.0,0.0,0.0,0.0,0.0,0.0,0.0,0.0,0.0,0.0,0.0,0.0,0.0,0.0,0.0,0.0,0.0,0.0,0.0,0.0,0.0,0.0,0.0,0.0,0.0,0.0,0.0,0.0,0.0,0.0,0.0,0.0,0.0,0.0,0.0,0.0,0.0,0.0,1.5342,1.444,1.4854,1.4875,1.4429,0.0,0.0,0.0,0.0,0.0,0.0,0.0,0.0,0.0,0.0,0.0,0.0,0.0,0.0,0.0,0.0,0.0,0.0,0.0,0.0,0.0,0.0,0.0,0.0,0.0,0.0,0.0,0.0,0.0,0.0,0.0,0.0,0.0,0.0,0.0,0.0,0.0,0.0,0.0,0.0,0.0,0.0,0.0,0.0,0.0,0.0,0.0,0.0,0.0,0.0,0.0,0.0,0.0,0.0,0.0,0.0,0.0,0.0,0.0,0.0,0.0,0.0,0.0,0.0,0.0,0.0,0.0,0.0,0.0,0.0,0.0,0.0,0.0,0.0,0.0,0.0,0.0,0.0,0.0,0.0,0.0,0.0,0.0,0.0,0.0,0.0,0.0,0.0,0.0,0.0,0.0,0.0,0.0,0.0,0.0,0.0,0.0,0.0,0.0,0.0,0.0,0.0,0.0,0.0,0.0,0.0,0.0,0.0,0.0,0.0,0.0,0.0,1.5017,1.5039,1.4593,0.0,0.0,0.0,0.0,0.0,0.0,0.0,0.0,0.0,0.0,0.0,0.0,0.0,0.0,0.0,0.0,0.0,0.0,0.0,0.0,0.0,0.0,0.0,0.0,0.0,0.0,0.0,0.0,0.0,0.0,0.0,0.0,0.0,0.0,0.0,0.0,0.0,0.0,0.0,0.0,0.0,0.0,0.0,0.0,0.0,0.0,0.0,0.0,0.0,0.0,0.0,0.0,0.0,0.0,0.0,0.0,0.0,0.0,0.0,0.0,0.0,0.0,0.0,0.0,0.0,0.0,0.0,0.0,0.0,0.0,0.0,0.0,0.0,0.0,0.0,0.0,0.0,0.0,0.0,0.0,0.0,0.0,0.0,0.0,0.0,0.0,0.0,0.0,0.0,0.0,0.0,0.0,0.0,0.0,0.0,0.0,0.0,0.0,0.0,0.0,0.0,0.0,0.0,0.0,0.0,0.0,0.0,0.0,0.0,0.0,1.5127,1.505,1.5473,0.0,1.5083,0.0,0.0,0.0,0.0,0.0,0.0,0.0,0.0,0.0,0.0,0.0,0.0,0.0,0.0,0.0,0.0,0.0,0.0,0.0,0.0,0.0,0.0,0.0,0.0,0.0,0.0,0.0,0.0,0.0,0.0,0.0,0.0,0.0,0.0,0.0,0.0,0.0,0.0,0.0,0.0,0.0,0.0,0.0,0.0,0.0,0.0,0.0,0.0,0.0,0.0,0.0,0.0,0.0,0.0,0.0,0.0,0.0,0.0,0.0,0.0,0.0,0.0,0.0,0.0,0.0,0.0,0.0,0.0,0.0,0.0,0.0,0.0,0.0,0.0,0.0,0.0,0.0,0.0,0.0,0.0,0.0,0.0,0.0,0.0,0.0,0.0,0.0,0.0,0.0,0.0,0.0,0.0,0.0,0.0,0.0,0.0,0.0,0.0,0.0,0.0,0.0,0.0,0.0,0.0,0.0,0.0,0.0,0.0,0.0,0.0,1.5375,1.5116,1.5066,1.52,0.0,0.0,0.0,0.0,0.0,0.0,0.0,0.0,0.0,0.0,0.0,0.0,0.0,0.0,0.0,0.0,0.0,0.0,0.0,0.0,0.0,0.0,0.0,0.0,0.0,0.0,0.0,0.0,0.0,0.0,0.0,0.0,0.0,0.0,0.0,0.0,0.0,0.0,0.0,0.0,0.0,0.0,0.0,0.0,0.0,0.0,0.0,0.0,0.0,0.0,0.0,0.0,0.0,0.0,0.0,0.0,0.0,0.0,0.0,0.0,0.0,0.0,0.0,0.0,0.0,0.0,0.0,0.0,0.0,0.0,0.0,0.0,0.0,0.0,0.0,0.0,0.0,0.0,0.0,0.0,0.0,0.0,0.0,0.0,0.0,0.0,0.0,0.0,0.0,0.0,0.0,0.0,0.0,0.0,0.0,0.0,0.0,0.0,0.0,0.0,0.0,0.0,0.0,0.0,0.0,0.0,0.0,0.0,0.0,0.0,1.532,0.0,1.534,1.5073,1.5175,1.5759,0.0,0.0,0.0,0.0,0.0,0.0,0.0,0.0,0.0,0.0,0.0,0.0,0.0,0.0,0.0,0.0,0.0,0.0,0.0,0.0,0.0,0.0,0.0,0.0,0.0,0.0,0.0,0.0,0.0,0.0,0.0,0.0,0.0,0.0,0.0,0.0,0.0,0.0,0.0,0.0,0.0,0.0,0.0,0.0,0.0,0.0,0.0,0.0,0.0,0.0,0.0,0.0,0.0,0.0,0.0,0.0,0.0,0.0,0.0,0.0,0.0,0.0,0.0,0.0,0.0,0.0,0.0,0.0,0.0,0.0,0.0,0.0,0.0,0.0,0.0,0.0,0.0,0.0,0.0,0.0,0.0,0.0,0.0,0.0,0.0,0.0,0.0,0.0,0.0,0.0,0.0,0.0,0.0,0.0,0.0,0.0,0.0,0.0,0.0,0.0,0.0,0.0,0.0,0.0,0.0,0.0,0.0,0.0,0.0,1.5331,1.5395,1.5963,1.5927,1.5817,0.0,0.0,0.0,0.0,0.0,0.0,0.0,0.0,0.0,0.0,0.0,0.0,0.0,0.0,0.0,0.0,0.0,0.0,0.0,0.0,0.0,0.0,0.0,0.0,0.0,0.0,0.0,0.0,0.0,0.0,0.0,0.0,0.0,0.0,0.0,0.0,0.0,0.0,0.0,0.0,0.0,0.0,0.0,0.0,0.0,0.0,0.0,0.0,0.0,0.0,0.0,0.0,0.0,0.0,0.0,0.0,0.0,0.0,0.0,0.0,0.0,0.0,0.0,0.0,0.0,0.0,0.0,0.0,0.0,0.0,0.0,0.0,0.0,0.0,0.0,0.0,0.0,0.0,0.0,0.0,0.0,0.0,0.0,0.0,0.0,0.0,0.0,0.0,0.0,0.0,0.0,0.0,0.0,0.0,0.0,0.0,0.0,0.0,0.0,0.0,0.0,0.0,0.0,0.0,0.0,0.0,0.0,0.0,0.0,1.4886,1.5198,1.5937,1.7051,1.6042,1.5782,0.0,0.0,0.0,0.0,0.0,0.0,0.0,0.0,0.0,0.0,0.0,0.0,0.0,0.0,0.0,0.0,0.0,0.0,0.0,0.0,0.0,0.0,0.0,0.0,0.0,0.0,0.0,0.0,0.0,0.0,0.0,0.0,0.0,0.0,0.0,0.0,0.0,0.0,0.0,0.0,0.0,0.0,0.0,0.0,0.0,0.0,0.0,0.0,0.0,0.0,0.0,0.0,0.0,0.0,0.0,0.0,0.0,0.0,0.0,0.0,0.0,0.0,0.0,0.0,0.0,0.0,0.0,0.0,0.0,0.0,0.0,0.0,0.0,0.0,0.0,0.0,0.0,0.0,0.0,0.0,0.0,0.0,0.0,0.0,0.0,0.0,0.0,0.0,0.0,0.0,0.0,0.0,0.0,0.0,0.0,0.0,0.0,0.0,0.0,0.0,0.0,0.0,0.0,0.0,0.0,0.0,0.0,0.0,0.0,1.4778,0.0,1.6482,0.0,1.6217,1.5858,0.0,0.0,0.0,0.0,0.0,0.0,0.0,0.0,0.0,0.0,0.0,0.0,0.0,0.0,0.0,0.0,0.0,0.0,0.0,0.0,0.0,0.0,0.0,0.0,0.0,0.0,0.0,0.0,0.0,0.0,0.0,0.0,0.0,0.0,0.0,0.0,0.0,0.0,0.0,0.0,0.0,0.0,0.0,0.0,0.0,0.0,0.0,0.0,0.0,0.0,0.0,0.0,0.0,0.0,0.0,0.0,0.0,0.0,0.0,0.0,0.0,0.0,0.0,0.0,0.0,0.0,0.0,0.0,0.0,0.0,0.0,0.0,0.0,0.0,0.0,0.0,0.0,0.0,0.0,0.0,0.0,0.0,0.0,0.0,0.0,0.0,0.0,0.0,0.0,0.0,0.0,0.0,0.0,0.0,0.0,0.0,0.0,0.0,0.0,0.0,0.0,0.0,0.0,0.0,0.0,0.0,0.0,0.0,1.4359,1.5484,1.6717,1.6952,1.6101,1.652,1.6126,0.0,0.0,0.0,0.0,0.0,0.0,0.0,0.0,0.0,0.0,0.0,0.0,0.0,0.0,0.0,0.0,0.0,0.0,0.0,0.0,0.0,0.0,0.0,0.0,0.0,0.0,0.0,0.0,0.0,0.0,0.0,0.0,0.0,0.0,0.0,0.0,0.0,0.0,0.0,0.0,0.0,0.0,0.0,0.0,0.0,0.0,0.0,0.0,0.0,0.0,0.0,0.0,0.0,0.0,0.0,0.0,0.0,0.0,0.0,0.0,0.0,0.0,0.0,0.0,0.0,0.0,0.0,0.0,0.0,0.0,0.0,0.0,0.0,0.0,0.0,0.0,0.0,0.0,0.0,0.0,0.0,0.0,0.0,0.0,0.0,0.0,0.0,0.0,0.0,0.0,0.0,0.0,0.0,0.0,0.0,0.0,0.0,0.0,0.0,0.0,0.0,0.0,0.0,0.0,0.0,0.0,0.0,0.0,0.0,1.6091,1.6803,1.7492,1.8015,1.706,1.6609,0.0,0.0,0.0,0.0,0.0,0.0,0.0,0.0,0.0,0.0,0.0,0.0,0.0,0.0,0.0,0.0,0.0,0.0,0.0,0.0,0.0,0.0,0.0,0.0,0.0,0.0,0.0,0.0,0.0,0.0,0.0,0.0,0.0,0.0,0.0,0.0,0.0,0.0,0.0,0.0,0.0,0.0,0.0,0.0,0.0,0.0,0.0,0.0,0.0,0.0,0.0,0.0,0.0,0.0,0.0,0.0,0.0,0.0,0.0,0.0,0.0,0.0,0.0,0.0,0.0,0.0,0.0,0.0,0.0,0.0,0.0,0.0,0.0,0.0,0.0,0.0,0.0,0.0,0.0,0.0,0.0,0.0,0.0,0.0,0.0,0.0,0.0,0.0,0.0,0.0,0.0,0.0,0.0,0.0,0.0,0.0,0.0,0.0,0.0,0.0,0.0,0.0,0.0,0.0,0.0,0.0,0.0,0.0,0.0,1.7824,1.8325,1.878,1.9191,1.7983,1.7303,1.7267,0.0,0.0,0.0,0.0,0.0,0.0,0.0,0.0,0.0,0.0,0.0,0.0,0.0,0.0,0.0,0.0,0.0,0.0,0.0,0.0,0.0,0.0,0.0,0.0,0.0,0.0,0.0,0.0,0.0,0.0,0.0,0.0,0.0,0.0,0.0,0.0,0.0,0.0,0.0,0.0,0.0,0.0,0.0,0.0,0.0,0.0,0.0,0.0,0.0,0.0,0.0,0.0,0.0,0.0,0.0,0.0,0.0,0.0,0.0,0.0,0.0,0.0,0.0,0.0,0.0,0.0,0.0,0.0,0.0,0.0,0.0,0.0,0.0,0.0,0.0,0.0,0.0,0.0,0.0,0.0,0.0,0.0,0.0,0.0,0.0,0.0,0.0,0.0,0.0,0.0,0.0,0.0,0.0,0.0,0.0,0.0,0.0,0.0,0.0,0.0,0.0,0.0,0.0,0.0,0.0,0.0,0.0,0.0,2.0411,2.0965,2.0746,1.9679,1.9169,1.8183,0.0,0.0,0.0,0.0,0.0,0.0,0.0,0.0,0.0,0.0,0.0,0.0,0.0,0.0,0.0,0.0,0.0,0.0,0.0,0.0,0.0,0.0,0.0,0.0,0.0,0.0,0.0,0.0,0.0,0.0,0.0,0.0,0.0,0.0,0.0,0.0,0.0,0.0,0.0,0.0,0.0,0.0,0.0,0.0,0.0,0.0,0.0,0.0,0.0,0.0,0.0,0.0,0.0,0.0,0.0,0.0,0.0,0.0,0.0,0.0,0.0,0.0,0.0,0.0,0.0,0.0,0.0,0.0,0.0,0.0,0.0,0.0,0.0,0.0,0.0,0.0,0.0,0.0,0.0,0.0,0.0,0.0,0.0,0.0,0.0,0.0,0.0,0.0,0.0,0.0,0.0,0.0,0.0,0.0,0.0,0.0,0.0,0.0,0.0,0.0,0.0,0.0,0.0,0.0,0.0,0.0,0.0,0.0,0.0,2.2036,2.2871,2.2657,2.1298,1.9965,1.8926,0.0,0.0,0.0,0.0,0.0,0.0,0.0,0.0,0.0,0.0,0.0,0.0,0.0,0.0,0.0,0.0,0.0,0.0,0.0,0.0,0.0,0.0,0.0,0.0,0.0,0.0,0.0,0.0,0.0,0.0,0.0,0.0,0.0,0.0,0.0,0.0,0.0,0.0,0.0,0.0,0.0,0.0,0.0,0.0,0.0,0.0,0.0,0.0,0.0,0.0,0.0,0.0,0.0,0.0,0.0,0.0,0.0,0.0,0.0,0.0,0.0,0.0,0.0,0.0,0.0,0.0,0.0,0.0,0.0,0.0,0.0,0.0,0.0,0.0,0.0,0.0,0.0,0.0,0.0,0.0,0.0,0.0,0.0,0.0,0.0,0.0,0.0,0.0,0.0,0.0,0.0,0.0,0.0,0.0,0.0,0.0,0.0,0.0,0.0,0.0,0.0,0.0,0.0,0.0,0.0,0.0,0.0,0.0,2.1423,2.3621,2.4446,2.4306,2.3219,2.1642,2.033,0.0,0.0,0.0,0.0,0.0,0.0,0.0,0.0,0.0,0.0,0.0,0.0,0.0,0.0,0.0,0.0,0.0,0.0,0.0,0.0,0.0,0.0,0.0,0.0,0.0,0.0,0.0,0.0,0.0,0.0,0.0,0.0,0.0,0.0,0.0,0.0,0.0,0.0,0.0,0.0,0.0,0.0,0.0,0.0,0.0,0.0,0.0,0.0,0.0,0.0,0.0,0.0,0.0,0.0,0.0,0.0,0.0,0.0,0.0,0.0,0.0,0.0,0.0,0.0,0.0,0.0,0.0,0.0,0.0,0.0,0.0,0.0,0.0,0.0,0.0,0.0,0.0,0.0,0.0,0.0,0.0,0.0,0.0,0.0,0.0,0.0,0.0,0.0,0.0,0.0,0.0,0.0,0.0,0.0,0.0,0.0,0.0,0.0,0.0,0.0,0.0,0.0,0.0,0.0,0.0,0.0,0.0,0.0,2.2364,2.5032,2.567,2.5738,2.5153,2.3607,2.1927,0.0,0.0,0.0,0.0,0.0,0.0,0.0,0.0,0.0,0.0,0.0,0.0,0.0,0.0,0.0,0.0,0.0,0.0,0.0,0.0,0.0,0.0,0.0,0.0,0.0,0.0,0.0,0.0,0.0,0.0,0.0,0.0,0.0,0.0,0.0,0.0,0.0,0.0,0.0,0.0,0.0,0.0,0.0,0.0,0.0,0.0,0.0,0.0,0.0,0.0,0.0,0.0,0.0,0.0,0.0,0.0,0.0,0.0,0.0,0.0,0.0,0.0,0.0,0.0,0.0,0.0,0.0,0.0,0.0,0.0,0.0,0.0,0.0,0.0,0.0,0.0,0.0,0.0,0.0,0.0,0.0,0.0,0.0,0.0,0.0,0.0,0.0,0.0,0.0,0.0,0.0,0.0,0.0,0.0,0.0,0.0,0.0,0.0,0.0,0.0,0.0,0.0,0.0,0.0,0.0,0.0,0.0,0.0,2.3676,2.5643,2.6307,2.6535,2.64,2.4271,2.2359,0.0,0.0,0.0,0.0,0.0,0.0,0.0,0.0,0.0,0.0,0.0,0.0,0.0,0.0,0.0,0.0,0.0,0.0,0.0,0.0,0.0,0.0,0.0,0.0,0.0,0.0,0.0,0.0,0.0,0.0,0.0,0.0,0.0,0.0,0.0,0.0,0.0,0.0,0.0,0.0,0.0,0.0,0.0,0.0,0.0,0.0,0.0,0.0,1.9034,0.0,0.0,0.0,0.0,0.0,0.0,0.0,0.0,0.0,0.0,0.0,0.0,0.0,0.0,0.0,0.0,0.0,0.0,0.0,0.0,0.0,0.0,0.0,0.0,0.0,0.0,0.0,0.0,0.0,0.0,0.0,0.0,0.0,0.0,0.0,0.0,0.0,0.0,0.0,0.0,0.0,0.0,0.0,0.0,0.0,0.0,0.0,0.0,0.0,0.0,0.0,0.0,0.0,0.0,0.0,0.0,0.0,0.0,0.0,2.4204,2.6267,2.6932,2.7077,2.6752,2.5275,2.3568,0.0,0.0,0.0,0.0,0.0,0.0,0.0,0.0,0.0,0.0,0.0,0.0,0.0,0.0,0.0,0.0,0.0,0.0,0.0,0.0,0.0,0.0,0.0,0.0,0.0,0.0,0.0,0.0,0.0,0.0,0.0,0.0,0.0,0.0,0.0,0.0,0.0,0.0,0.0,0.0,0.0,0.0,0.0,0.0,0.0,0.0,0.0,0.0,0.0,0.0,0.0,0.0,0.0,0.0,0.0,0.0,0.0,0.0,0.0,0.0,0.0,0.0,0.0,0.0,0.0,0.0,0.0,0.0,0.0,0.0,0.0,0.0,0.0,0.0,0.0,0.0,0.0,0.0,0.0,0.0,0.0,0.0,0.0,0.0,0.0,0.0,0.0,0.0,0.0,0.0,0.0,0.0,0.0,0.0,0.0,0.0,0.0,0.0,0.0,0.0,0.0,0.0,0.0,0.0,0.0,0.0,0.0,2.2578,2.4516,2.6833,2.7542,2.7528,2.682,2.6307,2.4896,2.2549,0.0,0.0,0.0,0.0,0.0,0.0,0.0,0.0,0.0,0.0,0.0,0.0,0.0,0.0,0.0,0.0,0.0,0.0,0.0,0.0,0.0,0.0,0.0,0.0,0.0,0.0,0.0,0.0,0.0,0.0,0.0,0.0,0.0,0.0,0.0,0.0,0.0,0.0,1.7572,1.9566,0.0,0.0,0.0,0.0,0.0,0.0,0.0,0.0,2.0294,0.0,0.0,0.0,0.0,0.0,0.0,0.0,0.0,0.0,0.0,0.0,0.0,0.0,0.0,0.0,0.0,0.0,0.0,0.0,0.0,0.0,0.0,0.0,0.0,0.0,0.0,0.0,0.0,0.0,0.0,0.0,0.0,0.0,0.0,0.0,0.0,0.0,0.0,0.0,0.0,0.0,0.0,0.0,0.0,0.0,0.0,0.0,0.0,0.0,0.0,0.0,0.0,0.0,0.0,0.0,0.0,2.3432,2.3811,2.5112,2.7501,2.8139,2.7922,2.6847,2.6698,2.5519,2.3161,0.0,0.0,0.0,0.0,0.0,0.0,0.0,0.0,0.0,0.0,0.0,0.0,0.0,0.0,0.0,0.0,0.0,0.0,0.0,0.0,0.0,0.0,0.0,0.0,0.0,0.0,0.0,0.0,0.0,0.0,0.0,0.0,0.0,0.0,0.0,0.0,0.0,0.0,0.0,2.2267,2.3269,0.0,0.0,0.0,0.0,0.0,0.0,0.0,0.0,2.1105,0.0,0.0,0.0,0.0,0.0,0.0,0.0,0.0,0.0,0.0,0.0,0.0,0.0,0.0,0.0,0.0,0.0,0.0,0.0,0.0,0.0,0.0,0.0,0.0,0.0,0.0,0.0,0.0,0.0,0.0,0.0,0.0,0.0,0.0,0.0,0.0,0.0,0.0,0.0,0.0,0.0,0.0,0.0,0.0,0.0,0.0,0.0,0.0,0.0,0.0,0.0,0.0,0.0,0.0,0.0,2.3065,2.4408,2.5914,2.7651,2.8275,2.8017,2.6833,2.6481,2.5329,0.0,0.0,0.0,0.0,0.0,0.0,0.0,0.0,0.0,0.0,0.0,0.0,0.0,0.0,0.0,0.0,0.0,0.0,0.0,0.0,0.0,0.0,0.0,0.0,0.0,0.0,0.0,0.0,0.0,0.0,0.0,0.0,0.0,0.0,0.0,0.0,0.0,0.0,0.0,0.0,2.3636,2.4462,2.4732,0.0,0.0,0.0,0.0,0.0,0.0,2.2169,2.182,0.0,0.0,0.0,0.0,0.0,0.0,0.0,0.0,0.0,0.0,0.0,0.0,0.0,0.0,0.0,0.0,0.0,0.0,0.0,0.0,0.0,0.0,0.0,0.0,0.0,0.0,0.0,0.0,0.0,0.0,0.0,0.0,0.0,0.0,0.0,0.0,0.0,0.0,0.0,0.0,0.0,0.0,0.0,0.0,0.0,0.0,0.0,0.0,0.0,0.0,0.0,0.0,0.0,0.0,0.0,2.2468,2.4611,2.643,2.7827,2.822,2.7908,2.6833,2.6212,2.4991,0.0,0.0,0.0,0.0,0.0,0.0,0.0,0.0,0.0,0.0,0.0,0.0,0.0,0.0,0.0,0.0,0.0,0.0,0.0,0.0,0.0,0.0,0.0,0.0,0.0,0.0,0.0,0.0,0.0,0.0,0.0,0.0,0.0,0.0,0.0,0.0,0.0,0.0,0.0,0.0,0.0,2.5773,2.6142,2.4872,0.0,0.0,0.0,0.0,2.3733,2.3579,0.0,0.0,0.0,0.0,0.0,0.0,0.0,0.0,0.0,0.0,0.0,0.0,0.0,0.0,0.0,0.0,0.0,0.0,0.0,0.0,0.0,0.0,0.0,0.0,0.0,0.0,0.0,0.0,0.0,0.0,0.0,0.0,0.0,0.0,0.0,0.0,0.0,0.0,0.0,0.0,0.0,0.0,0.0,0.0,0.0,0.0,0.0,0.0,0.0,0.0,0.0,0.0,0.0,0.0,0.0,0.0,2.3025,2.4435,2.6199,2.8343,2.8044,2.7488,2.6806,2.6212,2.4788,0.0,0.0,0.0,0.0,0.0,0.0,0.0,0.0,0.0,0.0,0.0,0.0,0.0,0.0,0.0,0.0,0.0,0.0,0.0,0.0,0.0,0.0,0.0,0.0,0.0,0.0,0.0,0.0,0.0,0.0,0.0,0.0,0.0,0.0,0.0,0.0,0.0,0.0,0.0,0.0,0.0,2.8016,2.5742,2.578,2.581,0.0,0.0,2.5118,2.5903,2.6472,0.0,0.0,0.0,0.0,0.0,0.0,0.0,0.0,0.0,0.0,0.0,0.0,0.0,0.0,0.0,0.0,0.0,0.0,0.0,0.0,0.0,0.0,0.0,0.0,0.0,0.0,0.0,0.0,0.0,0.0,0.0,0.0,0.0,0.0,0.0,0.0,0.0,0.0,0.0,0.0,0.0,0.0,0.0,0.0,0.0,0.0,0.0,0.0,0.0,0.0,0.0,0.0,0.0,0.0,0.0,2.1778,2.3756,2.5921,2.7723,2.9048,2.8864,2.8258,2.7285,2.6286,2.4856,0.0,0.0,0.0,0.0,0.0,0.0,0.0,0.0,0.0,0.0,0.0,0.0,0.0,0.0,0.0,0.0,0.0,0.0,0.0,0.0,0.0,0.0,0.0,0.0,0.0,0.0,0.0,0.0,0.0,0.0,0.0,0.0,0.0,0.0,0.0,0.0,0.0,0.0,0.0,0.0,0.0,0.0,2.7664,2.7557,0.0,0.0,0.0,2.7165,2.7488,0.0,0.0,0.0,0.0,0.0,0.0,0.0,0.0,0.0,0.0,0.0,0.0,0.0,0.0,0.0,0.0,0.0,0.0,0.0,0.0,0.0,0.0,0.0,0.0,0.0,0.0,0.0,0.0,0.0,0.0,0.0,0.0,0.0,0.0,0.0,0.0,0.0,0.0,0.0,0.0,0.0,0.0,0.0,0.0,0.0,0.0,0.0,0.0,0.0,0.0,0.0,0.0,0.0,0.0,0.0,0.0,0.0,2.4376,2.7155,2.8871,2.945,2.9349,2.874,2.7639,2.6364,0.0,0.0,0.0,0.0,0.0,0.0,0.0,0.0,0.0,0.0,0.0,0.0,0.0,0.0,0.0,0.0,0.0,0.0,0.0,0.0,0.0,0.0,0.0,0.0,0.0,0.0,0.0,1.6533,0.0,0.0,0.0,0.0,0.0,0.0,0.0,0.0,0.0,0.0,0.0,0.0,0.0,0.0,2.8381,2.9169,2.9286,2.9474,0.0,0.0,2.9295,2.9286,2.9583,2.8904,0.0,0.0,0.0,0.0,0.0,0.0,0.0,0.0,0.0,0.0,0.0,0.0,0.0,0.0,0.0,0.0,0.0,0.0,0.0,0.0,0.0,0.0,0.0,0.0,0.0,0.0,0.0,0.0,0.0,0.0,0.0,0.0,0.0,0.0,0.0,0.0,0.0,0.0,0.0,0.0,0.0,0.0,0.0,0.0,0.0,0.0,0.0,0.0,0.0,0.0,0.0,0.0,0.0,0.0,0.0,2.4771,2.7289,2.8899,2.9464,2.8928,2.8306,2.7597,2.6364,2.4677,0.0,0.0,0.0,0.0,0.0,0.0,0.0,0.0,0.0,0.0,0.0,0.0,0.0,0.0,0.0,0.0,0.0,0.0,0.0,0.0,0.0,0.0,0.0,0.0,0.0,0.0,0.0,0.0,0.0,0.0,0.0,0.0,0.0,0.0,0.0,0.0,0.0,0.0,0.0,0.0,0.0,2.9757,2.9032,3.0561,3.1762,0.0,0.0,3.1746,3.1746,3.2773,3.2152,2.7778,0.0,0.0,0.0,0.0,0.0,0.0,0.0,0.0,0.0,0.0,0.0,0.0,0.0,0.0,0.0,0.0,0.0,0.0,0.0,0.0,0.0,0.0,0.0,0.0,0.0,0.0,0.0,0.0,0.0,0.0,0.0,0.0,0.0,0.0,0.0,0.0,0.0,0.0,0.0,0.0,0.0,0.0,0.0,0.0,0.0,0.0,0.0,0.0,0.0,0.0,0.0,0.0,0.0,2.3879,2.5367,2.824,2.9621,2.9459,2.9606,2.9185,2.8117,2.6808,2.5428,0.0,0.0,0.0,0.0,0.0,0.0,0.0,0.0,0.0,0.0,0.0,0.0,0.0,0.0,0.0,0.0,0.0,0.0,0.0,0.0,0.0,0.0,0.0,0.0,0.0,0.0,0.0,0.0,2.0118,2.0551,2.0518,0.0,0.0,0.0,0.0,0.0,0.0,0.0,0.0,0.0,0.0,3.1029,3.196,3.2795,0.0,0.0,3.3567,3.3251,3.3251,3.2886,3.1748,2.9215,2.7676,0.0,0.0,0.0,0.0,0.0,0.0,0.0,0.0,0.0,0.0,0.0,0.0,0.0,0.0,0.0,0.0,0.0,0.0,0.0,0.0,0.0,0.0,0.0,0.0,0.0,0.0,0.0,0.0,0.0,0.0,0.0,0.0,0.0,0.0,0.0,0.0,0.0,0.0,0.0,0.0,0.0,0.0,0.0,0.0,0.0,0.0,0.0,0.0,0.0,0.0,0.0,0.0,2.4535,2.6213,2.8985,3.0171,2.971,3.0156,2.9756,2.8418,2.7288,2.6122,0.0,0.0,0.0,0.0,0.0,0.0,0.0,0.0,0.0,0.0,0.0,0.0,0.0,0.0,0.0,0.0,0.0,0.0,0.0,0.0,0.0,0.0,0.0,0.0,0.0,0.0,0.0,0.0,2.1239,2.1372,2.1171,0.0,0.0,0.0,0.0,0.0,0.0,0.0,0.0,0.0,0.0,3.243,3.3994,3.461,3.5005,3.5268,3.4652,3.4152,3.4152,3.3275,3.2017,3.031,0.0,0.0,0.0,0.0,0.0,0.0,0.0,0.0,0.0,0.0,0.0,0.0,0.0,0.0,0.0,0.0,0.0,0.0,0.0,0.0,0.0,0.0,0.0,0.0,0.0,0.0,0.0,2.0936,0.0,0.0,1.9134,0.0,0.0,0.0,0.0,0.0,0.0,0.0,0.0,0.0,0.0,0.0,0.0,0.0,0.0,0.0,0.0,0.0,0.0,0.0,0.0,0.0,0.0,2.4909,2.7326,2.9356,3.0386,3.0356,3.0386,2.9756,2.8473,2.7734,2.6597,2.4918,0.0,0.0,0.0,0.0,0.0,0.0,0.0,0.0,0.0,0.0,0.0,0.0,0.0,0.0,0.0,0.0,0.0,0.0,0.0,0.0,0.0,0.0,0.0,0.0,0.0,0.0,2.217,2.1983,2.1534,0.0,0.0,0.0,0.0,0.0,0.0,0.0,0.0,0.0,0.0,3.1603,3.4019,3.4486,3.5785,3.6449,3.5774,3.502,3.4513,3.4525,3.4428,3.3561,0.0,0.0,0.0,0.0,0.0,0.0,0.0,0.0,0.0,0.0,0.0,0.0,0.0,0.0,0.0,0.0,0.0,0.0,0.0,0.0,0.0,0.0,0.0,0.0,0.0,0.0,0.0,2.4048,2.3186,0.0,0.0,0.0,0.0,0.0,0.0,0.0,0.0,0.0,0.0,0.0,2.5621,2.5637,0.0,0.0,0.0,0.0,0.0,0.0,0.0,0.0,0.0,0.0,0.0,0.0,2.5188,2.738,2.9371,3.0402,3.0402,3.0402,2.9971,2.9104,2.798,2.6473,2.4575,0.0,0.0,0.0,0.0,0.0,0.0,0.0,0.0,0.0,0.0,0.0,0.0,0.0,0.0,0.0,0.0,0.0,0.0,0.0,0.0,0.0,0.0,0.0,0.0,0.0,2.2,0.0,0.0,0.0,0.0,0.0,0.0,0.0,0.0,0.0,0.0,0.0,2.9301,3.1116,3.3488,3.5453,3.6597,3.7212,3.7601,0.0,0.0,0.0,0.0,0.0,0.0,0.0,0.0,0.0,0.0,0.0,0.0,0.0,0.0,3.3562,2.9439,2.8443,2.8196,2.8088,0.0,0.0,0.0,0.0,0.0,0.0,0.0,0.0,0.0,0.0,0.0,0.0,0.0,0.0,2.6134,0.0,2.4958,0.0,0.0,0.0,0.0,0.0,0.0,0.0,0.0,2.6226,2.7226,2.8088,2.8104,2.775,0.0,2.6842,2.5333,0.0,0.0,0.0,0.0,0.0,0.0,0.0,0.0,2.5687,2.7719,2.9494,3.0509,3.0735,3.0509,3.0063,2.9387,2.8104,2.6534,2.4697,2.3394,2.2255,0.0,0.0,0.0,0.0,0.0,0.0,0.0,0.0,0.0,0.0,0.0,0.0,0.0,0.0,0.0,0.0,0.0,0.0,0.0,0.0,0.0,0.0,0.0,2.2893,0.0,0.0,0.0,0.0,0.0,0.0,0.0,0.0,0.0,2.6297,2.8968,3.1545,3.3198,3.5127,3.6766,3.777,0.0,0.0,0.0,0.0,0.0,0.0,0.0,3.3935,3.4134,3.3829,3.3508,3.344,3.5081,3.6225,3.5684,0.0,0.0,3.2883,3.1766,3.1429,3.1429,3.2007,3.2406,3.2102,3.2977,3.3873,0.0,0.0,0.0,0.0,0.0,0.0,0.0,0.0,2.7234,2.7396,0.0,2.65,0.0,0.0,0.0,0.0,0.0,2.6238,0.0,0.0,2.8561,2.9493,2.9524,2.9549,2.9209,2.8599,2.9178,2.8083,2.5475,2.4163,0.0,0.0,0.0,0.0,0.0,0.0,2.6357,2.8411,2.9781,3.074,3.1366,3.0797,3.0109,2.9402,2.8104,2.6765,2.5435,2.525,2.4071,2.1581,2.1365,0.0,0.0,0.0,0.0,0.0,0.0,0.0,0.0,0.0,0.0,0.0,0.0,0.0,0.0,0.0,0.0,0.0,0.0,0.0,0.0,2.4028,0.0,0.0,0.0,0.0,0.0,0.0,0.0,0.0,0.0,0.0,2.7898,3.1009,3.3744,3.4489,0.0,0.0,0.0,0.0,3.8751,3.8108,3.7347,3.6897,3.6897,3.6812,3.6508,3.5785,0.0,0.0,3.5988,3.6969,3.7516,3.6039,3.7077,3.8021,3.8044,3.678,3.5924,3.5907,3.5382,3.5086,3.5238,3.586,3.6414,3.3003,0.0,0.0,0.0,0.0,3.0122,3.1065,3.2573,3.219,3.1915,3.167,3.058,0.0,0.0,0.0,0.0,0.0,0.0,2.9406,2.972,3.0781,3.1518,3.1942,3.1974,3.1862,3.1694,3.139,3.0325,2.8624,2.8212,2.6329,2.3075,0.0,0.0,0.0,0.0,2.7565,2.9089,3.0428,3.1428,3.209,3.1459,3.0566,2.9417,2.8104,2.7211,2.6795,2.5379,2.4471,2.4148,2.2778,0.0,0.0,0.0,0.0,0.0,0.0,0.0,0.0,0.0,0.0,0.0,0.0,0.0,0.0,0.0,0.0,0.0,0.0,0.0,2.372,2.468,2.5196,0.0,0.0,0.0,0.0,0.0,0.0,0.0,0.0,0.0,3.239,3.39,3.5267,0.0,0.0,3.7898,3.7898,3.8531,3.9106,3.9436,3.8836,0.0,3.8386,3.7506,3.6914,3.7195,3.8058,3.87,3.8809,3.9182,3.9309,3.8853,3.9248,3.9627,3.9574,3.8499,3.7569,3.7484,3.7382,3.7564,3.8191,3.89,3.9593,3.7251,3.4515,3.2498,3.2134,3.2823,3.2839,3.3678,3.507,3.4814,3.4719,3.4713,3.3754,3.2413,3.0815,3.0228,0.0,0.0,0.0,3.2013,3.2673,3.2772,3.3372,3.4257,3.4005,3.3713,3.3421,3.3023,3.2106,3.0731,3.0748,2.9253,2.6404,0.0,0.0,2.5721,2.7485,2.8911,2.9989,3.1341,3.2363,3.2997,3.2086,3.1105,3.002,2.8919,2.8227,2.7944,2.7007,2.6414,2.6288,2.5127,2.409,0.0,0.0,0.0,0.0,0.0,0.0,0.0,0.0,0.0,0.0,0.0,2.1943,0.0,0.0,0.0,0.0,2.3687,2.4481,2.543,2.6387,0.0,0.0,0.0,0.0,0.0,0.0,0.0,3.1782,3.3258,3.4527,3.569,3.6485,3.7127,3.7625,3.8058,3.8447,3.8734,0.0,3.9918,4.0079,3.9977,3.9766,3.9486,3.8691,3.8285,3.8684,3.914,3.9571,3.9994,4.0113,4.0197,4.0468,4.0604,4.0756,4.1121,4.0474,3.973,3.9266,3.944,3.9894,4.0442,4.1154,4.1867,4.095,3.9961,3.6373,3.5174,3.5603,3.5652,3.6059,3.6554,3.5978,3.6352,3.7329,3.6069,3.5442,3.523,3.4047,0.0,3.3499,3.4186,3.4815,3.5384,3.47,3.5074,3.629,3.5636,3.4984,3.4308,3.4325,3.3608,3.2336,3.2287,3.1919,3.1159,2.9216,2.818,2.8135,2.9431,3.0471,3.107,3.2392,3.3372,3.3962,3.2692,3.1663,3.0989,3.0269,2.9572,2.8913,2.941,2.9189,2.8034,2.7774,2.6799,2.4764,0.0,0.0,0.0,0.0,0.0,0.0,0.0,0.0,0.0,0.0,0.0,0.0,0.0,0.0,0.0,2.5832,0.0,2.7824,2.8619,0.0,0.0,0.0,2.9314,2.9416,3.1227,3.2784,3.3575,0.0,0.0,3.7905,3.8633,3.9106,3.9157,3.9123,3.9351,4.0011,4.0663,4.095,4.0333,4.0747,4.0933,4.0316,4.0197,4.0146,3.9994,4.0197,4.0299,4.0282,4.035,4.0603,4.117,4.1305,4.151,4.2336,4.2389,4.2279,4.1018,4.1359,4.1913,4.2036,4.263,4.3182,4.2455,4.1711,4.0759,3.958,3.8319,3.8873,3.9203,3.9335,3.917,3.8904,3.8539,3.7667,3.6628,3.5549,3.5813,3.5937,3.5971,3.6685,3.7097,3.7248,3.7081,3.688,3.6678,3.6477,3.635,3.6165,3.6165,3.5656,3.4784,3.4728,3.4097,3.2856,3.2324,3.144,3.0337,3.1602,3.2334,3.2489,3.334,3.3833,3.3978,3.3178,3.2408,3.1679,3.1005,3.0308,2.9605,2.92,2.914,2.9264,2.7762,2.6659,2.6105,2.381,0.0,0.0,0.0,0.0,0.0,0.0,0.0,0.0,0.0,2.3984,2.2662,0.0,2.5346,0.0,2.7519,2.8536,2.8687,2.9381,0.0,0.0,3.1075,3.1972,3.3051,3.3681,3.4489,3.5847,3.6941,3.7905,3.865,3.9385,4.0062,4.0578,4.0172,3.9926,4.0113,4.0713,4.1153,4.1001,4.1119,4.1136,4.1018,4.1424,4.1399,4.0282,4.1027,4.1576,4.1035,4.1407,4.183,4.1999,4.2033,4.2144,4.2339,4.2383,4.2377,4.215,4.2492,4.2863,4.293,4.3517,4.4035,4.3487,4.2828,4.3166,4.2463,4.109,4.1157,4.1174,4.1157,4.0839,4.0428,3.9952,3.9563,3.8717,3.7686,3.8413,3.8751,3.8751,3.8836,3.9056,3.9343,3.8684,3.8352,3.8251,3.7608,3.728,3.7297,3.7303,3.6891,3.618,3.6445,3.6045,3.4928,3.4928,3.4286,3.3122,3.3462,3.367,3.367,3.4358,3.4721,3.4664,3.3713,3.3142,3.3026,3.2056,3.1328,3.0931,3.0555,3.0241,2.9931,2.8794,2.7855,2.7139,2.5691,2.4365,0.0,0.0,0.0,0.0,0.0,0.0,0.0,0.0,0.0,0.0,0.0,2.6556,2.7621,2.9094,3.0226,3.0903,3.1918,3.2709,3.3115,3.4134,3.5001,3.547,3.6096,3.6846,3.7692,3.8413,3.9022,3.9469,4.0138,4.0713,4.1153,4.1119,4.1094,4.1136,4.1711,4.2083,4.1762,4.1982,4.2066,4.1762,4.2016,4.2059,4.1391,4.1963,4.2492,4.2142,4.2585,4.3038,4.3108,4.3158,4.3199,4.3362,4.3393,4.3447,4.3598,4.388,4.3941,4.3674,4.4191,4.4733,4.4181,4.3639,4.4299,4.4198,4.3494,4.2861,4.2523,4.2405,4.1762,4.1373,4.1204,4.1204,4.0781,4.0146,4.0764,4.1068,4.1018,4.04,4.0468,4.0967,3.9715,3.9428,3.9893,3.8633,3.8041,3.8041,3.7939,3.755,3.6981,3.7584,3.7516,3.6846,3.6897,3.6586,3.5887,3.5148,3.4742,3.4641,3.5261,3.5616,3.5583,3.4332,3.3947,3.4426,3.3173,3.2395,3.231,3.2293,3.1718,3.048,3.0275,2.9634,2.8314,2.7959,2.7215,0.0,2.553,0.0,0.0,0.0,0.0,0.0,0.0,0.0,0.0,2.7621,2.7994,2.945,3.0818,3.2188,3.3554,3.4923,3.5752,3.5785,3.7144,3.7787,3.7235,3.8319,3.914,3.9123,3.9706,4.0113,4.0248,4.0815,4.1221,4.1559,4.2049,4.2422,4.2608,4.2997,4.3081,4.2506,4.2953,4.2987,4.2439,4.2455,4.2557,4.2451,4.2859,4.3252,4.3233,4.3673,4.4146,4.4368,4.4439,4.4561,4.4912,4.4954,4.4991,4.5066,4.5207,4.5061,4.45,4.4732,4.5239,4.453,4.4367,4.4547,4.453,4.4361,4.4242,4.3792,4.32,4.3064,4.2337,4.1221,4.1204,4.0798,4.013,4.0248,4.0316,4.0316,4.0163,4.018,4.0316,4.0028,3.9631,3.9191,3.892,3.8802,3.8751,3.8193,3.7838,3.7702,3.7838,3.7516,3.6846,3.7398,3.7635,3.7449,0.0,0.0,0.0,3.5515,3.5616,3.56,3.5329,3.4957,3.4489,3.3643,0.0,3.2327,3.2293,3.2175,3.1904,3.1309,0.0,0.0,0.0,0.0,0.0,0.0,0.0,0.0,0.0,0.0,0.0,3.0171,2.9679,2.8907,3.0279,3.1633,3.2493,3.3355,3.4235,3.5092,3.6011,3.6592,3.6643,3.7905,3.8734,3.864,3.9368,3.9893,3.9893,4.0028,4.035,4.0916,4.1119,4.1677,4.2726,4.3115,4.347,4.4028,4.3707,4.3358,4.3223,4.3386,4.3149,4.2405,4.3345,4.3589,4.2838,4.3484,4.4139,4.4096,4.4603,4.5221,4.5623,4.574,4.5733,4.5825,4.5943,4.5943,4.6042,4.6042,4.5875,4.5147,4.5197,4.5371,4.4598,0.0,4.4598,4.4598,0.0,4.4598,4.435,4.3978,4.3589,4.2794,4.1779,4.2108,4.1677,4.0646,4.1018,4.0967,4.0612,4.0265,4.0316,4.0612,4.0265,3.9926,3.9537,3.9157,3.8988,3.8971,3.8633,3.8261,3.7956,3.8261,3.7872,3.6829,3.7533,3.7719,3.7364,3.6981,3.64,3.5616,3.5616,3.5616,3.5583,3.5267,3.4878,3.4489,3.3778,0.0,0.0,0.0,0.0,0.0,0.0,0.0,0.0,0.0,0.0,2.9433,2.9504,2.9504,2.9501,3.055,3.1478,3.2239,3.3322,3.319,3.1326,3.291,3.4321,3.5018,3.5486,3.6147,3.7161,3.7652,3.8048,3.842,3.9114,3.9554,3.9622,4.0189,4.0629,4.0679,4.095,4.1365,4.1694,4.2057,4.253,4.3274,4.3758,4.4113,4.4479,4.4248,4.3995,4.3995,4.3995,4.3859,4.3616,4.4005,4.4429,4.3752,4.4276,4.4919,4.5111,4.5663,4.6189,4.643,4.6478,4.643,4.6165,4.6147,4.6213,4.6213,4.631,4.6286,4.5903,4.5692,4.5494,4.4598,4.4598,4.4598,4.4598,4.4598,4.4598,4.4598,4.4564,0.0,0.0,0.0,4.3149,4.2675,4.1457,4.2016,4.1965,4.1356,4.0612,4.0612,4.1153,4.0426,4.0113,4.0079,3.9486,3.9174,3.9174,3.9056,3.8684,3.8142,3.8717,3.8403,3.7371,3.7922,3.7855,3.7049,3.6998,3.6535,3.565,3.5616,3.5616,3.5583,3.5013,3.4692,3.4692,3.3981,3.3305,3.2733,3.2682,3.2121,3.097,3.0866,3.0886,3.0886,3.0768,3.1241,3.2395,3.2513,3.2564,3.2699,3.3372,3.3931,3.4184,3.6028,3.6288,3.4167,3.5343,3.6446,3.7134,3.7295,3.7855,3.908,3.9199,3.9478,4.0214,4.0299,4.035,4.0502,4.1001,4.139,4.1457,4.188,4.2337,4.2489,4.2997,4.3477,4.3673,4.4164,4.4598,4.4598,4.4564,4.453,4.453,4.4479,4.4547,4.4581,4.4669,4.4692,4.4524,4.501,4.5571,4.6024,4.6525,4.6886,4.7039,4.6994,4.6753,4.6454,4.6286,4.6238,4.6382,4.6501,4.6595,4.6548,4.6207,4.5794,4.4598,4.4598,4.4598,4.4598,4.4598,4.4598,4.4598,4.4598,4.4451,4.3995,4.324,4.3341,4.2946,4.2134,4.2252,4.2236,4.21,4.1373,4.1102,4.117,4.0443,4.0113,4.0113,3.9994,3.996,3.991,3.9292,3.8937,3.8853,3.8937,3.8886,3.8792,3.9436,3.9114,3.7855,3.7753,3.7043,3.565,3.5616,3.5616,3.56,3.5481,3.5447,3.5414,3.4726,3.4324,3.4184,3.415,3.41,3.388,3.388,3.388,3.3846,3.3237,3.3051,3.322,3.3254,3.3508,3.4172,3.4856,3.5876,3.7161,3.8142,3.8007,3.6524,3.71,3.7912,3.8599,3.8725,3.9046,3.9842,3.9977,4.0257,4.0916,4.1052,4.1271,4.1813,4.2033,4.2151,4.2151,4.2219,4.2625,4.3183,4.3358,4.3724,4.4231,4.4496,4.4598,4.4598,4.4598,4.4598,4.4598,4.4598,4.4598,4.4626,4.4944,4.4971,4.4637,4.5381,4.5925,4.614,4.6548,4.7039,4.749,4.7214,4.7084,4.728,4.6799,4.6753,4.7262,4.7258,4.7022,4.7017,4.6613,4.6328,4.4598,4.4598,4.4598,4.4598,4.4598,4.4598,4.4598,4.4598,4.4598,4.4429,4.4062,4.4045,4.3606,4.2929,4.2912,4.2675,4.2269,4.1948,4.1796,4.1745,4.1035,4.0679,4.0663,4.0316,4.0113,4.0079,3.9757,3.9402,3.9022,3.8988,3.8785,3.8481,3.9123,3.9343,3.9089,3.87,3.7973,3.6874,3.6451,3.6045,3.5616,3.5616,3.5616,3.5583,3.4878,3.4489,3.4489,3.4117,3.3897,3.3914,3.3897,3.4066,3.4455,3.4167,3.437,3.5148,3.5233,3.5571,3.6299,3.7043,3.7753,3.8447,3.9157,3.952,3.9225,3.957,3.9909,4.0189,4.0578,4.0993,4.1264,4.1297,4.1424,4.1762,4.1796,4.1931,4.2269,4.2692,4.2895,4.2946,4.3284,4.3656,4.3995,4.4045,4.4147,4.4547,4.4598,4.4598,4.4598,4.4598,4.4598,4.4598,4.4598,4.4598,4.4598,4.4776,4.4906,4.4944,4.5363,4.5893,4.6358,4.6794,4.7125,4.7572,4.7472,4.7428,4.7696,4.7385,4.7363,4.7533,4.7699,4.7533,4.7472,4.7133,4.6648,4.4598,4.4598,4.4598,4.4598,4.4598,4.4598,4.4598,4.4598,4.4598,4.4598,4.4598,4.4598,4.4231,4.3707,4.369,4.3369,4.2855,4.2625,4.2557,4.2472,4.1796,4.1373,4.1153,4.0612,4.0282,4.0113,4.0113,3.9808,3.9317,3.9266,3.8971,3.8481,3.8802,3.9292,3.9825,3.9276,3.8633,3.7922,3.7499,3.6738,3.565,3.5616,3.5616,3.5566,3.5233,3.5035,3.4996,3.4624,3.4421,3.4421,3.4421,3.4675,3.5216,3.5267,3.5791,3.6891,3.7049,3.7364,3.8108,3.8836,3.9242,3.9283,3.9918,4.0578,4.1119,4.1629,4.1714,4.1568,4.1976,4.2342,4.2245,4.2252,4.2354,4.2506,4.254,4.2658,4.2828,4.3335,4.369,4.3741,4.4215,4.4564,4.4598,4.4598,4.4581,4.4581,4.4598,4.4598,4.4598,4.4598,4.4598,4.4598,4.4598,4.4598,4.4598,4.4731,4.4917,4.525,4.5545,4.6091,4.6707,4.6972,4.7214,4.7615,4.7572,4.7533,4.7615,4.7407,4.7407,4.7554,4.7615,4.7615,4.7554,4.7222,4.6814,4.4632,4.4598,4.4666,4.4598,4.4649,4.4649,4.4666,4.4649,4.4598,4.4598,4.4649,4.4598,4.4564,4.4496,4.4451,4.4395,4.4231,4.3623,4.3318,4.3234,4.254,4.1847,4.1305,4.1136,4.073,4.0197,4.0146,4.0096,3.9943,3.996,3.9943,3.9842,3.9334,3.9039,3.9089,3.9056,3.865,3.7956,3.8497,3.777,3.5752,3.5616,3.5616,3.5616,3.6231,3.6609,3.6491,3.7161,3.7466,3.7476,3.7398,3.7466,3.755,3.7567,3.7652,3.7787,3.7821,3.8125,3.8853,3.9605,3.9977,4.0062,4.0646,4.1136,4.1322,4.2439,4.2912,4.2439,4.233,4.2431,4.2313,4.2371,4.2692,4.3267,4.3318,4.3589,4.413,4.4462,4.4513,4.4496,4.453,4.4598,4.4598,4.4598,4.4598,4.4598,4.4598,4.4598,4.4598,4.4598,4.4598,4.4598,4.4598,4.4598,4.4626,4.4954,4.5152,4.5329,4.6074,4.6548,4.6817,4.7191,4.7636,4.7428,4.732,4.7214,4.7323,4.7022,4.6753,4.7428,4.7446,4.7062,4.6976,4.6776,4.6572,4.5889,4.5901,4.5872,4.5889,4.5918,4.5889,4.5889,4.5855,4.5432,4.5229,4.5162,4.4801,4.4598,4.4598,4.4598,4.4598,4.4564,4.4276,4.4113,4.4028,4.3318,4.2794,4.2506,4.2033,4.1457,4.0781,4.0747,4.0527,4.0163,4.0113,4.0113,4.0079,3.9774,3.9656,3.9656,3.9648,3.93,3.8582,3.8836,3.8328,3.7087,3.6518,3.6299,3.6282,3.6197,3.6349,3.6778,3.7117,3.7246,3.7286,3.7652,3.8108,3.8531,3.8548,3.8734,3.914,3.9191,3.9351,3.9639,3.9943,4.0282,4.0713,4.1018,4.1542,4.2439,4.3054,4.3453,4.3639,4.365,4.3667,4.3633,4.3667,4.3758,4.4045,4.4113,4.4231,4.4547,4.4598,4.4598,4.4598,4.4598,4.4598,4.4598,4.4598,4.4598,4.4598,4.4598,4.4598,4.4598,4.4598,4.4598,4.4598,4.4598,4.4598,4.4643,4.472,4.4998,4.5294,4.5622,4.5975,4.643,4.6566,4.684,4.7169,4.7017,4.7084,4.7615,4.745,4.7218,4.7593,4.7615,4.7363,4.7363,4.6994,4.684,4.6786,4.6786,4.6786,4.6786,4.6786,4.6786,4.6786,4.6735,4.621,4.6007,4.594,4.5444,4.5224,4.5156,4.4801,4.4598,4.4598,4.4598,4.4598,4.4547,4.3995,4.3623,4.3358,4.2878,4.2219,4.161,4.1508,4.1136,4.0485,4.04,4.0316,4.013,4.0113,4.0113,4.0113,4.0113,3.9859,3.936,3.9292,3.8937,3.8227,3.7669,3.732,3.7077,3.6755,3.6823,3.7347,3.7608,3.7709,3.7743,3.821,3.8734,3.9242,3.9292,3.9529,4.0028,4.0113,4.0113,4.0113,4.0299,4.0629,4.117,4.1525,4.2269,4.3156,4.3578,4.3978,4.4445,4.4598,4.4547,4.4598,4.4598,4.4598,4.4598,4.4598,4.4598,4.4598,4.4598,4.4598,4.4598,4.4598,4.4598,4.4598,4.4598,4.4598,4.4598,4.4598,4.4598,4.4598,4.4598,4.4598,4.4598,4.4598,4.4598,4.4598,4.4626,4.4797,4.5125,4.5364,4.5571,4.5968,4.6091,4.6123,4.666,4.6683,4.673,4.6931,4.7107,4.7236,4.7258,4.7258,4.7236,4.7062,4.6771,4.6382,4.6786,4.6819,4.6802,4.6887,4.6819,4.6853,4.6836,4.6938,4.6786,4.6752,4.6752,4.665,4.665,4.6515,4.528,4.4649,4.4615,4.4615,4.4598,4.4598,4.453,4.413,4.3409,4.3341,4.298,4.2303,4.2252,4.1863,4.1187,4.1153,4.0781,4.0163,4.0163,4.013,4.0113,4.0113,4.0096,3.9994,3.9977,3.969,3.9056,3.8928,3.8531,3.8041,3.8447,3.865,3.8877,3.9537,3.9859,3.991,3.9876,3.9977,4.0028,4.0028,4.0045,4.0096,4.0113,4.0113,4.0231,4.073,4.1187,4.1424,4.2446,4.3291,4.3521,4.4062,4.4434,4.4598,4.4598,4.4598,4.4598,4.4598,4.4598,4.4598,4.4598,4.4598,4.4598,4.4598,4.4598,4.4598,4.4598,4.4598,4.4598,4.4598,4.4598,4.4598,4.4598,4.4598,4.4598,4.4598,4.4598,4.4598,4.4598,4.4598,4.4598,4.4598,4.4797,4.5035,4.5188,4.5381,4.5817,4.6116,4.6116,4.6116,4.614,4.6165,4.6147,4.6238,4.6334,4.6382,4.643,4.6406,4.659,4.5868,4.5588,4.8206,4.8206,4.8206,4.8206,4.8206,4.8189,4.8206,4.8156,4.7716,4.7513,4.7411,4.7022,4.6786,4.6752,4.6244,4.5737,4.528,4.4835,4.4598,4.4598,4.4598,4.4434,4.4225,4.4164,4.3775,4.3098,4.2997,4.2642,4.1965,4.1897,4.1525,4.0916,4.0798,4.0578,4.0197,4.0113,4.0113,4.0113,4.0113,3.996,3.9723,3.9706,3.9571,3.9276,3.8616,3.8294,3.8294,3.9029,3.9402,3.9377,3.9842,4.0113,4.0113,4.0113,4.0113,4.0113,4.0113,4.0316,4.073,4.1035,4.1644,4.2557,4.3054,4.3656,4.4079,4.4401,4.4598,4.4598,4.4598,4.4598,4.4598,4.4598,4.4598,4.4598,4.4598,4.4598,4.4598,4.4598,4.4598,4.4598,4.4598,4.4598,4.4598,4.4598,4.4598,4.4598,4.4598,4.4598,4.4598,4.4598,4.4598,4.4598,4.4598,4.4598,4.4598,4.4598,4.4665,4.4759,4.4852,4.4889,4.5169,4.5275,4.5266,4.564,4.5665,4.5716,4.5767,4.5918,4.5918,4.5943,4.5968,4.5893,4.6116,4.5631,4.5433,4.9018,4.9018,4.9018,4.9018,4.9018,4.9018,4.9018,4.8951,4.8477,4.8257,4.8156,4.7716,4.7496,4.7445,4.7259,4.6904,4.6363,4.5652,4.519,4.4959,4.4942,4.4823,4.4632,4.4598,4.4299,4.3859,4.3792,4.3403,4.2743,4.2658,4.2252,4.1593,4.1559,4.1187,4.0561,4.0443,4.0367,4.0163,4.0113,4.0113,4.0113,4.0113,4.0113,3.9977,3.9106,3.8616,3.8616,3.9073,3.9368,3.9411,3.9842,4.0113,4.0113,4.0113,4.0113,4.0113,4.0324,4.0663,4.1187,4.1617,4.2371,4.3291,4.3673,4.4045,4.4547,4.4598,4.4598,4.4598,4.4598,4.4598,4.4598,4.4598,4.4598,4.4598,4.4598,4.4598,4.4598,4.4598,4.4598,4.4598,4.4598,4.4598,4.4598,4.4598,4.4598,4.4598,4.4598,4.4598,4.4598,4.4598,4.4598,4.4598,4.4598,4.4598,4.4598,4.4598,4.4598,4.4665,4.4692,4.4637,4.4665,4.4654,4.4748,4.5098,4.5267,4.5346,4.5468,4.5606,4.5657,4.564,4.5477,4.5328,4.5468,4.5546,4.5284,4.9018,4.9018,4.9018,4.9018,4.9018,4.9018,4.9018,4.8984,4.8968,4.89,4.8849,4.8883,4.8765,4.8765,4.8173,4.7872,4.7699,4.709,4.6397,4.5771,4.5703,4.5365,4.4835,4.4767,4.4649,4.4479,4.4547,4.4147,4.3453,4.3403,4.3047,4.2422,4.233,4.1931,4.1221,4.1187,4.0865,4.0434,4.0299,4.0197,4.0113,4.013,4.0113,4.0113,3.9977,3.9926,3.9977,4.0011,4.0011,4.0028,4.0062,4.0113,4.0113,4.0163,4.0163,4.0316,4.0815,4.1187,4.1441,4.2513,4.3189,4.3595,4.413,4.4496,4.4564,4.4598,4.4598,4.4598,4.4598,4.4598,4.4598,4.4598,4.4598,4.4598,4.4598,4.4598,4.4598,4.4598,4.4598,4.4598,4.4598,4.4598,4.4598,4.4598,4.4598,4.4598,4.4598,4.4598,4.4598,4.4598,4.4598,4.4598,4.4598,4.4598,4.4598,4.4598,4.4598,4.4598,4.4626,4.4626,4.4759,4.4803,4.4748,4.4981,4.4889,4.4961,4.4961,4.5052,4.4971,4.4961,4.4814,4.4841,4.4934,4.5042,4.4879,4.9018,4.9018,4.9018,4.9018,4.9018,4.9018,4.9018,4.9018,4.9018,4.9018,4.9018,4.9018,4.9018,4.8968,4.8748,4.8663,4.8646,4.8376,4.7648,4.6633,4.6464,4.6329,4.6024,4.5585,4.5094,4.4682,4.4598,4.4479,4.4276,4.4198,4.3826,4.32,4.3064,4.2658,4.1999,4.1948,4.1796,4.1619,4.1102,4.0849,4.0798,4.0367,4.0113,4.0113,4.0113,4.0113,4.0113,4.0113,4.0113,4.0113,4.0113,4.0113,4.0197,4.0578,4.0849,4.0916,4.1542,4.2219,4.2692,4.3132,4.369,4.4113,4.4496,4.4581,4.4598,4.4598,4.4615,4.4615,4.4598,4.4598,4.4598,4.4598,4.4666,4.4598,4.4598,4.4598,4.4598,4.4598,4.4598,4.4598,4.4598,4.4598,4.4598,4.4598,4.4598,4.4598,4.4598,4.4598,4.4598,4.4598,4.4598,4.4598,4.4598,4.4598,4.4598,4.4598,4.4598,4.4598,4.4598,4.472,4.4852,4.4841,4.4786,4.4786,4.4692,4.4637,4.4626,4.4637,4.4692,4.4626,4.4665,4.4665,4.4626,4.4598,4.4598,4.9018,4.9018,4.9018,4.9018,4.9018,4.9018,4.9018,4.9018,4.9018,4.9018,4.9018,4.9018,4.9018,4.9018,4.9018,4.9018,4.9018,4.9018,4.8511,4.7648,4.7293,4.709,4.6735,4.6041,4.5483,4.5026,4.4733,4.4598,4.4598,4.4581,4.4361,4.3927,4.3842,4.347,4.2794,4.2692,4.2625,4.2269,4.1847,4.161,4.1508,4.1136,4.0925,4.0942,4.0899,4.0925,4.0942,4.0925,4.0671,4.0299,4.035,4.0519,4.0587,4.117,4.161,4.1745,4.2286,4.2929,4.3358,4.369,4.4028,4.4468,4.4598,4.4598,4.4598,4.4598,4.4682,4.4959,4.5055,4.5111,4.5376,4.5427,4.5427,4.5415,4.4919,4.4649,4.4598,4.4598,4.4598,4.4598,4.4598,4.4598,4.4598,4.4598,4.4598,4.4598,4.4598,4.4598,4.4598,4.4598,4.4598,4.4598,4.4598,4.4598,4.4598,4.4598,4.4598,4.4598,4.4598,4.4786,4.4971,4.4759,4.4665,4.4759,4.4731,4.4759,4.4731,4.4879,4.4944,4.4814,4.4598,4.4598,4.4598,4.4598,4.4598,4.9018,4.9018,4.9018,4.9018,4.9018,4.9018,4.9018,4.9018,4.9018,4.9018,4.9018,4.9018,4.9018,4.9018,4.9018,4.9018,4.9018,4.9001,4.8968,4.868,4.8257,4.7648,4.6955,4.6363,4.5991,4.5686,4.5173,4.4869,4.497,4.4835,4.4666,4.4666,4.453,4.4215,4.3606,4.346,4.3183,4.2709,4.2455,4.2354,4.2354,4.2202,4.2168,4.2168,4.2134,4.21,4.2066,4.2033,4.1542,4.0553,4.0967,4.1255,4.139,4.1965,4.2354,4.2388,4.3064,4.342,4.3656,4.4113,4.4513,4.4581,4.4716,4.4666,4.4784,4.4925,4.5241,4.5703,4.5754,4.6007,4.6498,4.6599,4.6599,4.6583,4.5635,4.5004,4.4716,4.4767,4.4869,4.4716,4.4632,4.4716,4.4818,4.4767,4.475,4.4733,4.4699,4.4598,4.4598,4.4598,4.4598,4.4598,4.4598,4.4598,4.4598,4.4598,4.4598,4.4598,4.4615,4.4765,4.4906,4.472,4.4598,4.4703,4.4824,4.4852,4.4869,4.4934,4.4906,4.472,4.4598,4.4598,4.4598,4.4598,4.4598,4.9018,4.9018,4.9018,4.9018,4.9018,4.9018,4.9018,4.9018,4.9018,4.9018,4.9018,4.9018,4.9018,4.9018,4.9018,4.9018,4.9018,4.9018,4.9018,4.8984,4.8849,4.8308,4.7733,4.7428,4.7005,4.6532,4.6227,4.621,4.616,4.5635,4.5415,4.5382,4.4902,4.4519,4.4327,4.4265,4.4225,4.391,4.3369,4.3132,4.3047,4.2591,4.2303,4.2303,4.2337,4.2354,4.2303,4.2303,4.2168,4.1796,4.189,4.2016,4.2066,4.2709,4.3115,4.3234,4.3792,4.4276,4.4282,4.4496,4.4615,4.4666,4.5128,4.5399,4.5449,4.5906,4.6244,4.6498,4.6498,4.6583,4.6769,4.6853,4.6836,4.6752,4.6447,4.5991,4.5618,4.5855,4.5838,4.4953,4.5579,4.5771,4.5551,4.5415,4.5399,4.5314,4.5043,4.475,4.4902,4.4852,4.497,4.4699,4.4615,4.4598,4.4598,4.4598,4.4598,4.4598,4.4632,4.4682,4.4743,4.4637,4.4598,4.4609,4.4797,4.4852,4.4748,4.472,4.4626,4.4682,4.4598,4.4598,4.4598,4.4598,4.4598,4.9018,4.9018,4.9018,4.9018,4.9018,4.9018,4.9018,4.9018,4.9018,4.9018,4.9018,4.9018,4.9018,4.9018,4.9018,4.9018,4.9018,4.9018,4.9018,4.9018,4.8984,4.8748,4.8376,4.8108,4.7682,4.7276,4.6955,4.6769,4.6701,4.6346,4.6194,4.6024,4.5415,4.506,4.5026,4.4733,4.4598,4.4496,4.4113,4.391,4.3859,4.3487,4.3318,4.3267,4.325,4.325,4.3278,4.3267,4.3041,4.254,4.2557,4.276,4.2844,4.3487,4.3893,4.3927,4.4378,4.4581,4.4666,4.484,4.5043,4.5179,4.5754,4.6092,4.621,4.6583,4.6819,4.7208,4.7242,4.7411,4.7665,4.7716,4.7716,4.7784,4.7716,4.7293,4.6312,4.6481,4.6363,4.6003,4.6177,4.6667,4.6194,4.6177,4.616,4.6109,4.5872,4.5732,4.5635,4.5483,4.5331,4.5145,4.4976,4.5038,4.4869,4.4801,4.5077,4.5072,4.5292,4.5224,4.4902,4.4818,4.475,4.4778,4.4827,4.4892,4.4862,4.4823,4.4786,4.4786,4.4665,4.4666,4.4699,4.4919,4.4869,4.9018,4.9018,4.9018,4.9018,4.9018,4.9018,4.9018,4.9018,4.9018,4.9018,4.9018,4.9018,4.9018,4.9018,4.9018,4.9018,4.9018,4.9018,4.9018,4.9018,4.9018,4.8934,4.8832,4.8392,4.8108,4.7922,4.7327,4.7208,4.7208,4.7056,4.6904,4.6735,4.6177,4.5855,4.5669,4.5173,4.4767,4.4784,4.4598,4.4434,4.4445,4.4361,4.431,4.431,4.431,4.4344,4.4395,4.4395,4.391,4.2651,4.3183,4.3487,4.3639,4.4248,4.4513,4.4513,4.4564,4.4632,4.4818,4.5314,4.5737,4.5889,4.6498,4.6887,4.6955,4.7124,4.7479,4.7986,4.8007,4.8291,4.8663,4.89,4.8815,4.8731,4.8866,4.8308,4.7428,4.7022,4.6972,4.6853,4.6853,4.7005,4.6921,4.6904,4.6904,4.687,4.6616,4.6312,4.6261,4.621,4.6058,4.5872,4.5703,4.5568,4.5297,4.5021,4.5415,4.572,4.6126,4.6109,4.55,4.528,4.5106,4.5111,4.5518,4.5535,4.5315,4.5247,4.5216,4.5279,4.5456,4.5207,4.5004,4.5359,4.5478,4.9018,4.9018,4.9018,4.9018,4.9018,4.9018,4.9018,4.9018,4.9018,4.9018,4.9018,4.9018,4.9018,4.9018,4.9018,4.9018,4.9018,4.9018,4.9018,4.9018,4.9018,4.9018,4.8984,4.8765,4.8765,4.8663,4.8612,4.8494,4.8392,4.7902,4.7682,4.7581,4.6972,4.6566,4.6447,4.5855,4.5466,4.5365,4.4942,4.4716,4.4682,4.4682,4.4649,4.4615,4.4598,4.4598,4.4598,4.4598,4.4429,4.4242,4.4209,4.4215,4.4327,4.4479,4.4632,4.4682,4.4682,4.4886,4.5365,4.5686,4.5991,4.6583,4.7225,4.7669,4.7733,4.8173,4.8494,4.8765,4.8781,4.8815,4.8968,4.9018,4.9018,4.9018,4.8984,4.8866,4.8578,4.8477,4.7953,4.7411,4.7784,4.8308,4.775,4.7682,4.7648,4.7597,4.731,4.6904,4.6887,4.6989,4.6819,4.6667,4.6532,4.638,4.6075,4.5889,4.621,4.6566,4.6938,4.7192,4.6583,4.6244,4.621,4.629,4.6421,4.6256,4.5884,4.6087,4.6152,4.6201,4.6206,4.6036,4.5906,4.6058,4.6053,4.9018,4.9018,4.9018,4.9018,4.9018,4.9018,4.9018,4.9018,4.9018,4.9018,4.9018,4.9018,4.9018,4.9018,4.9018,4.9018,4.9018,4.9018,4.9018,4.9018,4.9018,4.9018,4.9018,4.9018,4.9018,4.9018,4.8984,4.9018,4.8883,4.8646,4.8426,4.8376,4.7699,4.7361,4.7208,4.6583,4.6244,4.6177,4.5855,4.5483,4.5179,4.5111,4.4886,4.4666,4.4598,4.4598,4.4598,4.4598,4.4598,4.4598,4.4615,4.4615,4.4598,4.4615,4.4767,4.5043,4.5111,4.5466,4.6024,4.6549,4.6938,4.7293,4.8003,4.8308,4.8477,4.8832,4.8968,4.9018,4.9001,4.9001,4.9018,4.9018,4.9018,4.9018,4.9018,4.9018,4.9018,4.9001,4.8781,4.8122,4.8494,4.8663,4.8545,4.8359,4.8376,4.8308,4.8342,4.797,4.8037,4.8071,4.7716,4.753,4.7394,4.7192,4.6904,4.6887,4.7158,4.7479,4.7817,4.8054,4.7919,4.7699,4.7564,4.739,4.7035,4.6781,4.6498,4.6769,4.6904,4.6667,4.6616,4.6735,4.6769,4.6633,4.6549,4.9018,4.9018,4.9018,4.9018,4.9018,4.9018,4.9018,4.9018,4.9018,4.9018,4.9018,4.9018,4.9018,4.9018,4.9018,4.9018,4.9018,4.9018,4.9018,4.9018,4.9018,4.9018,4.9018,4.9018,4.9018,4.9018,4.9018,4.9018,4.9018,4.9001,4.8866,4.8866,4.8426,4.8105,4.7919,4.7378,4.6972,4.6938,4.6701,4.638,4.5974,4.5855,4.5568,4.5258,4.4919,4.5021,4.5072,4.5004,4.4886,4.4919,4.4936,4.4936,4.4919,4.4807,4.4976,4.5669,4.5754,4.6244,4.687,4.7445,4.7834,4.8024,4.8595,4.8934,4.8968,4.8951,4.9001,4.9018,4.9018,4.9018,4.9018,4.9018,4.9018,4.9018,4.9018,4.9018,4.9018,4.9018,4.8917,4.8934,4.8849,4.8849,4.89,4.8815,4.8934,4.9018,4.9018,4.9018,4.9018,4.8917,4.846,4.8274,4.8139,4.8071,4.7817,4.7699,4.8003,4.8122,4.8494,4.8595,4.8781,4.8562,4.8189,4.7733,4.7394,4.7276,4.7327,4.7581,4.753,4.7158,4.7259,4.7614,4.7496,4.7175,4.7192,4.9018,4.9018,4.9018,4.9018,4.9018,4.9018,4.9018,4.9018,4.9018,4.9018,4.9018,4.9018,4.9018,4.9018,4.9018,4.9018,4.9018,4.9018,4.9018,4.9018,4.9018,4.9018,4.9018,4.9018,4.9018,4.9018,4.9018,4.9018,4.9018,4.9018,4.9018,4.8968,4.8849,4.8765,4.8545,4.8139,4.7733,4.7648,4.7293,4.6904,4.6684,4.6515,4.643,4.6143,4.5737,4.5788,4.6075,4.5838,4.5788,4.6329,4.6413,4.638,4.6194,4.5805,4.5737,4.5923,4.638,4.6938,4.7631,4.7851,4.8257,4.8663,4.8934,4.9001,4.9018,4.9018,4.9018,4.9018,4.9018,4.9018,4.9018,4.9018,4.9018,4.9018,4.9018,4.9018,4.9018,4.9018,4.9018,4.9018,4.9018,4.9018,4.9018,4.9018,4.9018,4.9018,4.9018,4.9018,4.9018,4.9018,4.8866,4.8815,4.8849,4.8815,4.8765,4.868,4.8714,4.8646,4.8815,4.8798,4.8934,4.8968,4.8697,4.8257,4.824,4.8359,4.8426,4.8392,4.8342,4.8122,4.8342,4.8545,4.8291,4.8037,4.8257,4.9018,4.9018,4.9018,4.9018,4.9018,4.9018,4.9018,4.9018,4.9018,4.9018,4.9018,4.9018,4.9018,4.9018,4.9018,4.9018,4.9018,4.9018,4.9018,4.9018,4.9018,4.9018,4.9018,4.9018,4.9018,4.9018,4.9018,4.9018,4.9018,4.9018,4.9018,4.9001,4.9018,4.9018,4.8951,4.8663,4.8477,4.8359,4.8088,4.7716,4.7361,4.7073,4.6836,4.6684,4.6532,4.6481,4.6599,4.6532,4.643,4.6684,4.6769,4.6786,4.6802,4.6887,4.6836,4.6874,4.7175,4.7682,4.8308,4.8494,4.8663,4.8917,4.9018,4.9018,4.9018,4.9018,4.9018,4.9018,4.9018,4.9018,4.9018,4.9018,4.9018,4.9018,4.9018,4.9018,4.9018,4.9018,4.9018,4.9018,4.9018,4.9018,4.9018,4.9018,4.9018,4.9018,4.9018,4.9018,4.9018,4.9018,4.9018,4.9001,4.9001,4.9001,4.9001,4.9001,4.9018,4.9018,4.9018,4.9018,4.9018,4.9018,4.9018,4.8815,4.8968,4.9018,4.8951,4.8731,4.89,4.9018,4.8883,4.8798,4.8917,4.8984,4.9018,4.9018,4.9018,4.9018,4.9018,4.9018,4.9018,4.9018,4.9018,4.9018,4.9018,4.9018,4.9018,4.9018,4.9018,4.9018,4.9018,4.9018,4.9018,4.9018,4.9018,4.9018,4.9018,4.9018,4.9018,4.9018,4.9018,4.9018,4.9018,4.9018,4.9018,4.9018,4.9018,4.9018,4.9018,4.8968,4.8917,4.9001,4.9018,4.8984,4.8646,4.8122,4.7581,4.7242,4.7175,4.709,4.709,4.7378,4.7141,4.7192,4.731,4.7344,4.7293,4.7344,4.78,4.8091,4.8108,4.8125,4.8446,4.8781,4.8951,4.8917,4.9018,4.9018,4.9018,4.9018,4.9018,4.9018,4.9018,4.9018,4.9018,4.9018,4.9018,4.9103,4.9221,4.9154,4.9052,4.9187,4.9187,4.9018,4.9018,4.9018,4.9018,4.9018,4.9018,4.9018,4.9018,4.9018,4.9018,4.9018,4.9018,4.9018,4.9018,4.9001,4.9001,4.9001,4.9001,4.9018,4.9018,4.9018,4.9018,4.9018,4.9018,4.9018,4.9018,4.9018,4.9018,4.9018,4.9018,4.9018,4.9018,4.9018,4.9018,4.9018,4.9018,4.9018,4.9018,4.9018,4.9018,4.9018,4.9018,4.9018,4.9018,4.9018,4.9018,4.9018,4.9018,4.9018,4.9018,4.9018,4.9018,4.9018,4.9018,4.9018,4.9018,4.9018,4.9018,4.9018,4.9018,4.9018,4.9018,4.9018,4.9018,4.9018,4.9018,4.9018,4.9018,4.9018,4.9018,4.9018,4.9018,4.9018,4.9018,4.9018,4.9018,4.8951,4.8815,4.8663,4.8595,4.846,4.8156,4.8003,4.8342,4.8071,4.8003,4.8528,4.8646,4.8714,4.8781,4.8798,4.8866,4.8883,4.8883,4.8917,4.8984,4.9018,4.9018,4.9018,4.9018,4.9018,4.9018,4.9018,4.9018,4.9018,4.9052,4.9103,4.9154,4.9103,4.9357,4.9543,4.9593,4.9661,4.9746,4.9492,4.9306,4.912,4.9154,4.9069,4.9018,4.9018,4.9018,4.9018,4.9018,4.9018,4.9018,4.9018,4.9018,4.9018,4.9018,4.9018,4.9018,4.9018,4.9018,4.9018,4.9018,4.9018,4.9018,4.9018,4.9018,4.9018,4.9018,4.9018,4.9018,4.9018,4.9018,4.9018,4.9018,4.9018,4.9018,4.9018,4.9018,4.9018,4.9018,4.9018,4.9018,4.9018,4.9018,4.9018,4.9018,4.9018,4.9018,4.9018,4.9018,4.9018,4.9018,4.9018,4.9018,4.9018,4.9018,4.9018,4.9018,4.9018,4.9018,4.9018,4.9018,4.9018,4.9018,4.9018,4.9018,4.9018,4.9018,4.9018,4.9018,4.9018,4.9018,4.9018,4.9018,4.9018,4.9018,4.9018,4.9018,4.9018,4.9018,4.9018,4.9001,4.868,4.8748,4.8815,4.8798,4.8663,4.9001,4.9018,4.9001,4.9001,4.9001,4.9001,4.9001,4.9001,4.9001,4.9018,4.9018,4.9018,4.9018,4.9018,4.9018,4.9018,4.9035,4.9035,4.9018,4.9407,4.9593,4.9729,5.0016,5.0338,5.0473,5.0287,5.0422,5.0422,4.9915,4.9661,4.9475,4.934,4.934,4.9323,4.9289,4.9221,4.9018,4.9018,4.9018,4.9018,4.9018,4.9018,4.9018,4.9018,4.9018,4.9018,4.9018,4.9018,4.9018,4.9018,4.9018,4.9018,4.9018,4.9018,4.9018,4.9018,4.9018,4.9018,4.9018,4.9018,4.9018,4.9018,4.9018,4.9018,4.9018,4.9001,4.8832,4.9001,4.9018,4.9018,4.9018,4.9018,4.9018,4.9018,4.9018,4.9018,4.9018,4.9018,4.9018,4.9018,4.9018,4.9018,4.9018,4.9018,4.9018,4.9018,4.9018,4.9018,4.9018,4.9018,4.9018,4.9018,4.9018,4.9018,4.9018,4.9018,4.9018,4.9018,4.9018,4.9018,4.9018,4.9018,4.9018,4.9018,4.9018,4.9018,4.9018,4.9018,4.9018,4.9018,4.9001,4.9018,4.9018,4.8984,4.8984,4.9001,4.9018,4.9018,4.9018,4.9018,4.9018,4.9018,4.9018,4.9018,4.9018,4.9018,4.9018,4.9018,4.9052,4.9103,4.934,4.9272,4.9475,4.9712,5.0067,5.0338,5.0473,5.0862,5.1133,5.1217,5.12,5.1336,5.1319,5.076,5.0388,5.0304,5.0152,4.9932,4.9864,4.9729,4.9475,4.912,4.9018,4.9052,4.9103,4.9171,4.912,4.9137,4.9103,4.9086,4.9069,4.9069,4.9052,4.9103,4.9103,4.9052,4.9069,4.9035,4.9018,4.9018,4.9018,4.9018,4.9018,4.9018,4.9018,4.9018,4.9018,4.9018,4.9018,4.9018,4.9063,4.8392,4.9018,4.9018,4.9018,4.9018,4.9018,4.9018,4.9018,4.9018,4.897,4.8909,4.897,4.8909,4.8877,4.8767,4.8798,4.897,4.9001,4.897,4.897,4.9018,4.9018,4.9018,4.9018,4.9018,4.9018,4.9018,4.9018,4.9018,4.9018,4.9018,4.9018,4.9018,4.9018,4.9018,4.9018,4.9018,4.9018,4.9018,4.9018,4.9018,4.9018,4.9018,4.9018,4.9018,4.9018,4.9018,4.9018,4.9018,4.9018,4.9018,4.9018,4.9018,4.9018,4.9018,4.9018,4.9018,4.9018,4.9018,4.9018,4.9018,4.9018,4.912,4.9373,4.9746,4.9965,5.0304,5.076,5.0947,5.1099,5.115,5.1285,5.1826,5.1978,5.2046,5.2029,5.1928,5.1505,5.1183,5.115,5.093,5.0608,5.0541,5.0405,5.0152,4.9813,4.9661,4.9712,4.9543,4.9543,4.939,4.9323,4.9255,4.9204,4.9187,4.9289,4.9627,4.9576,4.9475,4.9306,4.9171,4.912,4.9018,4.9018,4.9018,4.9018,4.9018,4.9018,4.9018,4.9018,4.9018,4.9018,4.9018,4.9018,4.9094,4.8342,4.9001,4.9018,4.9018,4.9018,4.9018,4.9018,4.9018,4.9001,4.8719,4.8338,4.8322,4.8081,4.7803,4.7704,4.7934,4.8274,4.8306,4.8625,4.8909,4.9018,4.9018,4.9018,4.9018,4.9018,4.9018,4.9018,4.9018,4.9018,4.9018,4.9018,4.9018,4.9069,4.9018,4.9018,4.9018,4.9018,4.9035,4.9018,4.9018,4.9018,4.9018,4.9018,4.9018,4.9018,4.9018,4.9018,4.9018,4.9018,4.9018,4.9018,4.9018,4.9018,4.9018,4.9018,4.9035,4.9035,4.9086,4.9069,4.9052,4.9018,4.912,4.939,4.983,5.027,5.0507,5.0828,5.1202,5.1674,5.1877,5.1911,5.2334,5.2824,5.2892,5.2858,5.2756,5.2536,5.2147,5.1961,5.1911,5.1488,5.1065,5.1082,5.1116,5.0845,5.0557,5.0439,5.0321,5.0168,5.0084,5.0016,4.9982,4.9965,5.005,5.005,5.0185,5.0321,5.0118,4.9898,4.9796,4.9627,4.9103,4.9035,4.9018,4.9086,4.912,4.912,4.9035,4.9018,4.9018,4.9018,4.9018,4.9018,4.9018,4.9124,4.802,4.868,4.8917,4.9018,4.9018,4.9018,4.9018,4.9018,4.9018,4.8593,4.7934,4.7901,4.7489,4.7051,4.7389,4.7556,4.8032,4.8225,4.8576,4.8829,4.9018,4.9018,4.9018,4.9018,4.9018,4.9018,4.9018,4.9018,4.9018,4.9018,4.9187,4.9323,4.9306,4.9289,4.9018,4.9018,4.9103,4.9272,4.9086,4.9204,4.9272,4.912,4.9018,4.9018,4.9018,4.9018,4.9018,4.9018,4.9018,4.9018,4.9018,4.9018,4.9018,4.9018,4.9018,4.9069,4.9187,4.9323,4.934,4.9323,4.9458,4.9864,5.0152,5.0507,5.0828,5.1251,5.164,5.2046,5.2435,5.2655,5.2655,5.3061,5.3264,5.3247,5.3264,5.3196,5.3129,5.2858,5.2756,5.2655,5.2266,5.208,5.2114,5.2147,5.1589,5.1234,5.0862,5.0811,5.0811,5.0794,5.0862,5.0862,5.0896,5.1014,5.1166,5.0997,5.0845,5.0744,5.0557,5.0507,5.0253,4.9746,4.961,4.9949,4.9881,4.9475,4.9289,4.9255,4.9137,4.9018,4.9018,4.9018,4.9018,4.9032,4.9185,4.7293,4.7973,4.8714,4.9018,4.9018,4.9018,4.897,4.8909,4.8909,4.853,4.7934,4.7901,4.7489,4.7203,4.7803,4.8081,4.8032,4.8482,4.8861,4.894,4.9018,4.9018,4.9018,4.9018,4.9018,4.9018,4.9018,4.9018,4.912,4.9204,4.9475,4.9915,5.005,4.983,4.9137,4.9052,4.9407,4.9864,4.9441,4.9661,4.983,4.9593,4.9407,4.939,4.9407,4.9458,4.9458,4.9458,4.9475,4.9458,4.9255,4.9272,4.9373,4.9221,4.9204,4.9272,4.9796,5.005,5.0118,5.0101,5.0405,5.0794,5.098,5.1369,5.1961,5.2317,5.2486,5.2841,5.323,5.3348,5.3433,5.3467,5.3501,5.3518,5.3518,5.3501,5.3399,5.3365,5.3196,5.3095,5.3298,5.3399,5.3382,5.3196,5.2486,5.1928,5.1403,5.1302,5.1488,5.1657,5.1809,5.186,5.1894,5.1894,5.1911,5.1555,5.1352,5.1285,5.1251,5.12,5.1099,5.076,5.076,5.0947,5.0591,5.0084,4.9763,4.9509,4.9255,4.9018,4.9018,4.9018,4.9018,4.9063,4.9185,4.7225,4.7939,4.8697,4.9018,4.9018,4.9001,4.8736,4.8289,4.8257,4.8129,4.7967,4.7901,4.7489,4.7221,4.7288,4.7737,4.7934,4.8032,4.8418,4.8956,4.9041,4.9018,4.9021,4.9077,4.9072,4.9018,4.9035,4.9345,4.9763,4.9729,5.0168,5.0659,5.0896,5.0727,5.0541,5.0473,5.0627,5.0777,5.0625,5.0625,5.0777,5.0574,5.0405,5.0371,5.0323,5.0338,5.0321,5.027,5.027,5.0219,4.9999,4.9915,5.0118,5.005,4.9932,5.0253,5.0811,5.1082,5.1369,5.1539,5.1386,5.1489,5.1692,5.2063,5.23,5.2858,5.3196,5.3399,5.3501,5.3518,5.3501,5.3501,5.3518,5.3518,5.3518,5.3518,5.3467,5.3467,5.3416,5.3382,5.3501,5.3518,5.3518,5.3518,5.2976,5.2824,5.2401,5.2452,5.2638,5.279,5.2942,5.2942,5.2942,5.2841,5.2689,5.2367,5.2317,5.2384,5.2181,5.1944,5.1809,5.1674,5.1471,5.1437,5.1065,5.0693,5.0152,4.9627,4.9238,4.9018,4.9103,4.9069,4.9018,4.9063,4.9155,4.7225,4.7939,4.8714,4.9018,4.9018,4.9018,4.8688,4.8274,4.8032,4.7901,4.7901,4.7885,4.7305,4.6795,4.6983,4.683,4.7254,4.7718,4.7984,4.8675,4.9202,4.9336,4.9368,4.9347,4.9678,4.954,4.951,4.9749,5.0441,5.0473,5.0896,5.1471,5.1843,5.2029,5.1877,5.1574,5.1252,5.1352,5.1319,5.1234,5.1369,5.1303,5.115,5.1133,5.1133,5.115,5.12,5.1234,5.1251,5.1099,5.0913,5.0727,5.0913,5.0913,5.0744,5.1099,5.1539,5.1928,5.2452,5.2655,5.2435,5.2249,5.252,5.2689,5.2756,5.3179,5.3365,5.3501,5.3518,5.3518,5.3518,5.3518,5.3518,5.3518,5.3518,5.3518,5.3518,5.3518,5.3518,5.3518,5.3518,5.3518,5.3518,5.3518,5.3348,5.3399,5.3433,5.3518,5.3518,5.3518,5.3518,5.3467,5.345,5.3264,5.3213,5.3213,5.3247,5.345,5.3095,5.2638,5.2672,5.2553,5.2232,5.1911,5.1708,5.1285,5.0338,4.9763,4.9526,4.9373,4.9357,4.9255,4.9069,4.9063,4.9124,4.7225,4.7956,4.8697,4.897,4.894,4.8798,4.8829,4.8861,4.8177,4.7869,4.7901,4.7852,4.7137,4.6308,4.7204,4.7103,4.6487,4.7335,4.7721,4.8241,4.907,4.9487,4.9704,4.9704,4.9792,5.0276,5.0293,4.9959,5.1006,5.1471,5.1843,5.2317,5.2858,5.3027,5.2739,5.2317,5.1978,5.2114,5.2012,5.2029,5.2215,5.1877,5.1758,5.1725,5.1708,5.1691,5.1674,5.164,5.1572,5.1471,5.1336,5.1286,5.1286,5.1285,5.1268,5.1522,5.2063,5.2689,5.3162,5.3298,5.3315,5.3078,5.3281,5.345,5.345,5.3433,5.3484,5.3518,5.3518,5.3518,5.3518,5.3518,5.3518,5.3518,5.3518,5.3518,5.3518,5.3518,5.3518,5.3518,5.3518,5.3518,5.3518,5.3518,5.3518,5.3518,5.3518,5.3518,5.3518,5.3518,5.3518,5.3501,5.3484,5.3501,5.3518,5.3518,5.3518,5.3501,5.3501,5.3196,5.3298,5.3281,5.2976,5.2672,5.2486,5.1944,5.1099,5.0456,4.9965,4.9881,4.9965,4.9475,4.9272,4.9052,4.9094,4.7225,4.7986,4.8697,4.8688,4.8161,4.7671,4.7999,4.8767,4.7737,4.7389,4.7885,4.7355,4.6846,4.6569,4.6949,4.6777,4.6897,4.7284,4.7661,4.8223,4.8858,4.9063,4.9213,4.9313,4.9374,4.9461,4.9578,4.9965,5.1157,5.1984,5.2673,5.323,5.3264,5.3382,5.3315,5.3061,5.301,5.2942,5.2739,5.2841,5.2976,5.2773,5.2655,5.2638,5.2638,5.2621,5.2638,5.2655,5.2672,5.2723,5.2249,5.2181,5.2824,5.2384,5.2131,5.2807,5.3095,5.3298,5.3467,5.3518,5.3518,5.3518,5.3518,5.3518,5.3501,5.3518,5.3518,5.3518,5.3518,5.3518,5.3518,5.3518,5.3518,5.3518,5.3518,5.3518,5.3518,5.3518,5.3518,5.3518,5.3518,5.3518,5.3518,5.3518,5.3518,5.3518,5.3518,5.3518,5.3518,5.3518,5.3518,5.3518,5.3518,5.3518,5.3518,5.3518,5.3518,5.3518,5.3518,5.3518,5.345,5.3433,5.3484,5.3247,5.2756,5.2384,5.1944,5.1336,5.071,5.0744,5.076,5.005,4.9492,4.9424,4.9416,4.7225,4.7926,4.8354,4.8145,4.7456,4.6983,4.7355,4.7869,4.7153,4.7085,4.7372,4.7017,4.6638,4.6324,4.6324,4.6163,4.5936,4.6755,4.7251,4.751,4.8611,4.9187,4.9251,4.9224,4.9613,4.948,4.9549,5.0004,5.1097,5.1855,5.2539,5.2939,5.3024,5.3246,5.3349,5.3399,5.345,5.345,5.345,5.3518,5.3518,5.3518,5.3518,5.3518,5.3518,5.3518,5.3518,5.3518,5.3518,5.3501,5.2909,5.2976,5.3433,5.3027,5.2858,5.3382,5.3433,5.3433,5.3518,5.3518,5.3518,5.3518,5.3518,5.3518,5.3518,5.3518,5.3518,5.3518,5.3518,5.3518,5.3518,5.3518,5.3518,5.3518,5.3518,5.3518,5.3518,5.3518,5.3518,5.3518,5.3518,5.3518,5.3518,5.3518,5.3518,5.3518,5.3518,5.3518,5.3518,5.3518,5.3518,5.3518,5.3518,5.3518,5.3518,5.3518,5.3518,5.3518,5.3518,5.3518,5.3518,5.3518,5.3518,5.3213,5.2807,5.2503,5.2266,5.1995,5.1572,5.1572,5.1488,5.1065,5.0574,5.0304,5.0294,4.7136,4.7787,4.7716,4.7305,4.6742,4.6569,4.6569,4.662,4.6499,4.6673,4.6689,4.6604,4.6163,4.566,4.5604,4.5311,4.5457,4.6175,4.6819,4.6744,4.8553,4.9387,4.9466,4.9781,4.9575,5.0147,5.0288,4.9801,5.0677,5.1385,5.1842,5.22,5.2395,5.2694,5.3127,5.3433,5.3467,5.3518,5.3518,5.3518,5.3518,5.3518,5.3518,5.3518,5.3518,5.3518,5.3518,5.3518,5.3518,5.3501,5.3484,5.345,5.345,5.3433,5.3467,5.3467,5.3501,5.3518,5.3518,5.3518,5.3518,5.3518,5.3518,5.3518,5.3518,5.3518,5.3518,5.3518,5.3518,5.3518,5.3518,5.3518,5.3518,5.3518,5.3518,5.3518,5.3518,5.3518,5.3518,5.3518,5.3518,5.3518,5.3518,5.3518,5.3518,5.3518,5.3518,5.3518,5.3518,5.3518,5.3518,5.3518,5.3518,5.3518,5.3518,5.3518,5.3518,5.3518,5.3518,5.3518,5.3518,5.3518,5.3518,5.3281,5.3044,5.2756,5.2503,5.2384,5.23,5.2097,5.2046,5.2012,5.1725,5.1354,5.1123,4.6398,4.6987,4.6469,4.6111,4.5913,4.5348,4.5179,4.5142,4.5142,4.5478,4.5789,4.5421,4.5104,4.4993,4.4955,4.4746,4.4994,4.5911,4.648,4.7059,4.8339,4.9066,4.8975,4.9081,4.9163,4.9081,4.9122,4.943,5.0206,5.0729,5.1091,5.1459,5.1769,5.2272,5.259,5.2972,5.3365,5.3331,5.3467,5.3501,5.3518,5.3518,5.3518,5.3518,5.3518,5.3518,5.3518,5.3518,5.3518,5.3501,5.3501,5.3501,5.3501,5.3518,5.3518,5.3518,5.3518,5.3518,5.3518,5.3518,5.3518,5.3518,5.3518,5.3518,5.3518,5.3518,5.3518,5.3518,5.3518,5.3518,5.3518,5.3518,5.3518,5.3518,5.3518,5.3518,5.3518,5.3518,5.3518,5.3518,5.3518,5.3518,5.3518,5.3518,5.3518,5.3518,5.3518,5.3518,5.3518,5.3518,5.3518,5.3518,5.3518,5.3518,5.3518,5.3518,5.3518,5.3518,5.3518,5.3518,5.3518,5.3518,5.3501,5.3484,5.3331,5.3078,5.301,5.3179,5.3044,5.2739,5.2672,5.2689,5.2824,5.2621,5.2191,4.5256,4.5849,4.5767,4.5515,4.5179,4.4761,4.461,4.461,4.461,4.4821,4.5142,4.4783,4.461,4.461,4.461,4.4641,4.4887,4.5988,4.6465,4.7004,4.785,4.8476,4.8604,4.8604,4.8687,4.8604,4.8661,4.9056,4.9829,4.9734,4.9994,5.0576,5.1145,5.1533,5.1842,5.252,5.3058,5.2938,5.3314,5.3467,5.3518,5.3518,5.3518,5.3518,5.3518,5.3518,5.3518,5.3518,5.3518,5.3518,5.3518,5.3518,5.3518,5.3518,5.3518,5.3518,5.3518,5.3518,5.3518,5.3518,5.3518,5.3518,5.3518,5.3518,5.3518,5.3518,5.3518,5.3518,5.3518,5.3518,5.3518,5.3518,5.3518,5.3518,5.3518,5.3518,5.3518,5.3518,5.3518,5.3518,5.3518,5.3518,5.3518,5.3518,5.3518,5.3518,5.3518,5.3518,5.3518,5.3518,5.3518,5.3518,5.3518,5.3518,5.3518,5.3518,5.3518,5.3518,5.3518,5.3518,5.3518,5.3518,5.3501,5.3501,5.3484,5.345,5.3467,5.3518,5.3518,5.3213,5.3264,5.3382,5.3518,5.3501,5.3124,4.3977,4.4616,4.5267,4.5216,4.4648,4.461,4.461,4.461,4.461,4.461,4.4648,4.4648,4.461,4.461,4.461,4.4687,4.5118,4.6095,4.6511,4.7111,4.8065,4.8466,4.8604,4.8604,4.8604,4.8687,4.8852,4.9284,4.9868,4.9773,4.9837,4.99,5.0174,5.0538,5.1182,5.1987,5.2694,5.2903,5.3178,5.3433,5.3518,5.3518,5.3518,5.3518,5.3518,5.3518,5.3518,5.3518,5.3518,5.3518,5.3518,5.3518,5.3518,5.3518,5.3518,5.3518,5.3518,5.3518,5.3518,5.3518,5.3518,5.3518,5.3518,5.3518,5.3518,5.3518,5.3518,5.3518,5.3518,5.3518,5.3518,5.3518,5.3518,5.3518,5.3518,5.3518,5.3518,5.3518,5.3518,5.3518,5.3518,5.3518,5.3518,5.3518,5.3518,5.3518,5.3518,5.3518,5.3518,5.3518,5.3518,5.3518,5.3518,5.3518,5.3518,5.3518,5.3518,5.3518,5.3518,5.3518,5.3518,5.3518,5.3518,5.3518,5.3518,5.3518,5.3518,5.3518,5.3518,5.3518,5.3518,5.3518,5.3518,5.3534,5.3685,4.3205,4.3858,4.4533,4.4723,4.461,4.461,4.461,4.461,4.461,4.461,4.461,4.461,4.461,4.461,4.461,4.481,4.5387,4.628,4.6957,4.7542,4.8219,4.8496,4.8604,4.8604,4.8604,4.8795,4.9163,4.9686,4.9868,5.0151,5.0267,4.9931,5.1294,5.1496,5.1257,5.2095,5.3024,5.3093,5.3212,5.3518,5.3518,5.3518,5.3518,5.3518,5.3518,5.3518,5.3518,5.3518,5.3518,5.3518,5.3518,5.3518,5.3518,5.3518,5.3518,5.3518,5.3518,5.3518,5.3518,5.3518,5.3518,5.3518,5.3518,5.3518,5.3518,5.3518,5.3518,5.3518,5.3518,5.3518,5.3518,5.3518,5.3518,5.3518,5.3518,5.3518,5.3518,5.3518,5.3518,5.3518,5.3518,5.3518,5.3518,5.3518,5.3518,5.3518,5.3518,5.3518,5.3518,5.3518,5.3518,5.3518,5.3518,5.3518,5.3518,5.3518,5.3518,5.3518,5.3518,5.3518,5.3518,5.3518,5.3518,5.3518,5.3518,5.3518,5.3518,5.3518,5.3518,5.3518,5.3518,5.3518,5.3518,5.3534,5.3685]}]]